<?xml version="1.0" encoding="UTF-8" standalone="no" ?>
<gpx xmlns="http://www.topografix.com/GPX/1/1" xmlns:xsi="http://www.w3.org/2001/XMLSchema-instance" xsi:schemaLocation="http://www.topografix.com/GPX/1/1 http://www.topografix.com/GPX/1/1/gpx.xsd" version="1.1" creator="VisuGPX - https://www.visugpx.com">
  <metadata>
    <name>Sortie VTT 1/2 journée Lambesc, 36km et 650 D+</name>
    <desc><![CDATA[Départ de la mairie de Lambesc, pour rejoindre Cazan par la colline, puis Vernègues le vieux le plateau par des chemins escarpés et caillouteux, belle descente technique et jolis passages jusqu'au petit Sonnailler. Singles roulants jusqu'à Aurons, puis retour Lambesc par le château de Calavon. Evitez les grosses chaleurs. ]]></desc>
  </metadata>
  <trk>
    <name><![CDATA[Tracé actuel: 25 SEPT 2021 08:26]]></name>
    <trkseg>
      <trkpt lat="43.65537" lon="5.26337">
        <ele>195.77</ele>
        <time>2021-09-25T06:26:34Z</time>
      </trkpt>
      <trkpt lat="43.6554" lon="5.26339">
        <ele>204.42</ele>
        <time>2021-09-25T06:26:46Z</time>
      </trkpt>
      <trkpt lat="43.65542" lon="5.2635">
        <ele>204.42</ele>
        <time>2021-09-25T06:26:52Z</time>
      </trkpt>
      <trkpt lat="43.65542" lon="5.26353">
        <ele>204.9</ele>
        <time>2021-09-25T06:26:53Z</time>
      </trkpt>
      <trkpt lat="43.65541" lon="5.26356">
        <ele>204.9</ele>
        <time>2021-09-25T06:26:54Z</time>
      </trkpt>
      <trkpt lat="43.65541" lon="5.26375">
        <ele>206.34</ele>
        <time>2021-09-25T06:27:01Z</time>
      </trkpt>
      <trkpt lat="43.6554" lon="5.26376">
        <ele>206.34</ele>
        <time>2021-09-25T06:27:02Z</time>
      </trkpt>
      <trkpt lat="43.65539" lon="5.26379">
        <ele>205.86</ele>
        <time>2021-09-25T06:27:04Z</time>
      </trkpt>
      <trkpt lat="43.65538" lon="5.26381">
        <ele>206.34</ele>
        <time>2021-09-25T06:27:05Z</time>
      </trkpt>
      <trkpt lat="43.65539" lon="5.26384">
        <ele>205.86</ele>
        <time>2021-09-25T06:27:06Z</time>
      </trkpt>
      <trkpt lat="43.65539" lon="5.26386">
        <ele>205.38</ele>
        <time>2021-09-25T06:27:07Z</time>
      </trkpt>
      <trkpt lat="43.6554" lon="5.26388">
        <ele>204.9</ele>
        <time>2021-09-25T06:27:08Z</time>
      </trkpt>
      <trkpt lat="43.65539" lon="5.26391">
        <ele>204.9</ele>
        <time>2021-09-25T06:27:09Z</time>
      </trkpt>
      <trkpt lat="43.65539" lon="5.26393">
        <ele>204.9</ele>
        <time>2021-09-25T06:27:10Z</time>
      </trkpt>
      <trkpt lat="43.65539" lon="5.26395">
        <ele>204.42</ele>
        <time>2021-09-25T06:27:25Z</time>
      </trkpt>
      <trkpt lat="43.6554" lon="5.264">
        <ele>202.01</ele>
        <time>2021-09-25T06:27:56Z</time>
      </trkpt>
      <trkpt lat="43.6554" lon="5.26401">
        <ele>201.05</ele>
        <time>2021-09-25T06:28:19Z</time>
      </trkpt>
      <trkpt lat="43.6554" lon="5.26394">
        <ele>202.98</ele>
        <time>2021-09-25T06:28:57Z</time>
      </trkpt>
      <trkpt lat="43.65542" lon="5.26396">
        <ele>202.49</ele>
        <time>2021-09-25T06:29:22Z</time>
      </trkpt>
      <trkpt lat="43.65543" lon="5.26395">
        <ele>202.49</ele>
        <time>2021-09-25T06:29:23Z</time>
      </trkpt>
      <trkpt lat="43.6555" lon="5.2635">
        <ele>202.01</ele>
        <time>2021-09-25T06:29:41Z</time>
      </trkpt>
      <trkpt lat="43.65551" lon="5.2628">
        <ele>202.98</ele>
        <time>2021-09-25T06:30:00Z</time>
      </trkpt>
      <trkpt lat="43.65548" lon="5.26276">
        <ele>202.98</ele>
        <time>2021-09-25T06:30:03Z</time>
      </trkpt>
      <trkpt lat="43.65545" lon="5.26276">
        <ele>203.46</ele>
        <time>2021-09-25T06:30:23Z</time>
      </trkpt>
      <trkpt lat="43.65544" lon="5.26276">
        <ele>200.09</ele>
        <time>2021-09-25T06:30:57Z</time>
      </trkpt>
      <trkpt lat="43.65544" lon="5.26276">
        <ele>201.53</ele>
        <time>2021-09-25T06:31:34Z</time>
      </trkpt>
      <trkpt lat="43.6554" lon="5.2627">
        <ele>202.49</ele>
        <time>2021-09-25T06:31:56Z</time>
      </trkpt>
      <trkpt lat="43.65538" lon="5.26271">
        <ele>204.42</ele>
        <time>2021-09-25T06:32:21Z</time>
      </trkpt>
      <trkpt lat="43.65522" lon="5.26261">
        <ele>204.42</ele>
        <time>2021-09-25T06:32:44Z</time>
      </trkpt>
      <trkpt lat="43.6552" lon="5.26258">
        <ele>204.9</ele>
        <time>2021-09-25T06:32:45Z</time>
      </trkpt>
      <trkpt lat="43.6552" lon="5.26255">
        <ele>204.9</ele>
        <time>2021-09-25T06:32:46Z</time>
      </trkpt>
      <trkpt lat="43.6552" lon="5.26253">
        <ele>204.9</ele>
        <time>2021-09-25T06:32:47Z</time>
      </trkpt>
      <trkpt lat="43.65519" lon="5.2625">
        <ele>204.42</ele>
        <time>2021-09-25T06:32:48Z</time>
      </trkpt>
      <trkpt lat="43.65518" lon="5.26245">
        <ele>203.94</ele>
        <time>2021-09-25T06:32:50Z</time>
      </trkpt>
      <trkpt lat="43.65519" lon="5.26242">
        <ele>203.94</ele>
        <time>2021-09-25T06:32:51Z</time>
      </trkpt>
      <trkpt lat="43.65561" lon="5.2623">
        <ele>204.42</ele>
        <time>2021-09-25T06:33:06Z</time>
      </trkpt>
      <trkpt lat="43.6562" lon="5.26232">
        <ele>205.86</ele>
        <time>2021-09-25T06:33:24Z</time>
      </trkpt>
      <trkpt lat="43.6566" lon="5.26234">
        <ele>210.19</ele>
        <time>2021-09-25T06:33:38Z</time>
      </trkpt>
      <trkpt lat="43.65722" lon="5.26235">
        <ele>210.67</ele>
        <time>2021-09-25T06:33:53Z</time>
      </trkpt>
      <trkpt lat="43.65794" lon="5.2619">
        <ele>209.7</ele>
        <time>2021-09-25T06:34:15Z</time>
      </trkpt>
      <trkpt lat="43.6587" lon="5.26206">
        <ele>214.03</ele>
        <time>2021-09-25T06:34:38Z</time>
      </trkpt>
      <trkpt lat="43.65941" lon="5.2624">
        <ele>217.4</ele>
        <time>2021-09-25T06:35:03Z</time>
      </trkpt>
      <trkpt lat="43.66004" lon="5.2626">
        <ele>221.72</ele>
        <time>2021-09-25T06:35:25Z</time>
      </trkpt>
      <trkpt lat="43.66038" lon="5.26215">
        <ele>223.16</ele>
        <time>2021-09-25T06:35:41Z</time>
      </trkpt>
      <trkpt lat="43.66091" lon="5.26136">
        <ele>222.68</ele>
        <time>2021-09-25T06:36:03Z</time>
      </trkpt>
      <trkpt lat="43.66162" lon="5.26113">
        <ele>222.2</ele>
        <time>2021-09-25T06:36:23Z</time>
      </trkpt>
      <trkpt lat="43.66198" lon="5.2605">
        <ele>223.16</ele>
        <time>2021-09-25T06:36:40Z</time>
      </trkpt>
      <trkpt lat="43.66253" lon="5.25969">
        <ele>223.64</ele>
        <time>2021-09-25T06:37:03Z</time>
      </trkpt>
      <trkpt lat="43.66307" lon="5.25892">
        <ele>224.61</ele>
        <time>2021-09-25T06:37:26Z</time>
      </trkpt>
      <trkpt lat="43.66354" lon="5.25803">
        <ele>222.2</ele>
        <time>2021-09-25T06:37:46Z</time>
      </trkpt>
      <trkpt lat="43.66375" lon="5.25782">
        <ele>221.24</ele>
        <time>2021-09-25T06:37:52Z</time>
      </trkpt>
      <trkpt lat="43.66379" lon="5.2578">
        <ele>221.24</ele>
        <time>2021-09-25T06:37:53Z</time>
      </trkpt>
      <trkpt lat="43.66383" lon="5.25778">
        <ele>221.24</ele>
        <time>2021-09-25T06:37:54Z</time>
      </trkpt>
      <trkpt lat="43.66395" lon="5.25776">
        <ele>221.72</ele>
        <time>2021-09-25T06:37:57Z</time>
      </trkpt>
      <trkpt lat="43.66427" lon="5.25769">
        <ele>219.8</ele>
        <time>2021-09-25T06:38:03Z</time>
      </trkpt>
      <trkpt lat="43.66433" lon="5.25766">
        <ele>219.32</ele>
        <time>2021-09-25T06:38:04Z</time>
      </trkpt>
      <trkpt lat="43.66438" lon="5.25761">
        <ele>219.32</ele>
        <time>2021-09-25T06:38:05Z</time>
      </trkpt>
      <trkpt lat="43.66444" lon="5.25755">
        <ele>218.84</ele>
        <time>2021-09-25T06:38:06Z</time>
      </trkpt>
      <trkpt lat="43.66449" lon="5.25749">
        <ele>218.84</ele>
        <time>2021-09-25T06:38:07Z</time>
      </trkpt>
      <trkpt lat="43.66453" lon="5.25743">
        <ele>218.84</ele>
        <time>2021-09-25T06:38:08Z</time>
      </trkpt>
      <trkpt lat="43.66458" lon="5.25736">
        <ele>218.36</ele>
        <time>2021-09-25T06:38:09Z</time>
      </trkpt>
      <trkpt lat="43.66475" lon="5.25712">
        <ele>218.84</ele>
        <time>2021-09-25T06:38:13Z</time>
      </trkpt>
      <trkpt lat="43.6648" lon="5.25707">
        <ele>218.84</ele>
        <time>2021-09-25T06:38:14Z</time>
      </trkpt>
      <trkpt lat="43.66488" lon="5.25701">
        <ele>219.32</ele>
        <time>2021-09-25T06:38:16Z</time>
      </trkpt>
      <trkpt lat="43.66561" lon="5.25686">
        <ele>219.8</ele>
        <time>2021-09-25T06:38:35Z</time>
      </trkpt>
      <trkpt lat="43.66616" lon="5.25653">
        <ele>221.24</ele>
        <time>2021-09-25T06:38:54Z</time>
      </trkpt>
      <trkpt lat="43.66621" lon="5.25591">
        <ele>221.24</ele>
        <time>2021-09-25T06:39:07Z</time>
      </trkpt>
      <trkpt lat="43.66624" lon="5.25589">
        <ele>221.72</ele>
        <time>2021-09-25T06:39:08Z</time>
      </trkpt>
      <trkpt lat="43.66627" lon="5.25589">
        <ele>221.72</ele>
        <time>2021-09-25T06:39:09Z</time>
      </trkpt>
      <trkpt lat="43.6663" lon="5.2559">
        <ele>221.72</ele>
        <time>2021-09-25T06:39:10Z</time>
      </trkpt>
      <trkpt lat="43.66634" lon="5.25591">
        <ele>222.2</ele>
        <time>2021-09-25T06:39:11Z</time>
      </trkpt>
      <trkpt lat="43.66707" lon="5.25613">
        <ele>224.61</ele>
        <time>2021-09-25T06:39:33Z</time>
      </trkpt>
      <trkpt lat="43.6672" lon="5.25614">
        <ele>225.09</ele>
        <time>2021-09-25T06:39:38Z</time>
      </trkpt>
      <trkpt lat="43.66722" lon="5.25612">
        <ele>225.09</ele>
        <time>2021-09-25T06:39:39Z</time>
      </trkpt>
      <trkpt lat="43.66724" lon="5.25609">
        <ele>225.57</ele>
        <time>2021-09-25T06:39:40Z</time>
      </trkpt>
      <trkpt lat="43.66725" lon="5.25605">
        <ele>225.57</ele>
        <time>2021-09-25T06:39:41Z</time>
      </trkpt>
      <trkpt lat="43.66726" lon="5.25601">
        <ele>225.57</ele>
        <time>2021-09-25T06:39:42Z</time>
      </trkpt>
      <trkpt lat="43.66728" lon="5.25596">
        <ele>225.57</ele>
        <time>2021-09-25T06:39:43Z</time>
      </trkpt>
      <trkpt lat="43.66747" lon="5.2552">
        <ele>228.93</ele>
        <time>2021-09-25T06:40:02Z</time>
      </trkpt>
      <trkpt lat="43.66763" lon="5.25434">
        <ele>230.37</ele>
        <time>2021-09-25T06:40:23Z</time>
      </trkpt>
      <trkpt lat="43.66792" lon="5.25379">
        <ele>228.93</ele>
        <time>2021-09-25T06:40:38Z</time>
      </trkpt>
      <trkpt lat="43.66795" lon="5.25381">
        <ele>228.93</ele>
        <time>2021-09-25T06:40:39Z</time>
      </trkpt>
      <trkpt lat="43.66798" lon="5.25383">
        <ele>229.41</ele>
        <time>2021-09-25T06:40:40Z</time>
      </trkpt>
      <trkpt lat="43.66801" lon="5.25385">
        <ele>230.37</ele>
        <time>2021-09-25T06:40:41Z</time>
      </trkpt>
      <trkpt lat="43.66803" lon="5.25388">
        <ele>230.85</ele>
        <time>2021-09-25T06:40:42Z</time>
      </trkpt>
      <trkpt lat="43.66806" lon="5.2539">
        <ele>231.33</ele>
        <time>2021-09-25T06:40:43Z</time>
      </trkpt>
      <trkpt lat="43.66808" lon="5.25392">
        <ele>232.3</ele>
        <time>2021-09-25T06:40:44Z</time>
      </trkpt>
      <trkpt lat="43.66811" lon="5.25395">
        <ele>232.78</ele>
        <time>2021-09-25T06:40:45Z</time>
      </trkpt>
      <trkpt lat="43.66813" lon="5.25398">
        <ele>232.78</ele>
        <time>2021-09-25T06:40:46Z</time>
      </trkpt>
      <trkpt lat="43.66816" lon="5.254">
        <ele>233.26</ele>
        <time>2021-09-25T06:40:47Z</time>
      </trkpt>
      <trkpt lat="43.66819" lon="5.25402">
        <ele>233.26</ele>
        <time>2021-09-25T06:40:48Z</time>
      </trkpt>
      <trkpt lat="43.6687" lon="5.25419">
        <ele>237.58</ele>
        <time>2021-09-25T06:41:06Z</time>
      </trkpt>
      <trkpt lat="43.66897" lon="5.25438">
        <ele>237.58</ele>
        <time>2021-09-25T06:41:17Z</time>
      </trkpt>
      <trkpt lat="43.66898" lon="5.25441">
        <ele>238.06</ele>
        <time>2021-09-25T06:41:18Z</time>
      </trkpt>
      <trkpt lat="43.669" lon="5.25443">
        <ele>238.06</ele>
        <time>2021-09-25T06:41:19Z</time>
      </trkpt>
      <trkpt lat="43.66901" lon="5.25446">
        <ele>238.06</ele>
        <time>2021-09-25T06:41:20Z</time>
      </trkpt>
      <trkpt lat="43.66903" lon="5.25449">
        <ele>238.54</ele>
        <time>2021-09-25T06:41:21Z</time>
      </trkpt>
      <trkpt lat="43.66904" lon="5.25452">
        <ele>238.54</ele>
        <time>2021-09-25T06:41:22Z</time>
      </trkpt>
      <trkpt lat="43.66947" lon="5.25454">
        <ele>239.99</ele>
        <time>2021-09-25T06:41:40Z</time>
      </trkpt>
      <trkpt lat="43.6699" lon="5.25368">
        <ele>240.47</ele>
        <time>2021-09-25T06:42:03Z</time>
      </trkpt>
      <trkpt lat="43.67013" lon="5.25312">
        <ele>239.51</ele>
        <time>2021-09-25T06:42:18Z</time>
      </trkpt>
      <trkpt lat="43.67015" lon="5.25311">
        <ele>239.51</ele>
        <time>2021-09-25T06:42:19Z</time>
      </trkpt>
      <trkpt lat="43.67017" lon="5.2531">
        <ele>239.51</ele>
        <time>2021-09-25T06:42:20Z</time>
      </trkpt>
      <trkpt lat="43.6702" lon="5.2531">
        <ele>239.51</ele>
        <time>2021-09-25T06:42:21Z</time>
      </trkpt>
      <trkpt lat="43.67022" lon="5.2531">
        <ele>239.02</ele>
        <time>2021-09-25T06:42:22Z</time>
      </trkpt>
      <trkpt lat="43.67046" lon="5.25313">
        <ele>237.58</ele>
        <time>2021-09-25T06:42:30Z</time>
      </trkpt>
      <trkpt lat="43.67048" lon="5.25311">
        <ele>237.1</ele>
        <time>2021-09-25T06:42:31Z</time>
      </trkpt>
      <trkpt lat="43.67049" lon="5.25307">
        <ele>236.62</ele>
        <time>2021-09-25T06:42:32Z</time>
      </trkpt>
      <trkpt lat="43.6705" lon="5.25303">
        <ele>236.62</ele>
        <time>2021-09-25T06:42:33Z</time>
      </trkpt>
      <trkpt lat="43.67051" lon="5.25298">
        <ele>236.14</ele>
        <time>2021-09-25T06:42:34Z</time>
      </trkpt>
      <trkpt lat="43.67052" lon="5.25293">
        <ele>236.14</ele>
        <time>2021-09-25T06:42:35Z</time>
      </trkpt>
      <trkpt lat="43.67053" lon="5.25287">
        <ele>235.66</ele>
        <time>2021-09-25T06:42:36Z</time>
      </trkpt>
      <trkpt lat="43.67067" lon="5.25156">
        <ele>234.7</ele>
        <time>2021-09-25T06:43:00Z</time>
      </trkpt>
      <trkpt lat="43.67066" lon="5.25134">
        <ele>233.74</ele>
        <time>2021-09-25T06:43:04Z</time>
      </trkpt>
      <trkpt lat="43.67067" lon="5.25128">
        <ele>233.74</ele>
        <time>2021-09-25T06:43:05Z</time>
      </trkpt>
      <trkpt lat="43.67069" lon="5.25124">
        <ele>233.74</ele>
        <time>2021-09-25T06:43:06Z</time>
      </trkpt>
      <trkpt lat="43.67072" lon="5.25121">
        <ele>233.26</ele>
        <time>2021-09-25T06:43:07Z</time>
      </trkpt>
      <trkpt lat="43.67075" lon="5.25121">
        <ele>233.26</ele>
        <time>2021-09-25T06:43:08Z</time>
      </trkpt>
      <trkpt lat="43.67079" lon="5.25121">
        <ele>233.26</ele>
        <time>2021-09-25T06:43:09Z</time>
      </trkpt>
      <trkpt lat="43.67082" lon="5.2512">
        <ele>232.78</ele>
        <time>2021-09-25T06:43:10Z</time>
      </trkpt>
      <trkpt lat="43.67085" lon="5.25117">
        <ele>232.78</ele>
        <time>2021-09-25T06:43:11Z</time>
      </trkpt>
      <trkpt lat="43.67088" lon="5.25113">
        <ele>232.78</ele>
        <time>2021-09-25T06:43:12Z</time>
      </trkpt>
      <trkpt lat="43.6709" lon="5.25109">
        <ele>232.78</ele>
        <time>2021-09-25T06:43:13Z</time>
      </trkpt>
      <trkpt lat="43.67145" lon="5.25055">
        <ele>234.22</ele>
        <time>2021-09-25T06:43:33Z</time>
      </trkpt>
      <trkpt lat="43.67217" lon="5.25008">
        <ele>237.1</ele>
        <time>2021-09-25T06:43:57Z</time>
      </trkpt>
      <trkpt lat="43.67254" lon="5.24922">
        <ele>239.51</ele>
        <time>2021-09-25T06:44:20Z</time>
      </trkpt>
      <trkpt lat="43.67252" lon="5.24852">
        <ele>240.47</ele>
        <time>2021-09-25T06:44:36Z</time>
      </trkpt>
      <trkpt lat="43.67254" lon="5.2485">
        <ele>240.47</ele>
        <time>2021-09-25T06:44:37Z</time>
      </trkpt>
      <trkpt lat="43.67257" lon="5.24848">
        <ele>240.47</ele>
        <time>2021-09-25T06:44:38Z</time>
      </trkpt>
      <trkpt lat="43.67259" lon="5.24847">
        <ele>240.95</ele>
        <time>2021-09-25T06:44:39Z</time>
      </trkpt>
      <trkpt lat="43.67262" lon="5.24845">
        <ele>240.95</ele>
        <time>2021-09-25T06:44:40Z</time>
      </trkpt>
      <trkpt lat="43.67265" lon="5.24844">
        <ele>240.95</ele>
        <time>2021-09-25T06:44:41Z</time>
      </trkpt>
      <trkpt lat="43.67342" lon="5.24802">
        <ele>245.27</ele>
        <time>2021-09-25T06:45:06Z</time>
      </trkpt>
      <trkpt lat="43.67411" lon="5.24744">
        <ele>248.64</ele>
        <time>2021-09-25T06:45:31Z</time>
      </trkpt>
      <trkpt lat="43.67482" lon="5.24727">
        <ele>252</ele>
        <time>2021-09-25T06:45:54Z</time>
      </trkpt>
      <trkpt lat="43.67557" lon="5.24721">
        <ele>252.48</ele>
        <time>2021-09-25T06:46:17Z</time>
      </trkpt>
      <trkpt lat="43.67575" lon="5.24654">
        <ele>253.44</ele>
        <time>2021-09-25T06:46:32Z</time>
      </trkpt>
      <trkpt lat="43.6758" lon="5.24554">
        <ele>257.77</ele>
        <time>2021-09-25T06:46:54Z</time>
      </trkpt>
      <trkpt lat="43.67597" lon="5.2445">
        <ele>257.29</ele>
        <time>2021-09-25T06:47:16Z</time>
      </trkpt>
      <trkpt lat="43.67601" lon="5.2444">
        <ele>257.29</ele>
        <time>2021-09-25T06:47:18Z</time>
      </trkpt>
      <trkpt lat="43.67604" lon="5.24423">
        <ele>256.81</ele>
        <time>2021-09-25T06:47:21Z</time>
      </trkpt>
      <trkpt lat="43.67605" lon="5.24396">
        <ele>255.85</ele>
        <time>2021-09-25T06:47:25Z</time>
      </trkpt>
      <trkpt lat="43.67611" lon="5.24358">
        <ele>253.93</ele>
        <time>2021-09-25T06:47:31Z</time>
      </trkpt>
      <trkpt lat="43.67603" lon="5.24255">
        <ele>257.29</ele>
        <time>2021-09-25T06:47:53Z</time>
      </trkpt>
      <trkpt lat="43.67593" lon="5.2417">
        <ele>259.21</ele>
        <time>2021-09-25T06:48:13Z</time>
      </trkpt>
      <trkpt lat="43.6759" lon="5.24067">
        <ele>255.85</ele>
        <time>2021-09-25T06:48:32Z</time>
      </trkpt>
      <trkpt lat="43.67602" lon="5.24038">
        <ele>254.89</ele>
        <time>2021-09-25T06:48:38Z</time>
      </trkpt>
      <trkpt lat="43.67604" lon="5.24033">
        <ele>254.41</ele>
        <time>2021-09-25T06:48:39Z</time>
      </trkpt>
      <trkpt lat="43.67607" lon="5.24021">
        <ele>253.93</ele>
        <time>2021-09-25T06:48:41Z</time>
      </trkpt>
      <trkpt lat="43.67608" lon="5.24015">
        <ele>253.44</ele>
        <time>2021-09-25T06:48:42Z</time>
      </trkpt>
      <trkpt lat="43.67608" lon="5.24009">
        <ele>253.44</ele>
        <time>2021-09-25T06:48:43Z</time>
      </trkpt>
      <trkpt lat="43.6761" lon="5.23995">
        <ele>252.48</ele>
        <time>2021-09-25T06:48:45Z</time>
      </trkpt>
      <trkpt lat="43.67612" lon="5.23988">
        <ele>252</ele>
        <time>2021-09-25T06:48:46Z</time>
      </trkpt>
      <trkpt lat="43.67614" lon="5.23981">
        <ele>252</ele>
        <time>2021-09-25T06:48:47Z</time>
      </trkpt>
      <trkpt lat="43.67617" lon="5.23975">
        <ele>251.52</ele>
        <time>2021-09-25T06:48:48Z</time>
      </trkpt>
      <trkpt lat="43.6762" lon="5.23969">
        <ele>251.52</ele>
        <time>2021-09-25T06:48:49Z</time>
      </trkpt>
      <trkpt lat="43.6764" lon="5.23895">
        <ele>251.04</ele>
        <time>2021-09-25T06:49:01Z</time>
      </trkpt>
      <trkpt lat="43.67639" lon="5.23788">
        <ele>252</ele>
        <time>2021-09-25T06:49:21Z</time>
      </trkpt>
      <trkpt lat="43.67637" lon="5.23785">
        <ele>252</ele>
        <time>2021-09-25T06:49:22Z</time>
      </trkpt>
      <trkpt lat="43.67635" lon="5.23784">
        <ele>252</ele>
        <time>2021-09-25T06:49:23Z</time>
      </trkpt>
      <trkpt lat="43.67634" lon="5.23783">
        <ele>251.52</ele>
        <time>2021-09-25T06:49:41Z</time>
      </trkpt>
      <trkpt lat="43.67633" lon="5.23782">
        <ele>252</ele>
        <time>2021-09-25T06:50:13Z</time>
      </trkpt>
      <trkpt lat="43.67631" lon="5.23781">
        <ele>251.52</ele>
        <time>2021-09-25T06:50:14Z</time>
      </trkpt>
      <trkpt lat="43.6763" lon="5.2378">
        <ele>251.52</ele>
        <time>2021-09-25T06:50:15Z</time>
      </trkpt>
      <trkpt lat="43.67628" lon="5.23777">
        <ele>251.52</ele>
        <time>2021-09-25T06:50:16Z</time>
      </trkpt>
      <trkpt lat="43.67628" lon="5.23774">
        <ele>251.04</ele>
        <time>2021-09-25T06:50:17Z</time>
      </trkpt>
      <trkpt lat="43.67629" lon="5.23767">
        <ele>250.56</ele>
        <time>2021-09-25T06:50:19Z</time>
      </trkpt>
      <trkpt lat="43.6765" lon="5.23701">
        <ele>246.72</ele>
        <time>2021-09-25T06:50:29Z</time>
      </trkpt>
      <trkpt lat="43.67662" lon="5.23587">
        <ele>245.27</ele>
        <time>2021-09-25T06:50:44Z</time>
      </trkpt>
      <trkpt lat="43.67665" lon="5.23569">
        <ele>245.75</ele>
        <time>2021-09-25T06:50:47Z</time>
      </trkpt>
      <trkpt lat="43.67666" lon="5.23563">
        <ele>245.75</ele>
        <time>2021-09-25T06:50:48Z</time>
      </trkpt>
      <trkpt lat="43.67667" lon="5.23558">
        <ele>245.75</ele>
        <time>2021-09-25T06:50:49Z</time>
      </trkpt>
      <trkpt lat="43.67669" lon="5.23553">
        <ele>245.75</ele>
        <time>2021-09-25T06:50:50Z</time>
      </trkpt>
      <trkpt lat="43.6767" lon="5.23549">
        <ele>245.75</ele>
        <time>2021-09-25T06:50:51Z</time>
      </trkpt>
      <trkpt lat="43.67699" lon="5.23467">
        <ele>249.6</ele>
        <time>2021-09-25T06:51:10Z</time>
      </trkpt>
      <trkpt lat="43.67728" lon="5.23402">
        <ele>253.44</ele>
        <time>2021-09-25T06:51:28Z</time>
      </trkpt>
      <trkpt lat="43.67748" lon="5.23373">
        <ele>257.77</ele>
        <time>2021-09-25T06:51:42Z</time>
      </trkpt>
      <trkpt lat="43.67749" lon="5.23371">
        <ele>258.25</ele>
        <time>2021-09-25T06:51:43Z</time>
      </trkpt>
      <trkpt lat="43.67755" lon="5.23368">
        <ele>259.69</ele>
        <time>2021-09-25T06:51:48Z</time>
      </trkpt>
      <trkpt lat="43.67758" lon="5.23367">
        <ele>259.69</ele>
        <time>2021-09-25T06:51:50Z</time>
      </trkpt>
      <trkpt lat="43.67759" lon="5.23366">
        <ele>260.17</ele>
        <time>2021-09-25T06:51:51Z</time>
      </trkpt>
      <trkpt lat="43.6776" lon="5.23365">
        <ele>260.65</ele>
        <time>2021-09-25T06:51:52Z</time>
      </trkpt>
      <trkpt lat="43.67767" lon="5.23364">
        <ele>262.58</ele>
        <time>2021-09-25T06:52:09Z</time>
      </trkpt>
      <trkpt lat="43.67771" lon="5.23365">
        <ele>263.06</ele>
        <time>2021-09-25T06:52:11Z</time>
      </trkpt>
      <trkpt lat="43.67773" lon="5.23363">
        <ele>263.54</ele>
        <time>2021-09-25T06:52:12Z</time>
      </trkpt>
      <trkpt lat="43.67775" lon="5.23362">
        <ele>263.54</ele>
        <time>2021-09-25T06:52:13Z</time>
      </trkpt>
      <trkpt lat="43.67777" lon="5.23361">
        <ele>263.54</ele>
        <time>2021-09-25T06:52:14Z</time>
      </trkpt>
      <trkpt lat="43.67779" lon="5.23361">
        <ele>263.54</ele>
        <time>2021-09-25T06:52:15Z</time>
      </trkpt>
      <trkpt lat="43.67781" lon="5.2336">
        <ele>263.54</ele>
        <time>2021-09-25T06:52:16Z</time>
      </trkpt>
      <trkpt lat="43.67782" lon="5.23359">
        <ele>263.54</ele>
        <time>2021-09-25T06:52:17Z</time>
      </trkpt>
      <trkpt lat="43.67785" lon="5.23358">
        <ele>263.54</ele>
        <time>2021-09-25T06:52:18Z</time>
      </trkpt>
      <trkpt lat="43.6783" lon="5.23352">
        <ele>267.38</ele>
        <time>2021-09-25T06:52:36Z</time>
      </trkpt>
      <trkpt lat="43.67832" lon="5.23353">
        <ele>267.38</ele>
        <time>2021-09-25T06:52:37Z</time>
      </trkpt>
      <trkpt lat="43.67842" lon="5.23371">
        <ele>273.15</ele>
        <time>2021-09-25T06:52:53Z</time>
      </trkpt>
      <trkpt lat="43.67844" lon="5.23382">
        <ele>275.07</ele>
        <time>2021-09-25T06:52:57Z</time>
      </trkpt>
      <trkpt lat="43.67845" lon="5.23389">
        <ele>277.96</ele>
        <time>2021-09-25T06:53:01Z</time>
      </trkpt>
      <trkpt lat="43.67853" lon="5.2341">
        <ele>283.73</ele>
        <time>2021-09-25T06:53:11Z</time>
      </trkpt>
      <trkpt lat="43.67862" lon="5.23394">
        <ele>285.17</ele>
        <time>2021-09-25T06:53:25Z</time>
      </trkpt>
      <trkpt lat="43.67862" lon="5.23389">
        <ele>285.17</ele>
        <time>2021-09-25T06:53:27Z</time>
      </trkpt>
      <trkpt lat="43.67871" lon="5.23338">
        <ele>287.57</ele>
        <time>2021-09-25T06:53:48Z</time>
      </trkpt>
      <trkpt lat="43.67892" lon="5.23312">
        <ele>286.61</ele>
        <time>2021-09-25T06:54:03Z</time>
      </trkpt>
      <trkpt lat="43.67914" lon="5.23295">
        <ele>289.01</ele>
        <time>2021-09-25T06:54:17Z</time>
      </trkpt>
      <trkpt lat="43.67937" lon="5.23277">
        <ele>291.42</ele>
        <time>2021-09-25T06:54:35Z</time>
      </trkpt>
      <trkpt lat="43.67941" lon="5.23275">
        <ele>291.9</ele>
        <time>2021-09-25T06:54:38Z</time>
      </trkpt>
      <trkpt lat="43.67959" lon="5.23263">
        <ele>294.3</ele>
        <time>2021-09-25T06:54:54Z</time>
      </trkpt>
      <trkpt lat="43.67966" lon="5.23254">
        <ele>298.15</ele>
        <time>2021-09-25T06:55:13Z</time>
      </trkpt>
      <trkpt lat="43.67971" lon="5.23251">
        <ele>299.59</ele>
        <time>2021-09-25T06:55:22Z</time>
      </trkpt>
      <trkpt lat="43.67984" lon="5.23241">
        <ele>299.59</ele>
        <time>2021-09-25T06:55:30Z</time>
      </trkpt>
      <trkpt lat="43.68021" lon="5.23208">
        <ele>299.59</ele>
        <time>2021-09-25T06:55:46Z</time>
      </trkpt>
      <trkpt lat="43.68023" lon="5.23208">
        <ele>299.59</ele>
        <time>2021-09-25T06:55:47Z</time>
      </trkpt>
      <trkpt lat="43.68026" lon="5.23211">
        <ele>297.18</ele>
        <time>2021-09-25T06:56:00Z</time>
      </trkpt>
      <trkpt lat="43.68027" lon="5.23212">
        <ele>298.15</ele>
        <time>2021-09-25T06:56:34Z</time>
      </trkpt>
      <trkpt lat="43.68027" lon="5.2321">
        <ele>301.03</ele>
        <time>2021-09-25T06:56:41Z</time>
      </trkpt>
      <trkpt lat="43.6803" lon="5.23205">
        <ele>300.07</ele>
        <time>2021-09-25T06:57:00Z</time>
      </trkpt>
      <trkpt lat="43.6803" lon="5.23205">
        <ele>301.03</ele>
        <time>2021-09-25T06:57:32Z</time>
      </trkpt>
      <trkpt lat="43.6803" lon="5.23203">
        <ele>301.51</ele>
        <time>2021-09-25T06:58:12Z</time>
      </trkpt>
      <trkpt lat="43.6803" lon="5.23203">
        <ele>301.03</ele>
        <time>2021-09-25T06:58:41Z</time>
      </trkpt>
      <trkpt lat="43.68031" lon="5.23206">
        <ele>301.51</ele>
        <time>2021-09-25T06:59:18Z</time>
      </trkpt>
      <trkpt lat="43.6803" lon="5.23205">
        <ele>301.03</ele>
        <time>2021-09-25T06:59:49Z</time>
      </trkpt>
      <trkpt lat="43.68025" lon="5.23201">
        <ele>304.88</ele>
        <time>2021-09-25T07:00:21Z</time>
      </trkpt>
      <trkpt lat="43.68029" lon="5.23202">
        <ele>305.84</ele>
        <time>2021-09-25T07:00:50Z</time>
      </trkpt>
      <trkpt lat="43.68028" lon="5.23203">
        <ele>304.88</ele>
        <time>2021-09-25T07:01:22Z</time>
      </trkpt>
      <trkpt lat="43.68031" lon="5.23203">
        <ele>303.43</ele>
        <time>2021-09-25T07:01:47Z</time>
      </trkpt>
      <trkpt lat="43.68031" lon="5.23202">
        <ele>302.95</ele>
        <time>2021-09-25T07:02:02Z</time>
      </trkpt>
      <trkpt lat="43.68033" lon="5.23197">
        <ele>302.95</ele>
        <time>2021-09-25T07:02:06Z</time>
      </trkpt>
      <trkpt lat="43.68069" lon="5.23154">
        <ele>299.59</ele>
        <time>2021-09-25T07:02:23Z</time>
      </trkpt>
      <trkpt lat="43.68074" lon="5.23152">
        <ele>299.11</ele>
        <time>2021-09-25T07:02:24Z</time>
      </trkpt>
      <trkpt lat="43.68078" lon="5.2315">
        <ele>298.63</ele>
        <time>2021-09-25T07:02:25Z</time>
      </trkpt>
      <trkpt lat="43.68083" lon="5.23147">
        <ele>298.15</ele>
        <time>2021-09-25T07:02:26Z</time>
      </trkpt>
      <trkpt lat="43.68088" lon="5.23143">
        <ele>297.67</ele>
        <time>2021-09-25T07:02:27Z</time>
      </trkpt>
      <trkpt lat="43.68092" lon="5.23139">
        <ele>296.7</ele>
        <time>2021-09-25T07:02:28Z</time>
      </trkpt>
      <trkpt lat="43.68114" lon="5.23116">
        <ele>293.82</ele>
        <time>2021-09-25T07:02:34Z</time>
      </trkpt>
      <trkpt lat="43.68117" lon="5.23113">
        <ele>293.34</ele>
        <time>2021-09-25T07:02:35Z</time>
      </trkpt>
      <trkpt lat="43.68121" lon="5.23111">
        <ele>293.34</ele>
        <time>2021-09-25T07:02:36Z</time>
      </trkpt>
      <trkpt lat="43.68125" lon="5.2311">
        <ele>292.86</ele>
        <time>2021-09-25T07:02:37Z</time>
      </trkpt>
      <trkpt lat="43.68129" lon="5.23108">
        <ele>292.86</ele>
        <time>2021-09-25T07:02:38Z</time>
      </trkpt>
      <trkpt lat="43.68133" lon="5.23106">
        <ele>292.86</ele>
        <time>2021-09-25T07:02:39Z</time>
      </trkpt>
      <trkpt lat="43.68136" lon="5.23104">
        <ele>292.38</ele>
        <time>2021-09-25T07:02:40Z</time>
      </trkpt>
      <trkpt lat="43.68139" lon="5.23101">
        <ele>291.9</ele>
        <time>2021-09-25T07:02:41Z</time>
      </trkpt>
      <trkpt lat="43.68141" lon="5.23098">
        <ele>291.42</ele>
        <time>2021-09-25T07:02:42Z</time>
      </trkpt>
      <trkpt lat="43.68143" lon="5.23095">
        <ele>291.42</ele>
        <time>2021-09-25T07:02:43Z</time>
      </trkpt>
      <trkpt lat="43.68145" lon="5.23093">
        <ele>290.94</ele>
        <time>2021-09-25T07:02:44Z</time>
      </trkpt>
      <trkpt lat="43.68148" lon="5.2309">
        <ele>290.94</ele>
        <time>2021-09-25T07:02:45Z</time>
      </trkpt>
      <trkpt lat="43.68186" lon="5.23052">
        <ele>285.65</ele>
        <time>2021-09-25T07:02:59Z</time>
      </trkpt>
      <trkpt lat="43.68226" lon="5.23022">
        <ele>285.17</ele>
        <time>2021-09-25T07:03:15Z</time>
      </trkpt>
      <trkpt lat="43.6826" lon="5.23004">
        <ele>281.8</ele>
        <time>2021-09-25T07:03:27Z</time>
      </trkpt>
      <trkpt lat="43.68261" lon="5.23001">
        <ele>281.8</ele>
        <time>2021-09-25T07:03:28Z</time>
      </trkpt>
      <trkpt lat="43.68262" lon="5.22997">
        <ele>281.8</ele>
        <time>2021-09-25T07:03:29Z</time>
      </trkpt>
      <trkpt lat="43.68264" lon="5.22993">
        <ele>281.8</ele>
        <time>2021-09-25T07:03:30Z</time>
      </trkpt>
      <trkpt lat="43.68266" lon="5.22989">
        <ele>281.8</ele>
        <time>2021-09-25T07:03:31Z</time>
      </trkpt>
      <trkpt lat="43.68269" lon="5.22987">
        <ele>281.32</ele>
        <time>2021-09-25T07:03:32Z</time>
      </trkpt>
      <trkpt lat="43.68272" lon="5.22985">
        <ele>281.32</ele>
        <time>2021-09-25T07:03:33Z</time>
      </trkpt>
      <trkpt lat="43.68276" lon="5.22984">
        <ele>280.84</ele>
        <time>2021-09-25T07:03:34Z</time>
      </trkpt>
      <trkpt lat="43.68279" lon="5.22981">
        <ele>280.84</ele>
        <time>2021-09-25T07:03:35Z</time>
      </trkpt>
      <trkpt lat="43.68299" lon="5.22959">
        <ele>279.4</ele>
        <time>2021-09-25T07:03:43Z</time>
      </trkpt>
      <trkpt lat="43.68325" lon="5.2293">
        <ele>275.56</ele>
        <time>2021-09-25T07:03:52Z</time>
      </trkpt>
      <trkpt lat="43.68324" lon="5.22926">
        <ele>275.56</ele>
        <time>2021-09-25T07:03:53Z</time>
      </trkpt>
      <trkpt lat="43.6832" lon="5.22921">
        <ele>277</ele>
        <time>2021-09-25T07:04:05Z</time>
      </trkpt>
      <trkpt lat="43.68321" lon="5.22919">
        <ele>276.52</ele>
        <time>2021-09-25T07:04:06Z</time>
      </trkpt>
      <trkpt lat="43.68322" lon="5.22917">
        <ele>276.52</ele>
        <time>2021-09-25T07:04:07Z</time>
      </trkpt>
      <trkpt lat="43.68345" lon="5.22878">
        <ele>275.07</ele>
        <time>2021-09-25T07:04:17Z</time>
      </trkpt>
      <trkpt lat="43.68347" lon="5.22872">
        <ele>274.59</ele>
        <time>2021-09-25T07:04:18Z</time>
      </trkpt>
      <trkpt lat="43.68349" lon="5.22865">
        <ele>274.11</ele>
        <time>2021-09-25T07:04:19Z</time>
      </trkpt>
      <trkpt lat="43.68351" lon="5.2286">
        <ele>273.63</ele>
        <time>2021-09-25T07:04:20Z</time>
      </trkpt>
      <trkpt lat="43.68354" lon="5.22854">
        <ele>273.63</ele>
        <time>2021-09-25T07:04:21Z</time>
      </trkpt>
      <trkpt lat="43.68359" lon="5.22845">
        <ele>273.15</ele>
        <time>2021-09-25T07:04:23Z</time>
      </trkpt>
      <trkpt lat="43.68363" lon="5.2284">
        <ele>272.67</ele>
        <time>2021-09-25T07:04:24Z</time>
      </trkpt>
      <trkpt lat="43.68367" lon="5.22836">
        <ele>272.19</ele>
        <time>2021-09-25T07:04:25Z</time>
      </trkpt>
      <trkpt lat="43.68437" lon="5.22761">
        <ele>266.9</ele>
        <time>2021-09-25T07:04:39Z</time>
      </trkpt>
      <trkpt lat="43.68441" lon="5.22754">
        <ele>266.9</ele>
        <time>2021-09-25T07:04:40Z</time>
      </trkpt>
      <trkpt lat="43.68454" lon="5.22735">
        <ele>266.42</ele>
        <time>2021-09-25T07:04:43Z</time>
      </trkpt>
      <trkpt lat="43.68517" lon="5.22667">
        <ele>262.1</ele>
        <time>2021-09-25T07:04:54Z</time>
      </trkpt>
      <trkpt lat="43.68538" lon="5.22639">
        <ele>261.14</ele>
        <time>2021-09-25T07:04:58Z</time>
      </trkpt>
      <trkpt lat="43.68542" lon="5.22632">
        <ele>261.14</ele>
        <time>2021-09-25T07:04:59Z</time>
      </trkpt>
      <trkpt lat="43.68547" lon="5.2262">
        <ele>260.65</ele>
        <time>2021-09-25T07:05:01Z</time>
      </trkpt>
      <trkpt lat="43.6855" lon="5.22616">
        <ele>260.17</ele>
        <time>2021-09-25T07:05:02Z</time>
      </trkpt>
      <trkpt lat="43.68554" lon="5.22613">
        <ele>259.69</ele>
        <time>2021-09-25T07:05:03Z</time>
      </trkpt>
      <trkpt lat="43.68556" lon="5.22609">
        <ele>259.69</ele>
        <time>2021-09-25T07:05:04Z</time>
      </trkpt>
      <trkpt lat="43.68557" lon="5.22606">
        <ele>259.69</ele>
        <time>2021-09-25T07:05:05Z</time>
      </trkpt>
      <trkpt lat="43.68556" lon="5.22602">
        <ele>259.69</ele>
        <time>2021-09-25T07:05:06Z</time>
      </trkpt>
      <trkpt lat="43.68554" lon="5.22599">
        <ele>259.69</ele>
        <time>2021-09-25T07:05:07Z</time>
      </trkpt>
      <trkpt lat="43.68552" lon="5.22596">
        <ele>260.17</ele>
        <time>2021-09-25T07:05:08Z</time>
      </trkpt>
      <trkpt lat="43.6855" lon="5.22593">
        <ele>260.65</ele>
        <time>2021-09-25T07:05:09Z</time>
      </trkpt>
      <trkpt lat="43.68549" lon="5.2259">
        <ele>260.65</ele>
        <time>2021-09-25T07:05:10Z</time>
      </trkpt>
      <trkpt lat="43.68547" lon="5.22586">
        <ele>261.14</ele>
        <time>2021-09-25T07:05:11Z</time>
      </trkpt>
      <trkpt lat="43.68546" lon="5.22583">
        <ele>261.14</ele>
        <time>2021-09-25T07:05:12Z</time>
      </trkpt>
      <trkpt lat="43.68545" lon="5.22579">
        <ele>261.14</ele>
        <time>2021-09-25T07:05:13Z</time>
      </trkpt>
      <trkpt lat="43.68545" lon="5.22575">
        <ele>261.14</ele>
        <time>2021-09-25T07:05:14Z</time>
      </trkpt>
      <trkpt lat="43.68545" lon="5.22571">
        <ele>261.14</ele>
        <time>2021-09-25T07:05:15Z</time>
      </trkpt>
      <trkpt lat="43.68546" lon="5.22567">
        <ele>261.14</ele>
        <time>2021-09-25T07:05:16Z</time>
      </trkpt>
      <trkpt lat="43.68546" lon="5.22562">
        <ele>261.14</ele>
        <time>2021-09-25T07:05:17Z</time>
      </trkpt>
      <trkpt lat="43.68548" lon="5.22558">
        <ele>261.14</ele>
        <time>2021-09-25T07:05:18Z</time>
      </trkpt>
      <trkpt lat="43.68549" lon="5.22553">
        <ele>261.14</ele>
        <time>2021-09-25T07:05:19Z</time>
      </trkpt>
      <trkpt lat="43.68569" lon="5.22503">
        <ele>260.17</ele>
        <time>2021-09-25T07:05:34Z</time>
      </trkpt>
      <trkpt lat="43.68571" lon="5.22501">
        <ele>260.65</ele>
        <time>2021-09-25T07:05:36Z</time>
      </trkpt>
      <trkpt lat="43.68572" lon="5.22501">
        <ele>260.17</ele>
        <time>2021-09-25T07:05:37Z</time>
      </trkpt>
      <trkpt lat="43.68574" lon="5.22501">
        <ele>260.65</ele>
        <time>2021-09-25T07:05:38Z</time>
      </trkpt>
      <trkpt lat="43.68576" lon="5.22501">
        <ele>260.17</ele>
        <time>2021-09-25T07:05:39Z</time>
      </trkpt>
      <trkpt lat="43.68577" lon="5.225">
        <ele>260.17</ele>
        <time>2021-09-25T07:05:40Z</time>
      </trkpt>
      <trkpt lat="43.68578" lon="5.225">
        <ele>260.17</ele>
        <time>2021-09-25T07:05:41Z</time>
      </trkpt>
      <trkpt lat="43.68582" lon="5.225">
        <ele>258.25</ele>
        <time>2021-09-25T07:05:47Z</time>
      </trkpt>
      <trkpt lat="43.68583" lon="5.22499">
        <ele>258.25</ele>
        <time>2021-09-25T07:05:48Z</time>
      </trkpt>
      <trkpt lat="43.68586" lon="5.22494">
        <ele>257.77</ele>
        <time>2021-09-25T07:05:52Z</time>
      </trkpt>
      <trkpt lat="43.68589" lon="5.2249">
        <ele>257.77</ele>
        <time>2021-09-25T07:05:54Z</time>
      </trkpt>
      <trkpt lat="43.68591" lon="5.22488">
        <ele>257.29</ele>
        <time>2021-09-25T07:05:55Z</time>
      </trkpt>
      <trkpt lat="43.68614" lon="5.2247">
        <ele>255.85</ele>
        <time>2021-09-25T07:06:01Z</time>
      </trkpt>
      <trkpt lat="43.68618" lon="5.22466">
        <ele>255.37</ele>
        <time>2021-09-25T07:06:02Z</time>
      </trkpt>
      <trkpt lat="43.68624" lon="5.22463">
        <ele>255.37</ele>
        <time>2021-09-25T07:06:03Z</time>
      </trkpt>
      <trkpt lat="43.68634" lon="5.22458">
        <ele>254.89</ele>
        <time>2021-09-25T07:06:05Z</time>
      </trkpt>
      <trkpt lat="43.68665" lon="5.22443">
        <ele>252.48</ele>
        <time>2021-09-25T07:06:10Z</time>
      </trkpt>
      <trkpt lat="43.68669" lon="5.22439">
        <ele>252.48</ele>
        <time>2021-09-25T07:06:11Z</time>
      </trkpt>
      <trkpt lat="43.68672" lon="5.22434">
        <ele>252.48</ele>
        <time>2021-09-25T07:06:12Z</time>
      </trkpt>
      <trkpt lat="43.68674" lon="5.22429">
        <ele>252.48</ele>
        <time>2021-09-25T07:06:13Z</time>
      </trkpt>
      <trkpt lat="43.68678" lon="5.22426">
        <ele>252</ele>
        <time>2021-09-25T07:06:14Z</time>
      </trkpt>
      <trkpt lat="43.68681" lon="5.22423">
        <ele>252</ele>
        <time>2021-09-25T07:06:15Z</time>
      </trkpt>
      <trkpt lat="43.68685" lon="5.2242">
        <ele>252</ele>
        <time>2021-09-25T07:06:16Z</time>
      </trkpt>
      <trkpt lat="43.68689" lon="5.22417">
        <ele>252</ele>
        <time>2021-09-25T07:06:17Z</time>
      </trkpt>
      <trkpt lat="43.6875" lon="5.2237">
        <ele>247.68</ele>
        <time>2021-09-25T07:06:35Z</time>
      </trkpt>
      <trkpt lat="43.68774" lon="5.22336">
        <ele>247.2</ele>
        <time>2021-09-25T07:06:43Z</time>
      </trkpt>
      <trkpt lat="43.68776" lon="5.22332">
        <ele>247.2</ele>
        <time>2021-09-25T07:06:44Z</time>
      </trkpt>
      <trkpt lat="43.68793" lon="5.22298">
        <ele>249.12</ele>
        <time>2021-09-25T07:06:51Z</time>
      </trkpt>
      <trkpt lat="43.68795" lon="5.22292">
        <ele>249.12</ele>
        <time>2021-09-25T07:06:52Z</time>
      </trkpt>
      <trkpt lat="43.68796" lon="5.22286">
        <ele>249.12</ele>
        <time>2021-09-25T07:06:53Z</time>
      </trkpt>
      <trkpt lat="43.68797" lon="5.22281">
        <ele>249.6</ele>
        <time>2021-09-25T07:06:54Z</time>
      </trkpt>
      <trkpt lat="43.68798" lon="5.22275">
        <ele>249.6</ele>
        <time>2021-09-25T07:06:55Z</time>
      </trkpt>
      <trkpt lat="43.68799" lon="5.22269">
        <ele>250.08</ele>
        <time>2021-09-25T07:06:56Z</time>
      </trkpt>
      <trkpt lat="43.68804" lon="5.22244">
        <ele>250.08</ele>
        <time>2021-09-25T07:07:00Z</time>
      </trkpt>
      <trkpt lat="43.68807" lon="5.22239">
        <ele>250.08</ele>
        <time>2021-09-25T07:07:01Z</time>
      </trkpt>
      <trkpt lat="43.68809" lon="5.22233">
        <ele>250.08</ele>
        <time>2021-09-25T07:07:02Z</time>
      </trkpt>
      <trkpt lat="43.68813" lon="5.22229">
        <ele>249.6</ele>
        <time>2021-09-25T07:07:03Z</time>
      </trkpt>
      <trkpt lat="43.68816" lon="5.22224">
        <ele>249.6</ele>
        <time>2021-09-25T07:07:04Z</time>
      </trkpt>
      <trkpt lat="43.68827" lon="5.22209">
        <ele>248.64</ele>
        <time>2021-09-25T07:07:07Z</time>
      </trkpt>
      <trkpt lat="43.68832" lon="5.22204">
        <ele>248.16</ele>
        <time>2021-09-25T07:07:08Z</time>
      </trkpt>
      <trkpt lat="43.68856" lon="5.22178">
        <ele>245.27</ele>
        <time>2021-09-25T07:07:13Z</time>
      </trkpt>
      <trkpt lat="43.6886" lon="5.22172">
        <ele>244.79</ele>
        <time>2021-09-25T07:07:14Z</time>
      </trkpt>
      <trkpt lat="43.68866" lon="5.22159">
        <ele>243.83</ele>
        <time>2021-09-25T07:07:16Z</time>
      </trkpt>
      <trkpt lat="43.68867" lon="5.22151">
        <ele>243.35</ele>
        <time>2021-09-25T07:07:17Z</time>
      </trkpt>
      <trkpt lat="43.68867" lon="5.22144">
        <ele>242.87</ele>
        <time>2021-09-25T07:07:18Z</time>
      </trkpt>
      <trkpt lat="43.68866" lon="5.22137">
        <ele>242.39</ele>
        <time>2021-09-25T07:07:19Z</time>
      </trkpt>
      <trkpt lat="43.68865" lon="5.22131">
        <ele>242.39</ele>
        <time>2021-09-25T07:07:20Z</time>
      </trkpt>
      <trkpt lat="43.68864" lon="5.22124">
        <ele>241.91</ele>
        <time>2021-09-25T07:07:21Z</time>
      </trkpt>
      <trkpt lat="43.68863" lon="5.22117">
        <ele>241.91</ele>
        <time>2021-09-25T07:07:22Z</time>
      </trkpt>
      <trkpt lat="43.68863" lon="5.2211">
        <ele>241.43</ele>
        <time>2021-09-25T07:07:23Z</time>
      </trkpt>
      <trkpt lat="43.68863" lon="5.22104">
        <ele>241.43</ele>
        <time>2021-09-25T07:07:24Z</time>
      </trkpt>
      <trkpt lat="43.68864" lon="5.22098">
        <ele>241.43</ele>
        <time>2021-09-25T07:07:25Z</time>
      </trkpt>
      <trkpt lat="43.68868" lon="5.22081">
        <ele>241.91</ele>
        <time>2021-09-25T07:07:28Z</time>
      </trkpt>
      <trkpt lat="43.68868" lon="5.22075">
        <ele>241.91</ele>
        <time>2021-09-25T07:07:29Z</time>
      </trkpt>
      <trkpt lat="43.68868" lon="5.22069">
        <ele>242.39</ele>
        <time>2021-09-25T07:07:30Z</time>
      </trkpt>
      <trkpt lat="43.68867" lon="5.22063">
        <ele>242.39</ele>
        <time>2021-09-25T07:07:31Z</time>
      </trkpt>
      <trkpt lat="43.68868" lon="5.22057">
        <ele>242.87</ele>
        <time>2021-09-25T07:07:32Z</time>
      </trkpt>
      <trkpt lat="43.68868" lon="5.22051">
        <ele>243.35</ele>
        <time>2021-09-25T07:07:33Z</time>
      </trkpt>
      <trkpt lat="43.68868" lon="5.22045">
        <ele>243.35</ele>
        <time>2021-09-25T07:07:34Z</time>
      </trkpt>
      <trkpt lat="43.68869" lon="5.22039">
        <ele>243.35</ele>
        <time>2021-09-25T07:07:35Z</time>
      </trkpt>
      <trkpt lat="43.68871" lon="5.22035">
        <ele>243.35</ele>
        <time>2021-09-25T07:07:36Z</time>
      </trkpt>
      <trkpt lat="43.68874" lon="5.22029">
        <ele>243.35</ele>
        <time>2021-09-25T07:07:37Z</time>
      </trkpt>
      <trkpt lat="43.68878" lon="5.22024">
        <ele>243.35</ele>
        <time>2021-09-25T07:07:38Z</time>
      </trkpt>
      <trkpt lat="43.6888" lon="5.22017">
        <ele>243.35</ele>
        <time>2021-09-25T07:07:39Z</time>
      </trkpt>
      <trkpt lat="43.68882" lon="5.22009">
        <ele>242.87</ele>
        <time>2021-09-25T07:07:40Z</time>
      </trkpt>
      <trkpt lat="43.68884" lon="5.22001">
        <ele>242.39</ele>
        <time>2021-09-25T07:07:41Z</time>
      </trkpt>
      <trkpt lat="43.68887" lon="5.21994">
        <ele>241.91</ele>
        <time>2021-09-25T07:07:42Z</time>
      </trkpt>
      <trkpt lat="43.68892" lon="5.21988">
        <ele>241.43</ele>
        <time>2021-09-25T07:07:43Z</time>
      </trkpt>
      <trkpt lat="43.68896" lon="5.21982">
        <ele>240.95</ele>
        <time>2021-09-25T07:07:44Z</time>
      </trkpt>
      <trkpt lat="43.689" lon="5.21974">
        <ele>240.47</ele>
        <time>2021-09-25T07:07:45Z</time>
      </trkpt>
      <trkpt lat="43.68903" lon="5.21966">
        <ele>239.99</ele>
        <time>2021-09-25T07:07:46Z</time>
      </trkpt>
      <trkpt lat="43.68906" lon="5.21958">
        <ele>239.02</ele>
        <time>2021-09-25T07:07:47Z</time>
      </trkpt>
      <trkpt lat="43.68908" lon="5.2195">
        <ele>238.54</ele>
        <time>2021-09-25T07:07:48Z</time>
      </trkpt>
      <trkpt lat="43.68912" lon="5.21943">
        <ele>237.58</ele>
        <time>2021-09-25T07:07:49Z</time>
      </trkpt>
      <trkpt lat="43.68916" lon="5.21935">
        <ele>236.62</ele>
        <time>2021-09-25T07:07:50Z</time>
      </trkpt>
      <trkpt lat="43.6892" lon="5.21928">
        <ele>235.66</ele>
        <time>2021-09-25T07:07:51Z</time>
      </trkpt>
      <trkpt lat="43.68924" lon="5.21919">
        <ele>235.18</ele>
        <time>2021-09-25T07:07:52Z</time>
      </trkpt>
      <trkpt lat="43.68933" lon="5.21894">
        <ele>232.3</ele>
        <time>2021-09-25T07:07:55Z</time>
      </trkpt>
      <trkpt lat="43.6895" lon="5.21839">
        <ele>225.57</ele>
        <time>2021-09-25T07:08:03Z</time>
      </trkpt>
      <trkpt lat="43.68954" lon="5.21834">
        <ele>224.61</ele>
        <time>2021-09-25T07:08:04Z</time>
      </trkpt>
      <trkpt lat="43.68958" lon="5.21831">
        <ele>223.64</ele>
        <time>2021-09-25T07:08:05Z</time>
      </trkpt>
      <trkpt lat="43.68977" lon="5.21821">
        <ele>221.72</ele>
        <time>2021-09-25T07:08:11Z</time>
      </trkpt>
      <trkpt lat="43.68977" lon="5.21821">
        <ele>221.72</ele>
        <time>2021-09-25T07:08:27Z</time>
      </trkpt>
      <trkpt lat="43.68978" lon="5.21819">
        <ele>221.72</ele>
        <time>2021-09-25T07:08:34Z</time>
      </trkpt>
      <trkpt lat="43.68979" lon="5.21816">
        <ele>221.24</ele>
        <time>2021-09-25T07:08:35Z</time>
      </trkpt>
      <trkpt lat="43.68979" lon="5.21813">
        <ele>221.24</ele>
        <time>2021-09-25T07:08:36Z</time>
      </trkpt>
      <trkpt lat="43.68979" lon="5.21809">
        <ele>221.24</ele>
        <time>2021-09-25T07:08:37Z</time>
      </trkpt>
      <trkpt lat="43.68979" lon="5.21806">
        <ele>221.24</ele>
        <time>2021-09-25T07:08:38Z</time>
      </trkpt>
      <trkpt lat="43.6898" lon="5.21802">
        <ele>221.24</ele>
        <time>2021-09-25T07:08:39Z</time>
      </trkpt>
      <trkpt lat="43.6898" lon="5.21796">
        <ele>221.24</ele>
        <time>2021-09-25T07:08:40Z</time>
      </trkpt>
      <trkpt lat="43.6898" lon="5.21791">
        <ele>220.76</ele>
        <time>2021-09-25T07:08:41Z</time>
      </trkpt>
      <trkpt lat="43.68981" lon="5.21779">
        <ele>220.76</ele>
        <time>2021-09-25T07:08:43Z</time>
      </trkpt>
      <trkpt lat="43.68982" lon="5.21772">
        <ele>220.28</ele>
        <time>2021-09-25T07:08:44Z</time>
      </trkpt>
      <trkpt lat="43.68982" lon="5.21767">
        <ele>220.28</ele>
        <time>2021-09-25T07:08:45Z</time>
      </trkpt>
      <trkpt lat="43.68983" lon="5.21761">
        <ele>220.28</ele>
        <time>2021-09-25T07:08:46Z</time>
      </trkpt>
      <trkpt lat="43.68984" lon="5.21755">
        <ele>220.28</ele>
        <time>2021-09-25T07:08:47Z</time>
      </trkpt>
      <trkpt lat="43.68985" lon="5.2175">
        <ele>219.8</ele>
        <time>2021-09-25T07:08:48Z</time>
      </trkpt>
      <trkpt lat="43.68991" lon="5.21714">
        <ele>219.8</ele>
        <time>2021-09-25T07:08:54Z</time>
      </trkpt>
      <trkpt lat="43.6899" lon="5.21709">
        <ele>219.8</ele>
        <time>2021-09-25T07:08:55Z</time>
      </trkpt>
      <trkpt lat="43.68988" lon="5.21703">
        <ele>219.8</ele>
        <time>2021-09-25T07:08:56Z</time>
      </trkpt>
      <trkpt lat="43.6898" lon="5.21683">
        <ele>219.32</ele>
        <time>2021-09-25T07:09:00Z</time>
      </trkpt>
      <trkpt lat="43.68978" lon="5.21677">
        <ele>218.84</ele>
        <time>2021-09-25T07:09:01Z</time>
      </trkpt>
      <trkpt lat="43.68976" lon="5.21672">
        <ele>218.36</ele>
        <time>2021-09-25T07:09:02Z</time>
      </trkpt>
      <trkpt lat="43.68975" lon="5.21666">
        <ele>217.88</ele>
        <time>2021-09-25T07:09:03Z</time>
      </trkpt>
      <trkpt lat="43.68972" lon="5.2166">
        <ele>217.4</ele>
        <time>2021-09-25T07:09:04Z</time>
      </trkpt>
      <trkpt lat="43.68969" lon="5.21656">
        <ele>216.91</ele>
        <time>2021-09-25T07:09:05Z</time>
      </trkpt>
      <trkpt lat="43.68965" lon="5.21651">
        <ele>216.43</ele>
        <time>2021-09-25T07:09:06Z</time>
      </trkpt>
      <trkpt lat="43.68959" lon="5.21642">
        <ele>215.95</ele>
        <time>2021-09-25T07:09:08Z</time>
      </trkpt>
      <trkpt lat="43.68955" lon="5.21636">
        <ele>215.95</ele>
        <time>2021-09-25T07:09:09Z</time>
      </trkpt>
      <trkpt lat="43.68952" lon="5.2163">
        <ele>215.47</ele>
        <time>2021-09-25T07:09:10Z</time>
      </trkpt>
      <trkpt lat="43.68944" lon="5.21611">
        <ele>214.51</ele>
        <time>2021-09-25T07:09:13Z</time>
      </trkpt>
      <trkpt lat="43.6894" lon="5.21597">
        <ele>213.55</ele>
        <time>2021-09-25T07:09:15Z</time>
      </trkpt>
      <trkpt lat="43.68938" lon="5.21584">
        <ele>213.07</ele>
        <time>2021-09-25T07:09:17Z</time>
      </trkpt>
      <trkpt lat="43.68936" lon="5.21565">
        <ele>211.63</ele>
        <time>2021-09-25T07:09:21Z</time>
      </trkpt>
      <trkpt lat="43.68937" lon="5.21562">
        <ele>211.63</ele>
        <time>2021-09-25T07:09:22Z</time>
      </trkpt>
      <trkpt lat="43.68939" lon="5.21559">
        <ele>211.15</ele>
        <time>2021-09-25T07:09:23Z</time>
      </trkpt>
      <trkpt lat="43.68941" lon="5.21555">
        <ele>211.63</ele>
        <time>2021-09-25T07:09:24Z</time>
      </trkpt>
      <trkpt lat="43.68943" lon="5.21551">
        <ele>211.63</ele>
        <time>2021-09-25T07:09:25Z</time>
      </trkpt>
      <trkpt lat="43.68945" lon="5.21545">
        <ele>211.63</ele>
        <time>2021-09-25T07:09:26Z</time>
      </trkpt>
      <trkpt lat="43.6895" lon="5.21534">
        <ele>211.63</ele>
        <time>2021-09-25T07:09:28Z</time>
      </trkpt>
      <trkpt lat="43.68951" lon="5.21528">
        <ele>211.63</ele>
        <time>2021-09-25T07:09:29Z</time>
      </trkpt>
      <trkpt lat="43.6895" lon="5.21521">
        <ele>211.63</ele>
        <time>2021-09-25T07:09:30Z</time>
      </trkpt>
      <trkpt lat="43.68948" lon="5.21515">
        <ele>212.11</ele>
        <time>2021-09-25T07:09:31Z</time>
      </trkpt>
      <trkpt lat="43.68946" lon="5.2151">
        <ele>212.11</ele>
        <time>2021-09-25T07:09:32Z</time>
      </trkpt>
      <trkpt lat="43.68933" lon="5.21486">
        <ele>213.07</ele>
        <time>2021-09-25T07:09:38Z</time>
      </trkpt>
      <trkpt lat="43.68931" lon="5.21485">
        <ele>213.55</ele>
        <time>2021-09-25T07:09:39Z</time>
      </trkpt>
      <trkpt lat="43.68929" lon="5.21484">
        <ele>214.03</ele>
        <time>2021-09-25T07:09:40Z</time>
      </trkpt>
      <trkpt lat="43.68927" lon="5.21476">
        <ele>213.07</ele>
        <time>2021-09-25T07:09:55Z</time>
      </trkpt>
      <trkpt lat="43.68927" lon="5.21475">
        <ele>213.07</ele>
        <time>2021-09-25T07:09:56Z</time>
      </trkpt>
      <trkpt lat="43.68927" lon="5.21473">
        <ele>213.07</ele>
        <time>2021-09-25T07:09:57Z</time>
      </trkpt>
      <trkpt lat="43.68927" lon="5.2147">
        <ele>213.55</ele>
        <time>2021-09-25T07:09:58Z</time>
      </trkpt>
      <trkpt lat="43.68927" lon="5.21467">
        <ele>213.55</ele>
        <time>2021-09-25T07:09:59Z</time>
      </trkpt>
      <trkpt lat="43.6893" lon="5.21453">
        <ele>214.51</ele>
        <time>2021-09-25T07:10:03Z</time>
      </trkpt>
      <trkpt lat="43.68932" lon="5.21451">
        <ele>214.51</ele>
        <time>2021-09-25T07:10:04Z</time>
      </trkpt>
      <trkpt lat="43.68933" lon="5.21451">
        <ele>214.51</ele>
        <time>2021-09-25T07:10:05Z</time>
      </trkpt>
      <trkpt lat="43.68936" lon="5.21452">
        <ele>214.99</ele>
        <time>2021-09-25T07:10:07Z</time>
      </trkpt>
      <trkpt lat="43.68939" lon="5.21451">
        <ele>214.51</ele>
        <time>2021-09-25T07:10:08Z</time>
      </trkpt>
      <trkpt lat="43.68941" lon="5.21449">
        <ele>214.03</ele>
        <time>2021-09-25T07:10:09Z</time>
      </trkpt>
      <trkpt lat="43.68944" lon="5.21447">
        <ele>210.19</ele>
        <time>2021-09-25T07:10:25Z</time>
      </trkpt>
      <trkpt lat="43.68944" lon="5.21438">
        <ele>208.26</ele>
        <time>2021-09-25T07:10:44Z</time>
      </trkpt>
      <trkpt lat="43.68942" lon="5.21437">
        <ele>210.67</ele>
        <time>2021-09-25T07:11:10Z</time>
      </trkpt>
      <trkpt lat="43.68941" lon="5.21433">
        <ele>212.11</ele>
        <time>2021-09-25T07:11:38Z</time>
      </trkpt>
      <trkpt lat="43.68941" lon="5.21434">
        <ele>214.03</ele>
        <time>2021-09-25T07:12:18Z</time>
      </trkpt>
      <trkpt lat="43.6894" lon="5.21436">
        <ele>210.67</ele>
        <time>2021-09-25T07:12:53Z</time>
      </trkpt>
      <trkpt lat="43.68944" lon="5.21432">
        <ele>211.15</ele>
        <time>2021-09-25T07:13:16Z</time>
      </trkpt>
      <trkpt lat="43.68947" lon="5.2143">
        <ele>211.63</ele>
        <time>2021-09-25T07:13:32Z</time>
      </trkpt>
      <trkpt lat="43.6895" lon="5.21428">
        <ele>212.59</ele>
        <time>2021-09-25T07:13:48Z</time>
      </trkpt>
      <trkpt lat="43.68952" lon="5.21428">
        <ele>211.63</ele>
        <time>2021-09-25T07:13:55Z</time>
      </trkpt>
      <trkpt lat="43.68955" lon="5.21429">
        <ele>211.63</ele>
        <time>2021-09-25T07:13:58Z</time>
      </trkpt>
      <trkpt lat="43.68956" lon="5.21429">
        <ele>211.63</ele>
        <time>2021-09-25T07:13:59Z</time>
      </trkpt>
      <trkpt lat="43.68958" lon="5.21427">
        <ele>211.15</ele>
        <time>2021-09-25T07:14:00Z</time>
      </trkpt>
      <trkpt lat="43.68959" lon="5.21424">
        <ele>211.15</ele>
        <time>2021-09-25T07:14:01Z</time>
      </trkpt>
      <trkpt lat="43.68959" lon="5.21421">
        <ele>211.15</ele>
        <time>2021-09-25T07:14:02Z</time>
      </trkpt>
      <trkpt lat="43.68959" lon="5.21418">
        <ele>211.15</ele>
        <time>2021-09-25T07:14:03Z</time>
      </trkpt>
      <trkpt lat="43.68959" lon="5.21416">
        <ele>211.15</ele>
        <time>2021-09-25T07:14:04Z</time>
      </trkpt>
      <trkpt lat="43.6896" lon="5.21413">
        <ele>211.15</ele>
        <time>2021-09-25T07:14:05Z</time>
      </trkpt>
      <trkpt lat="43.68961" lon="5.2141">
        <ele>211.15</ele>
        <time>2021-09-25T07:14:06Z</time>
      </trkpt>
      <trkpt lat="43.68962" lon="5.21407">
        <ele>211.15</ele>
        <time>2021-09-25T07:14:07Z</time>
      </trkpt>
      <trkpt lat="43.68964" lon="5.21404">
        <ele>211.15</ele>
        <time>2021-09-25T07:14:08Z</time>
      </trkpt>
      <trkpt lat="43.68967" lon="5.21402">
        <ele>211.15</ele>
        <time>2021-09-25T07:14:09Z</time>
      </trkpt>
      <trkpt lat="43.6897" lon="5.214">
        <ele>210.67</ele>
        <time>2021-09-25T07:14:10Z</time>
      </trkpt>
      <trkpt lat="43.68974" lon="5.214">
        <ele>210.67</ele>
        <time>2021-09-25T07:14:11Z</time>
      </trkpt>
      <trkpt lat="43.68978" lon="5.21399">
        <ele>210.19</ele>
        <time>2021-09-25T07:14:12Z</time>
      </trkpt>
      <trkpt lat="43.68981" lon="5.21396">
        <ele>209.7</ele>
        <time>2021-09-25T07:14:13Z</time>
      </trkpt>
      <trkpt lat="43.68984" lon="5.21392">
        <ele>209.22</ele>
        <time>2021-09-25T07:14:14Z</time>
      </trkpt>
      <trkpt lat="43.68985" lon="5.21388">
        <ele>208.74</ele>
        <time>2021-09-25T07:14:15Z</time>
      </trkpt>
      <trkpt lat="43.68986" lon="5.21384">
        <ele>208.74</ele>
        <time>2021-09-25T07:14:16Z</time>
      </trkpt>
      <trkpt lat="43.68991" lon="5.21379">
        <ele>206.82</ele>
        <time>2021-09-25T07:14:32Z</time>
      </trkpt>
      <trkpt lat="43.68992" lon="5.21378">
        <ele>206.82</ele>
        <time>2021-09-25T07:14:33Z</time>
      </trkpt>
      <trkpt lat="43.68993" lon="5.21377">
        <ele>206.34</ele>
        <time>2021-09-25T07:14:34Z</time>
      </trkpt>
      <trkpt lat="43.68994" lon="5.21378">
        <ele>206.34</ele>
        <time>2021-09-25T07:14:35Z</time>
      </trkpt>
      <trkpt lat="43.68996" lon="5.21379">
        <ele>205.86</ele>
        <time>2021-09-25T07:14:36Z</time>
      </trkpt>
      <trkpt lat="43.68998" lon="5.21382">
        <ele>205.86</ele>
        <time>2021-09-25T07:14:37Z</time>
      </trkpt>
      <trkpt lat="43.69001" lon="5.21383">
        <ele>205.86</ele>
        <time>2021-09-25T07:14:38Z</time>
      </trkpt>
      <trkpt lat="43.69004" lon="5.21384">
        <ele>205.38</ele>
        <time>2021-09-25T07:14:39Z</time>
      </trkpt>
      <trkpt lat="43.69026" lon="5.2139">
        <ele>204.42</ele>
        <time>2021-09-25T07:14:44Z</time>
      </trkpt>
      <trkpt lat="43.69031" lon="5.21389">
        <ele>204.42</ele>
        <time>2021-09-25T07:14:45Z</time>
      </trkpt>
      <trkpt lat="43.69034" lon="5.21385">
        <ele>203.94</ele>
        <time>2021-09-25T07:14:46Z</time>
      </trkpt>
      <trkpt lat="43.69035" lon="5.2138">
        <ele>203.94</ele>
        <time>2021-09-25T07:14:47Z</time>
      </trkpt>
      <trkpt lat="43.69037" lon="5.21374">
        <ele>203.46</ele>
        <time>2021-09-25T07:14:48Z</time>
      </trkpt>
      <trkpt lat="43.69038" lon="5.21368">
        <ele>202.98</ele>
        <time>2021-09-25T07:14:49Z</time>
      </trkpt>
      <trkpt lat="43.69041" lon="5.21362">
        <ele>202.98</ele>
        <time>2021-09-25T07:14:50Z</time>
      </trkpt>
      <trkpt lat="43.69043" lon="5.21356">
        <ele>202.49</ele>
        <time>2021-09-25T07:14:51Z</time>
      </trkpt>
      <trkpt lat="43.69044" lon="5.2135">
        <ele>202.49</ele>
        <time>2021-09-25T07:14:52Z</time>
      </trkpt>
      <trkpt lat="43.69044" lon="5.21343">
        <ele>202.01</ele>
        <time>2021-09-25T07:14:53Z</time>
      </trkpt>
      <trkpt lat="43.69045" lon="5.21337">
        <ele>202.01</ele>
        <time>2021-09-25T07:14:54Z</time>
      </trkpt>
      <trkpt lat="43.69046" lon="5.21331">
        <ele>201.53</ele>
        <time>2021-09-25T07:14:55Z</time>
      </trkpt>
      <trkpt lat="43.69047" lon="5.21325">
        <ele>201.53</ele>
        <time>2021-09-25T07:14:56Z</time>
      </trkpt>
      <trkpt lat="43.69049" lon="5.21319">
        <ele>201.05</ele>
        <time>2021-09-25T07:14:57Z</time>
      </trkpt>
      <trkpt lat="43.6905" lon="5.21312">
        <ele>201.05</ele>
        <time>2021-09-25T07:14:58Z</time>
      </trkpt>
      <trkpt lat="43.6905" lon="5.21305">
        <ele>201.05</ele>
        <time>2021-09-25T07:14:59Z</time>
      </trkpt>
      <trkpt lat="43.6905" lon="5.21299">
        <ele>200.57</ele>
        <time>2021-09-25T07:15:00Z</time>
      </trkpt>
      <trkpt lat="43.69047" lon="5.21292">
        <ele>200.09</ele>
        <time>2021-09-25T07:15:01Z</time>
      </trkpt>
      <trkpt lat="43.69046" lon="5.21289">
        <ele>200.09</ele>
        <time>2021-09-25T07:15:02Z</time>
      </trkpt>
      <trkpt lat="43.69044" lon="5.21285">
        <ele>200.09</ele>
        <time>2021-09-25T07:15:03Z</time>
      </trkpt>
      <trkpt lat="43.69045" lon="5.2128">
        <ele>199.61</ele>
        <time>2021-09-25T07:15:04Z</time>
      </trkpt>
      <trkpt lat="43.69046" lon="5.21274">
        <ele>199.61</ele>
        <time>2021-09-25T07:15:05Z</time>
      </trkpt>
      <trkpt lat="43.69046" lon="5.21268">
        <ele>199.13</ele>
        <time>2021-09-25T07:15:06Z</time>
      </trkpt>
      <trkpt lat="43.69044" lon="5.21262">
        <ele>198.65</ele>
        <time>2021-09-25T07:15:07Z</time>
      </trkpt>
      <trkpt lat="43.69043" lon="5.21257">
        <ele>198.65</ele>
        <time>2021-09-25T07:15:08Z</time>
      </trkpt>
      <trkpt lat="43.69042" lon="5.21251">
        <ele>198.17</ele>
        <time>2021-09-25T07:15:09Z</time>
      </trkpt>
      <trkpt lat="43.69042" lon="5.21244">
        <ele>198.17</ele>
        <time>2021-09-25T07:15:10Z</time>
      </trkpt>
      <trkpt lat="43.69044" lon="5.21238">
        <ele>197.69</ele>
        <time>2021-09-25T07:15:11Z</time>
      </trkpt>
      <trkpt lat="43.69046" lon="5.21232">
        <ele>197.69</ele>
        <time>2021-09-25T07:15:12Z</time>
      </trkpt>
      <trkpt lat="43.69049" lon="5.2122">
        <ele>197.21</ele>
        <time>2021-09-25T07:15:14Z</time>
      </trkpt>
      <trkpt lat="43.69048" lon="5.21216">
        <ele>197.21</ele>
        <time>2021-09-25T07:15:15Z</time>
      </trkpt>
      <trkpt lat="43.69045" lon="5.21213">
        <ele>197.21</ele>
        <time>2021-09-25T07:15:16Z</time>
      </trkpt>
      <trkpt lat="43.69041" lon="5.21211">
        <ele>196.73</ele>
        <time>2021-09-25T07:15:17Z</time>
      </trkpt>
      <trkpt lat="43.69038" lon="5.2121">
        <ele>196.73</ele>
        <time>2021-09-25T07:15:18Z</time>
      </trkpt>
      <trkpt lat="43.69034" lon="5.2121">
        <ele>196.73</ele>
        <time>2021-09-25T07:15:19Z</time>
      </trkpt>
      <trkpt lat="43.68994" lon="5.21207">
        <ele>199.13</ele>
        <time>2021-09-25T07:15:30Z</time>
      </trkpt>
      <trkpt lat="43.68979" lon="5.21186">
        <ele>198.17</ele>
        <time>2021-09-25T07:15:37Z</time>
      </trkpt>
      <trkpt lat="43.68979" lon="5.21182">
        <ele>197.69</ele>
        <time>2021-09-25T07:15:38Z</time>
      </trkpt>
      <trkpt lat="43.6898" lon="5.21177">
        <ele>197.69</ele>
        <time>2021-09-25T07:15:39Z</time>
      </trkpt>
      <trkpt lat="43.68979" lon="5.21172">
        <ele>197.69</ele>
        <time>2021-09-25T07:15:40Z</time>
      </trkpt>
      <trkpt lat="43.68978" lon="5.21167">
        <ele>197.69</ele>
        <time>2021-09-25T07:15:41Z</time>
      </trkpt>
      <trkpt lat="43.68976" lon="5.21164">
        <ele>197.21</ele>
        <time>2021-09-25T07:15:42Z</time>
      </trkpt>
      <trkpt lat="43.68976" lon="5.21161">
        <ele>197.21</ele>
        <time>2021-09-25T07:15:43Z</time>
      </trkpt>
      <trkpt lat="43.68973" lon="5.2116">
        <ele>197.21</ele>
        <time>2021-09-25T07:16:02Z</time>
      </trkpt>
      <trkpt lat="43.68962" lon="5.21098">
        <ele>195.28</ele>
        <time>2021-09-25T07:16:15Z</time>
      </trkpt>
      <trkpt lat="43.68961" lon="5.21084">
        <ele>194.32</ele>
        <time>2021-09-25T07:16:17Z</time>
      </trkpt>
      <trkpt lat="43.68959" lon="5.21078">
        <ele>193.84</ele>
        <time>2021-09-25T07:16:18Z</time>
      </trkpt>
      <trkpt lat="43.68958" lon="5.21072">
        <ele>193.36</ele>
        <time>2021-09-25T07:16:19Z</time>
      </trkpt>
      <trkpt lat="43.68954" lon="5.21058">
        <ele>192.4</ele>
        <time>2021-09-25T07:16:21Z</time>
      </trkpt>
      <trkpt lat="43.68952" lon="5.21051">
        <ele>191.92</ele>
        <time>2021-09-25T07:16:22Z</time>
      </trkpt>
      <trkpt lat="43.68943" lon="5.21011">
        <ele>187.59</ele>
        <time>2021-09-25T07:16:29Z</time>
      </trkpt>
      <trkpt lat="43.68945" lon="5.21008">
        <ele>186.63</ele>
        <time>2021-09-25T07:16:30Z</time>
      </trkpt>
      <trkpt lat="43.68946" lon="5.21006">
        <ele>186.63</ele>
        <time>2021-09-25T07:16:31Z</time>
      </trkpt>
      <trkpt lat="43.68949" lon="5.21004">
        <ele>186.15</ele>
        <time>2021-09-25T07:16:32Z</time>
      </trkpt>
      <trkpt lat="43.68952" lon="5.21004">
        <ele>186.15</ele>
        <time>2021-09-25T07:16:33Z</time>
      </trkpt>
      <trkpt lat="43.68956" lon="5.21006">
        <ele>186.15</ele>
        <time>2021-09-25T07:16:34Z</time>
      </trkpt>
      <trkpt lat="43.6896" lon="5.21008">
        <ele>185.67</ele>
        <time>2021-09-25T07:16:35Z</time>
      </trkpt>
      <trkpt lat="43.68964" lon="5.21011">
        <ele>185.67</ele>
        <time>2021-09-25T07:16:36Z</time>
      </trkpt>
      <trkpt lat="43.68967" lon="5.21013">
        <ele>185.67</ele>
        <time>2021-09-25T07:16:37Z</time>
      </trkpt>
      <trkpt lat="43.68971" lon="5.21012">
        <ele>185.67</ele>
        <time>2021-09-25T07:16:38Z</time>
      </trkpt>
      <trkpt lat="43.68976" lon="5.21007">
        <ele>185.19</ele>
        <time>2021-09-25T07:16:39Z</time>
      </trkpt>
      <trkpt lat="43.68979" lon="5.20981">
        <ele>184.71</ele>
        <time>2021-09-25T07:16:43Z</time>
      </trkpt>
      <trkpt lat="43.68979" lon="5.20974">
        <ele>184.71</ele>
        <time>2021-09-25T07:16:44Z</time>
      </trkpt>
      <trkpt lat="43.68982" lon="5.20923">
        <ele>185.19</ele>
        <time>2021-09-25T07:16:58Z</time>
      </trkpt>
      <trkpt lat="43.68984" lon="5.20921">
        <ele>187.59</ele>
        <time>2021-09-25T07:17:32Z</time>
      </trkpt>
      <trkpt lat="43.68983" lon="5.20921">
        <ele>188.08</ele>
        <time>2021-09-25T07:17:59Z</time>
      </trkpt>
      <trkpt lat="43.68987" lon="5.20921">
        <ele>191.92</ele>
        <time>2021-09-25T07:18:37Z</time>
      </trkpt>
      <trkpt lat="43.69002" lon="5.20907">
        <ele>189.52</ele>
        <time>2021-09-25T07:18:56Z</time>
      </trkpt>
      <trkpt lat="43.69022" lon="5.20896">
        <ele>188.08</ele>
        <time>2021-09-25T07:19:02Z</time>
      </trkpt>
      <trkpt lat="43.69026" lon="5.20893">
        <ele>188.08</ele>
        <time>2021-09-25T07:19:03Z</time>
      </trkpt>
      <trkpt lat="43.6903" lon="5.20891">
        <ele>188.08</ele>
        <time>2021-09-25T07:19:04Z</time>
      </trkpt>
      <trkpt lat="43.69051" lon="5.20879">
        <ele>186.63</ele>
        <time>2021-09-25T07:19:09Z</time>
      </trkpt>
      <trkpt lat="43.69134" lon="5.2087">
        <ele>183.75</ele>
        <time>2021-09-25T07:19:30Z</time>
      </trkpt>
      <trkpt lat="43.69141" lon="5.20868">
        <ele>183.27</ele>
        <time>2021-09-25T07:19:33Z</time>
      </trkpt>
      <trkpt lat="43.69143" lon="5.20869">
        <ele>183.27</ele>
        <time>2021-09-25T07:19:34Z</time>
      </trkpt>
      <trkpt lat="43.69147" lon="5.20869">
        <ele>183.27</ele>
        <time>2021-09-25T07:19:35Z</time>
      </trkpt>
      <trkpt lat="43.69208" lon="5.2089">
        <ele>181.35</ele>
        <time>2021-09-25T07:19:53Z</time>
      </trkpt>
      <trkpt lat="43.69292" lon="5.20888">
        <ele>179.42</ele>
        <time>2021-09-25T07:20:12Z</time>
      </trkpt>
      <trkpt lat="43.69344" lon="5.20889">
        <ele>179.42</ele>
        <time>2021-09-25T07:20:23Z</time>
      </trkpt>
      <trkpt lat="43.69349" lon="5.20889">
        <ele>179.9</ele>
        <time>2021-09-25T07:20:24Z</time>
      </trkpt>
      <trkpt lat="43.69452" lon="5.20891">
        <ele>181.83</ele>
        <time>2021-09-25T07:20:46Z</time>
      </trkpt>
      <trkpt lat="43.69565" lon="5.20898">
        <ele>183.27</ele>
        <time>2021-09-25T07:21:10Z</time>
      </trkpt>
      <trkpt lat="43.6959" lon="5.20907">
        <ele>184.23</ele>
        <time>2021-09-25T07:21:16Z</time>
      </trkpt>
      <trkpt lat="43.69592" lon="5.20906">
        <ele>184.23</ele>
        <time>2021-09-25T07:21:17Z</time>
      </trkpt>
      <trkpt lat="43.69594" lon="5.20903">
        <ele>185.19</ele>
        <time>2021-09-25T07:21:18Z</time>
      </trkpt>
      <trkpt lat="43.69595" lon="5.20902">
        <ele>185.67</ele>
        <time>2021-09-25T07:21:19Z</time>
      </trkpt>
      <trkpt lat="43.69597" lon="5.20899">
        <ele>186.15</ele>
        <time>2021-09-25T07:21:20Z</time>
      </trkpt>
      <trkpt lat="43.69601" lon="5.20886">
        <ele>187.59</ele>
        <time>2021-09-25T07:21:23Z</time>
      </trkpt>
      <trkpt lat="43.69601" lon="5.20877">
        <ele>188.08</ele>
        <time>2021-09-25T07:21:24Z</time>
      </trkpt>
      <trkpt lat="43.69598" lon="5.20867">
        <ele>187.59</ele>
        <time>2021-09-25T07:21:25Z</time>
      </trkpt>
      <trkpt lat="43.69595" lon="5.20862">
        <ele>187.59</ele>
        <time>2021-09-25T07:21:26Z</time>
      </trkpt>
      <trkpt lat="43.69591" lon="5.20859">
        <ele>187.11</ele>
        <time>2021-09-25T07:21:27Z</time>
      </trkpt>
      <trkpt lat="43.69588" lon="5.20856">
        <ele>186.63</ele>
        <time>2021-09-25T07:21:28Z</time>
      </trkpt>
      <trkpt lat="43.69583" lon="5.20854">
        <ele>186.15</ele>
        <time>2021-09-25T07:21:29Z</time>
      </trkpt>
      <trkpt lat="43.69579" lon="5.20853">
        <ele>186.15</ele>
        <time>2021-09-25T07:21:30Z</time>
      </trkpt>
      <trkpt lat="43.69575" lon="5.20851">
        <ele>185.67</ele>
        <time>2021-09-25T07:21:31Z</time>
      </trkpt>
      <trkpt lat="43.69506" lon="5.20803">
        <ele>179.42</ele>
        <time>2021-09-25T07:21:51Z</time>
      </trkpt>
      <trkpt lat="43.69475" lon="5.20749">
        <ele>178.46</ele>
        <time>2021-09-25T07:22:07Z</time>
      </trkpt>
      <trkpt lat="43.69476" lon="5.20747">
        <ele>178.46</ele>
        <time>2021-09-25T07:22:08Z</time>
      </trkpt>
      <trkpt lat="43.69477" lon="5.20746">
        <ele>178.46</ele>
        <time>2021-09-25T07:22:09Z</time>
      </trkpt>
      <trkpt lat="43.69478" lon="5.20745">
        <ele>178.46</ele>
        <time>2021-09-25T07:22:10Z</time>
      </trkpt>
      <trkpt lat="43.6948" lon="5.20743">
        <ele>178.46</ele>
        <time>2021-09-25T07:22:11Z</time>
      </trkpt>
      <trkpt lat="43.69483" lon="5.20742">
        <ele>177.98</ele>
        <time>2021-09-25T07:22:12Z</time>
      </trkpt>
      <trkpt lat="43.69487" lon="5.20741">
        <ele>177.98</ele>
        <time>2021-09-25T07:22:13Z</time>
      </trkpt>
      <trkpt lat="43.69492" lon="5.20741">
        <ele>177.98</ele>
        <time>2021-09-25T07:22:14Z</time>
      </trkpt>
      <trkpt lat="43.69505" lon="5.2074">
        <ele>177.98</ele>
        <time>2021-09-25T07:22:17Z</time>
      </trkpt>
      <trkpt lat="43.69522" lon="5.20737">
        <ele>177.98</ele>
        <time>2021-09-25T07:22:21Z</time>
      </trkpt>
      <trkpt lat="43.69527" lon="5.20736">
        <ele>177.98</ele>
        <time>2021-09-25T07:22:22Z</time>
      </trkpt>
      <trkpt lat="43.69531" lon="5.20734">
        <ele>177.98</ele>
        <time>2021-09-25T07:22:23Z</time>
      </trkpt>
      <trkpt lat="43.69535" lon="5.20731">
        <ele>177.98</ele>
        <time>2021-09-25T07:22:24Z</time>
      </trkpt>
      <trkpt lat="43.69538" lon="5.20725">
        <ele>177.5</ele>
        <time>2021-09-25T07:22:25Z</time>
      </trkpt>
      <trkpt lat="43.69539" lon="5.20719">
        <ele>177.5</ele>
        <time>2021-09-25T07:22:26Z</time>
      </trkpt>
      <trkpt lat="43.69539" lon="5.20714">
        <ele>177.5</ele>
        <time>2021-09-25T07:22:27Z</time>
      </trkpt>
      <trkpt lat="43.69538" lon="5.20708">
        <ele>177.5</ele>
        <time>2021-09-25T07:22:28Z</time>
      </trkpt>
      <trkpt lat="43.69536" lon="5.20702">
        <ele>177.5</ele>
        <time>2021-09-25T07:22:29Z</time>
      </trkpt>
      <trkpt lat="43.69535" lon="5.20697">
        <ele>177.5</ele>
        <time>2021-09-25T07:22:30Z</time>
      </trkpt>
      <trkpt lat="43.69532" lon="5.20679">
        <ele>177.98</ele>
        <time>2021-09-25T07:22:33Z</time>
      </trkpt>
      <trkpt lat="43.69531" lon="5.20667">
        <ele>177.98</ele>
        <time>2021-09-25T07:22:35Z</time>
      </trkpt>
      <trkpt lat="43.6953" lon="5.20662">
        <ele>177.98</ele>
        <time>2021-09-25T07:22:36Z</time>
      </trkpt>
      <trkpt lat="43.69523" lon="5.20638">
        <ele>178.46</ele>
        <time>2021-09-25T07:22:41Z</time>
      </trkpt>
      <trkpt lat="43.6952" lon="5.20633">
        <ele>178.46</ele>
        <time>2021-09-25T07:22:42Z</time>
      </trkpt>
      <trkpt lat="43.69518" lon="5.20629">
        <ele>178.46</ele>
        <time>2021-09-25T07:22:43Z</time>
      </trkpt>
      <trkpt lat="43.69515" lon="5.20625">
        <ele>178.46</ele>
        <time>2021-09-25T07:22:44Z</time>
      </trkpt>
      <trkpt lat="43.69512" lon="5.2062">
        <ele>178.94</ele>
        <time>2021-09-25T07:22:45Z</time>
      </trkpt>
      <trkpt lat="43.69487" lon="5.20565">
        <ele>179.42</ele>
        <time>2021-09-25T07:22:58Z</time>
      </trkpt>
      <trkpt lat="43.69488" lon="5.20563">
        <ele>179.42</ele>
        <time>2021-09-25T07:22:59Z</time>
      </trkpt>
      <trkpt lat="43.6949" lon="5.20562">
        <ele>179.42</ele>
        <time>2021-09-25T07:23:00Z</time>
      </trkpt>
      <trkpt lat="43.69492" lon="5.20558">
        <ele>179.42</ele>
        <time>2021-09-25T07:23:01Z</time>
      </trkpt>
      <trkpt lat="43.69494" lon="5.20553">
        <ele>179.9</ele>
        <time>2021-09-25T07:23:02Z</time>
      </trkpt>
      <trkpt lat="43.69495" lon="5.20548">
        <ele>179.9</ele>
        <time>2021-09-25T07:23:03Z</time>
      </trkpt>
      <trkpt lat="43.69496" lon="5.20543">
        <ele>179.9</ele>
        <time>2021-09-25T07:23:04Z</time>
      </trkpt>
      <trkpt lat="43.69534" lon="5.20444">
        <ele>181.83</ele>
        <time>2021-09-25T07:23:25Z</time>
      </trkpt>
      <trkpt lat="43.69536" lon="5.20443">
        <ele>181.83</ele>
        <time>2021-09-25T07:23:27Z</time>
      </trkpt>
      <trkpt lat="43.69537" lon="5.20443">
        <ele>181.83</ele>
        <time>2021-09-25T07:23:28Z</time>
      </trkpt>
      <trkpt lat="43.69539" lon="5.20442">
        <ele>181.83</ele>
        <time>2021-09-25T07:23:29Z</time>
      </trkpt>
      <trkpt lat="43.6955" lon="5.20437">
        <ele>181.83</ele>
        <time>2021-09-25T07:23:32Z</time>
      </trkpt>
      <trkpt lat="43.69553" lon="5.20434">
        <ele>182.31</ele>
        <time>2021-09-25T07:23:33Z</time>
      </trkpt>
      <trkpt lat="43.69557" lon="5.20431">
        <ele>182.31</ele>
        <time>2021-09-25T07:23:34Z</time>
      </trkpt>
      <trkpt lat="43.6956" lon="5.20428">
        <ele>182.79</ele>
        <time>2021-09-25T07:23:35Z</time>
      </trkpt>
      <trkpt lat="43.69562" lon="5.20424">
        <ele>182.79</ele>
        <time>2021-09-25T07:23:36Z</time>
      </trkpt>
      <trkpt lat="43.69564" lon="5.2042">
        <ele>182.79</ele>
        <time>2021-09-25T07:23:37Z</time>
      </trkpt>
      <trkpt lat="43.69565" lon="5.20415">
        <ele>183.27</ele>
        <time>2021-09-25T07:23:38Z</time>
      </trkpt>
      <trkpt lat="43.69574" lon="5.20396">
        <ele>183.75</ele>
        <time>2021-09-25T07:23:43Z</time>
      </trkpt>
      <trkpt lat="43.69577" lon="5.20394">
        <ele>183.75</ele>
        <time>2021-09-25T07:23:44Z</time>
      </trkpt>
      <trkpt lat="43.6958" lon="5.20395">
        <ele>183.75</ele>
        <time>2021-09-25T07:23:45Z</time>
      </trkpt>
      <trkpt lat="43.69583" lon="5.20398">
        <ele>184.23</ele>
        <time>2021-09-25T07:23:46Z</time>
      </trkpt>
      <trkpt lat="43.69586" lon="5.20401">
        <ele>184.23</ele>
        <time>2021-09-25T07:23:47Z</time>
      </trkpt>
      <trkpt lat="43.69591" lon="5.20402">
        <ele>184.23</ele>
        <time>2021-09-25T07:23:48Z</time>
      </trkpt>
      <trkpt lat="43.69594" lon="5.20402">
        <ele>184.71</ele>
        <time>2021-09-25T07:23:49Z</time>
      </trkpt>
      <trkpt lat="43.69597" lon="5.20401">
        <ele>185.19</ele>
        <time>2021-09-25T07:23:50Z</time>
      </trkpt>
      <trkpt lat="43.696" lon="5.20399">
        <ele>185.19</ele>
        <time>2021-09-25T07:23:51Z</time>
      </trkpt>
      <trkpt lat="43.69651" lon="5.20391">
        <ele>192.88</ele>
        <time>2021-09-25T07:24:12Z</time>
      </trkpt>
      <trkpt lat="43.69666" lon="5.204">
        <ele>195.28</ele>
        <time>2021-09-25T07:24:19Z</time>
      </trkpt>
      <trkpt lat="43.69669" lon="5.20399">
        <ele>195.77</ele>
        <time>2021-09-25T07:24:20Z</time>
      </trkpt>
      <trkpt lat="43.69671" lon="5.20398">
        <ele>195.77</ele>
        <time>2021-09-25T07:24:21Z</time>
      </trkpt>
      <trkpt lat="43.69673" lon="5.20397">
        <ele>196.25</ele>
        <time>2021-09-25T07:24:22Z</time>
      </trkpt>
      <trkpt lat="43.69675" lon="5.20396">
        <ele>196.25</ele>
        <time>2021-09-25T07:24:23Z</time>
      </trkpt>
      <trkpt lat="43.69678" lon="5.20396">
        <ele>196.25</ele>
        <time>2021-09-25T07:24:24Z</time>
      </trkpt>
      <trkpt lat="43.6968" lon="5.20395">
        <ele>196.25</ele>
        <time>2021-09-25T07:24:25Z</time>
      </trkpt>
      <trkpt lat="43.69683" lon="5.20396">
        <ele>196.73</ele>
        <time>2021-09-25T07:24:26Z</time>
      </trkpt>
      <trkpt lat="43.69686" lon="5.20396">
        <ele>197.21</ele>
        <time>2021-09-25T07:24:27Z</time>
      </trkpt>
      <trkpt lat="43.69689" lon="5.20395">
        <ele>197.69</ele>
        <time>2021-09-25T07:24:28Z</time>
      </trkpt>
      <trkpt lat="43.69691" lon="5.20395">
        <ele>198.17</ele>
        <time>2021-09-25T07:24:29Z</time>
      </trkpt>
      <trkpt lat="43.6974" lon="5.20387">
        <ele>201.53</ele>
        <time>2021-09-25T07:24:47Z</time>
      </trkpt>
      <trkpt lat="43.69742" lon="5.20384">
        <ele>201.53</ele>
        <time>2021-09-25T07:24:48Z</time>
      </trkpt>
      <trkpt lat="43.69744" lon="5.20381">
        <ele>202.01</ele>
        <time>2021-09-25T07:24:49Z</time>
      </trkpt>
      <trkpt lat="43.69745" lon="5.20377">
        <ele>202.01</ele>
        <time>2021-09-25T07:24:50Z</time>
      </trkpt>
      <trkpt lat="43.69746" lon="5.20373">
        <ele>202.01</ele>
        <time>2021-09-25T07:24:51Z</time>
      </trkpt>
      <trkpt lat="43.69748" lon="5.20369">
        <ele>202.01</ele>
        <time>2021-09-25T07:24:52Z</time>
      </trkpt>
      <trkpt lat="43.69767" lon="5.20308">
        <ele>202.49</ele>
        <time>2021-09-25T07:25:11Z</time>
      </trkpt>
      <trkpt lat="43.69786" lon="5.20265">
        <ele>205.38</ele>
        <time>2021-09-25T07:25:29Z</time>
      </trkpt>
      <trkpt lat="43.69812" lon="5.20211">
        <ele>208.74</ele>
        <time>2021-09-25T07:25:48Z</time>
      </trkpt>
      <trkpt lat="43.69839" lon="5.20148">
        <ele>209.22</ele>
        <time>2021-09-25T07:26:07Z</time>
      </trkpt>
      <trkpt lat="43.69839" lon="5.20141">
        <ele>208.74</ele>
        <time>2021-09-25T07:26:08Z</time>
      </trkpt>
      <trkpt lat="43.69838" lon="5.20134">
        <ele>208.26</ele>
        <time>2021-09-25T07:26:09Z</time>
      </trkpt>
      <trkpt lat="43.69836" lon="5.20129">
        <ele>207.78</ele>
        <time>2021-09-25T07:26:10Z</time>
      </trkpt>
      <trkpt lat="43.69833" lon="5.20123">
        <ele>207.3</ele>
        <time>2021-09-25T07:26:11Z</time>
      </trkpt>
      <trkpt lat="43.6983" lon="5.20119">
        <ele>206.82</ele>
        <time>2021-09-25T07:26:12Z</time>
      </trkpt>
      <trkpt lat="43.69826" lon="5.20114">
        <ele>206.34</ele>
        <time>2021-09-25T07:26:13Z</time>
      </trkpt>
      <trkpt lat="43.69823" lon="5.2011">
        <ele>205.86</ele>
        <time>2021-09-25T07:26:14Z</time>
      </trkpt>
      <trkpt lat="43.69789" lon="5.2008">
        <ele>206.82</ele>
        <time>2021-09-25T07:26:24Z</time>
      </trkpt>
      <trkpt lat="43.69771" lon="5.20023">
        <ele>212.11</ele>
        <time>2021-09-25T07:26:43Z</time>
      </trkpt>
      <trkpt lat="43.69762" lon="5.19997">
        <ele>214.99</ele>
        <time>2021-09-25T07:26:53Z</time>
      </trkpt>
      <trkpt lat="43.6976" lon="5.19996">
        <ele>215.47</ele>
        <time>2021-09-25T07:26:54Z</time>
      </trkpt>
      <trkpt lat="43.69758" lon="5.19995">
        <ele>215.47</ele>
        <time>2021-09-25T07:26:55Z</time>
      </trkpt>
      <trkpt lat="43.69726" lon="5.19967">
        <ele>215.47</ele>
        <time>2021-09-25T07:27:13Z</time>
      </trkpt>
      <trkpt lat="43.69682" lon="5.19941">
        <ele>218.84</ele>
        <time>2021-09-25T07:27:33Z</time>
      </trkpt>
      <trkpt lat="43.69635" lon="5.19917">
        <ele>222.2</ele>
        <time>2021-09-25T07:27:53Z</time>
      </trkpt>
      <trkpt lat="43.6962" lon="5.19906">
        <ele>220.28</ele>
        <time>2021-09-25T07:28:08Z</time>
      </trkpt>
      <trkpt lat="43.6962" lon="5.19904">
        <ele>218.36</ele>
        <time>2021-09-25T07:28:40Z</time>
      </trkpt>
      <trkpt lat="43.69621" lon="5.19907">
        <ele>218.36</ele>
        <time>2021-09-25T07:29:13Z</time>
      </trkpt>
      <trkpt lat="43.6962" lon="5.19905">
        <ele>219.32</ele>
        <time>2021-09-25T07:29:43Z</time>
      </trkpt>
      <trkpt lat="43.69619" lon="5.19905">
        <ele>218.84</ele>
        <time>2021-09-25T07:30:21Z</time>
      </trkpt>
      <trkpt lat="43.69617" lon="5.19905">
        <ele>218.84</ele>
        <time>2021-09-25T07:30:56Z</time>
      </trkpt>
      <trkpt lat="43.69615" lon="5.19905">
        <ele>218.84</ele>
        <time>2021-09-25T07:30:57Z</time>
      </trkpt>
      <trkpt lat="43.69588" lon="5.19863">
        <ele>219.32</ele>
        <time>2021-09-25T07:31:11Z</time>
      </trkpt>
      <trkpt lat="43.69556" lon="5.19778">
        <ele>217.4</ele>
        <time>2021-09-25T07:31:30Z</time>
      </trkpt>
      <trkpt lat="43.69538" lon="5.19736">
        <ele>217.88</ele>
        <time>2021-09-25T07:31:40Z</time>
      </trkpt>
      <trkpt lat="43.69537" lon="5.1973">
        <ele>217.4</ele>
        <time>2021-09-25T07:31:41Z</time>
      </trkpt>
      <trkpt lat="43.69534" lon="5.19724">
        <ele>217.4</ele>
        <time>2021-09-25T07:31:42Z</time>
      </trkpt>
      <trkpt lat="43.69532" lon="5.19718">
        <ele>216.91</ele>
        <time>2021-09-25T07:31:43Z</time>
      </trkpt>
      <trkpt lat="43.6953" lon="5.19711">
        <ele>216.91</ele>
        <time>2021-09-25T07:31:44Z</time>
      </trkpt>
      <trkpt lat="43.69527" lon="5.19705">
        <ele>216.43</ele>
        <time>2021-09-25T07:31:45Z</time>
      </trkpt>
      <trkpt lat="43.69525" lon="5.19698">
        <ele>215.95</ele>
        <time>2021-09-25T07:31:46Z</time>
      </trkpt>
      <trkpt lat="43.69504" lon="5.19657">
        <ele>214.03</ele>
        <time>2021-09-25T07:31:52Z</time>
      </trkpt>
      <trkpt lat="43.6948" lon="5.19602">
        <ele>218.84</ele>
        <time>2021-09-25T07:32:07Z</time>
      </trkpt>
      <trkpt lat="43.69454" lon="5.19556">
        <ele>221.24</ele>
        <time>2021-09-25T07:32:23Z</time>
      </trkpt>
      <trkpt lat="43.69417" lon="5.195">
        <ele>217.88</ele>
        <time>2021-09-25T07:32:39Z</time>
      </trkpt>
      <trkpt lat="43.69396" lon="5.19459">
        <ele>221.24</ele>
        <time>2021-09-25T07:32:51Z</time>
      </trkpt>
      <trkpt lat="43.69347" lon="5.19382">
        <ele>220.76</ele>
        <time>2021-09-25T07:33:10Z</time>
      </trkpt>
      <trkpt lat="43.69345" lon="5.19378">
        <ele>220.76</ele>
        <time>2021-09-25T07:33:11Z</time>
      </trkpt>
      <trkpt lat="43.69285" lon="5.1932">
        <ele>219.8</ele>
        <time>2021-09-25T07:33:31Z</time>
      </trkpt>
      <trkpt lat="43.69257" lon="5.19313">
        <ele>216.91</ele>
        <time>2021-09-25T07:33:39Z</time>
      </trkpt>
      <trkpt lat="43.69245" lon="5.19292">
        <ele>217.4</ele>
        <time>2021-09-25T07:33:44Z</time>
      </trkpt>
      <trkpt lat="43.69245" lon="5.19288">
        <ele>217.88</ele>
        <time>2021-09-25T07:33:45Z</time>
      </trkpt>
      <trkpt lat="43.69245" lon="5.19284">
        <ele>217.88</ele>
        <time>2021-09-25T07:33:46Z</time>
      </trkpt>
      <trkpt lat="43.69245" lon="5.1928">
        <ele>217.88</ele>
        <time>2021-09-25T07:33:47Z</time>
      </trkpt>
      <trkpt lat="43.69245" lon="5.19276">
        <ele>218.36</ele>
        <time>2021-09-25T07:33:48Z</time>
      </trkpt>
      <trkpt lat="43.69245" lon="5.19273">
        <ele>218.36</ele>
        <time>2021-09-25T07:33:49Z</time>
      </trkpt>
      <trkpt lat="43.69254" lon="5.19213">
        <ele>220.76</ele>
        <time>2021-09-25T07:34:07Z</time>
      </trkpt>
      <trkpt lat="43.69255" lon="5.1921">
        <ele>221.24</ele>
        <time>2021-09-25T07:34:09Z</time>
      </trkpt>
      <trkpt lat="43.69256" lon="5.19209">
        <ele>221.24</ele>
        <time>2021-09-25T07:34:10Z</time>
      </trkpt>
      <trkpt lat="43.69261" lon="5.19211">
        <ele>221.24</ele>
        <time>2021-09-25T07:34:13Z</time>
      </trkpt>
      <trkpt lat="43.69263" lon="5.19212">
        <ele>221.72</ele>
        <time>2021-09-25T07:34:14Z</time>
      </trkpt>
      <trkpt lat="43.69271" lon="5.19213">
        <ele>221.72</ele>
        <time>2021-09-25T07:34:18Z</time>
      </trkpt>
      <trkpt lat="43.6928" lon="5.19198">
        <ele>222.68</ele>
        <time>2021-09-25T07:34:25Z</time>
      </trkpt>
      <trkpt lat="43.69322" lon="5.19155">
        <ele>224.12</ele>
        <time>2021-09-25T07:34:43Z</time>
      </trkpt>
      <trkpt lat="43.69363" lon="5.19095">
        <ele>227.01</ele>
        <time>2021-09-25T07:35:04Z</time>
      </trkpt>
      <trkpt lat="43.69361" lon="5.19038">
        <ele>227.01</ele>
        <time>2021-09-25T07:35:18Z</time>
      </trkpt>
      <trkpt lat="43.69343" lon="5.18989">
        <ele>227.01</ele>
        <time>2021-09-25T07:35:30Z</time>
      </trkpt>
      <trkpt lat="43.6934" lon="5.18987">
        <ele>227.01</ele>
        <time>2021-09-25T07:35:31Z</time>
      </trkpt>
      <trkpt lat="43.69333" lon="5.1898">
        <ele>226.53</ele>
        <time>2021-09-25T07:35:33Z</time>
      </trkpt>
      <trkpt lat="43.69331" lon="5.18975">
        <ele>226.53</ele>
        <time>2021-09-25T07:35:34Z</time>
      </trkpt>
      <trkpt lat="43.69329" lon="5.1897">
        <ele>226.05</ele>
        <time>2021-09-25T07:35:35Z</time>
      </trkpt>
      <trkpt lat="43.69328" lon="5.18966">
        <ele>226.05</ele>
        <time>2021-09-25T07:35:36Z</time>
      </trkpt>
      <trkpt lat="43.69328" lon="5.18961">
        <ele>226.05</ele>
        <time>2021-09-25T07:35:37Z</time>
      </trkpt>
      <trkpt lat="43.69325" lon="5.18918">
        <ele>227.49</ele>
        <time>2021-09-25T07:35:49Z</time>
      </trkpt>
      <trkpt lat="43.69343" lon="5.18849">
        <ele>229.41</ele>
        <time>2021-09-25T07:36:07Z</time>
      </trkpt>
      <trkpt lat="43.69385" lon="5.18799">
        <ele>231.33</ele>
        <time>2021-09-25T07:36:26Z</time>
      </trkpt>
      <trkpt lat="43.69439" lon="5.18762">
        <ele>230.37</ele>
        <time>2021-09-25T07:36:46Z</time>
      </trkpt>
      <trkpt lat="43.69452" lon="5.18753">
        <ele>228.93</ele>
        <time>2021-09-25T07:36:50Z</time>
      </trkpt>
      <trkpt lat="43.69455" lon="5.1875">
        <ele>228.45</ele>
        <time>2021-09-25T07:36:51Z</time>
      </trkpt>
      <trkpt lat="43.69458" lon="5.18746">
        <ele>228.45</ele>
        <time>2021-09-25T07:36:52Z</time>
      </trkpt>
      <trkpt lat="43.6946" lon="5.18742">
        <ele>227.97</ele>
        <time>2021-09-25T07:36:53Z</time>
      </trkpt>
      <trkpt lat="43.69462" lon="5.18737">
        <ele>227.49</ele>
        <time>2021-09-25T07:36:54Z</time>
      </trkpt>
      <trkpt lat="43.69464" lon="5.18731">
        <ele>227.01</ele>
        <time>2021-09-25T07:36:55Z</time>
      </trkpt>
      <trkpt lat="43.69458" lon="5.18705">
        <ele>225.57</ele>
        <time>2021-09-25T07:37:02Z</time>
      </trkpt>
      <trkpt lat="43.69433" lon="5.18681">
        <ele>231.33</ele>
        <time>2021-09-25T07:37:14Z</time>
      </trkpt>
      <trkpt lat="43.69413" lon="5.18691">
        <ele>234.7</ele>
        <time>2021-09-25T07:37:22Z</time>
      </trkpt>
      <trkpt lat="43.69387" lon="5.18682">
        <ele>236.14</ele>
        <time>2021-09-25T07:37:33Z</time>
      </trkpt>
      <trkpt lat="43.69385" lon="5.18682">
        <ele>236.14</ele>
        <time>2021-09-25T07:37:34Z</time>
      </trkpt>
      <trkpt lat="43.69375" lon="5.18679">
        <ele>236.62</ele>
        <time>2021-09-25T07:37:38Z</time>
      </trkpt>
      <trkpt lat="43.69365" lon="5.18663">
        <ele>236.62</ele>
        <time>2021-09-25T07:37:43Z</time>
      </trkpt>
      <trkpt lat="43.69359" lon="5.18649">
        <ele>237.1</ele>
        <time>2021-09-25T07:37:46Z</time>
      </trkpt>
      <trkpt lat="43.69348" lon="5.18641">
        <ele>237.58</ele>
        <time>2021-09-25T07:37:49Z</time>
      </trkpt>
      <trkpt lat="43.6933" lon="5.18645">
        <ele>238.06</ele>
        <time>2021-09-25T07:37:56Z</time>
      </trkpt>
      <trkpt lat="43.69289" lon="5.1864">
        <ele>234.7</ele>
        <time>2021-09-25T07:38:07Z</time>
      </trkpt>
      <trkpt lat="43.69283" lon="5.18624">
        <ele>234.7</ele>
        <time>2021-09-25T07:38:11Z</time>
      </trkpt>
      <trkpt lat="43.69285" lon="5.18615">
        <ele>235.18</ele>
        <time>2021-09-25T07:38:14Z</time>
      </trkpt>
      <trkpt lat="43.69291" lon="5.18611">
        <ele>236.14</ele>
        <time>2021-09-25T07:38:17Z</time>
      </trkpt>
      <trkpt lat="43.69298" lon="5.18599">
        <ele>237.58</ele>
        <time>2021-09-25T07:38:21Z</time>
      </trkpt>
      <trkpt lat="43.69299" lon="5.18572">
        <ele>239.99</ele>
        <time>2021-09-25T07:38:28Z</time>
      </trkpt>
      <trkpt lat="43.69298" lon="5.18536">
        <ele>240.47</ele>
        <time>2021-09-25T07:38:36Z</time>
      </trkpt>
      <trkpt lat="43.69309" lon="5.18521">
        <ele>240.47</ele>
        <time>2021-09-25T07:38:41Z</time>
      </trkpt>
      <trkpt lat="43.6931" lon="5.18518">
        <ele>240.47</ele>
        <time>2021-09-25T07:38:42Z</time>
      </trkpt>
      <trkpt lat="43.69311" lon="5.18511">
        <ele>240.47</ele>
        <time>2021-09-25T07:38:44Z</time>
      </trkpt>
      <trkpt lat="43.69311" lon="5.18509">
        <ele>240.47</ele>
        <time>2021-09-25T07:38:45Z</time>
      </trkpt>
      <trkpt lat="43.69311" lon="5.18508">
        <ele>240.47</ele>
        <time>2021-09-25T07:38:46Z</time>
      </trkpt>
      <trkpt lat="43.69311" lon="5.18506">
        <ele>239.99</ele>
        <time>2021-09-25T07:39:02Z</time>
      </trkpt>
      <trkpt lat="43.69311" lon="5.18504">
        <ele>238.06</ele>
        <time>2021-09-25T07:39:40Z</time>
      </trkpt>
      <trkpt lat="43.69312" lon="5.18503">
        <ele>238.54</ele>
        <time>2021-09-25T07:40:08Z</time>
      </trkpt>
      <trkpt lat="43.69312" lon="5.18501">
        <ele>238.06</ele>
        <time>2021-09-25T07:40:12Z</time>
      </trkpt>
      <trkpt lat="43.69313" lon="5.18499">
        <ele>238.06</ele>
        <time>2021-09-25T07:40:13Z</time>
      </trkpt>
      <trkpt lat="43.69313" lon="5.18497">
        <ele>238.06</ele>
        <time>2021-09-25T07:40:14Z</time>
      </trkpt>
      <trkpt lat="43.69315" lon="5.18494">
        <ele>238.06</ele>
        <time>2021-09-25T07:40:15Z</time>
      </trkpt>
      <trkpt lat="43.69316" lon="5.1849">
        <ele>238.06</ele>
        <time>2021-09-25T07:40:16Z</time>
      </trkpt>
      <trkpt lat="43.69316" lon="5.18486">
        <ele>238.06</ele>
        <time>2021-09-25T07:40:17Z</time>
      </trkpt>
      <trkpt lat="43.69315" lon="5.18481">
        <ele>238.54</ele>
        <time>2021-09-25T07:40:18Z</time>
      </trkpt>
      <trkpt lat="43.69314" lon="5.18477">
        <ele>239.02</ele>
        <time>2021-09-25T07:40:19Z</time>
      </trkpt>
      <trkpt lat="43.69312" lon="5.18472">
        <ele>239.51</ele>
        <time>2021-09-25T07:40:20Z</time>
      </trkpt>
      <trkpt lat="43.6931" lon="5.18469">
        <ele>239.99</ele>
        <time>2021-09-25T07:40:21Z</time>
      </trkpt>
      <trkpt lat="43.69307" lon="5.18465">
        <ele>239.99</ele>
        <time>2021-09-25T07:40:22Z</time>
      </trkpt>
      <trkpt lat="43.69305" lon="5.18462">
        <ele>240.47</ele>
        <time>2021-09-25T07:40:23Z</time>
      </trkpt>
      <trkpt lat="43.69302" lon="5.18459">
        <ele>240.95</ele>
        <time>2021-09-25T07:40:24Z</time>
      </trkpt>
      <trkpt lat="43.69299" lon="5.18455">
        <ele>241.43</ele>
        <time>2021-09-25T07:40:25Z</time>
      </trkpt>
      <trkpt lat="43.69296" lon="5.18451">
        <ele>241.43</ele>
        <time>2021-09-25T07:40:26Z</time>
      </trkpt>
      <trkpt lat="43.69294" lon="5.18447">
        <ele>241.91</ele>
        <time>2021-09-25T07:40:27Z</time>
      </trkpt>
      <trkpt lat="43.69291" lon="5.18443">
        <ele>241.91</ele>
        <time>2021-09-25T07:40:28Z</time>
      </trkpt>
      <trkpt lat="43.69288" lon="5.1844">
        <ele>242.39</ele>
        <time>2021-09-25T07:40:29Z</time>
      </trkpt>
      <trkpt lat="43.69285" lon="5.18438">
        <ele>242.39</ele>
        <time>2021-09-25T07:40:30Z</time>
      </trkpt>
      <trkpt lat="43.69278" lon="5.18431">
        <ele>242.87</ele>
        <time>2021-09-25T07:40:33Z</time>
      </trkpt>
      <trkpt lat="43.69276" lon="5.18426">
        <ele>243.35</ele>
        <time>2021-09-25T07:40:34Z</time>
      </trkpt>
      <trkpt lat="43.69276" lon="5.18422">
        <ele>243.35</ele>
        <time>2021-09-25T07:40:35Z</time>
      </trkpt>
      <trkpt lat="43.69276" lon="5.18418">
        <ele>243.35</ele>
        <time>2021-09-25T07:40:36Z</time>
      </trkpt>
      <trkpt lat="43.69276" lon="5.18413">
        <ele>243.35</ele>
        <time>2021-09-25T07:40:37Z</time>
      </trkpt>
      <trkpt lat="43.69275" lon="5.18408">
        <ele>243.35</ele>
        <time>2021-09-25T07:40:38Z</time>
      </trkpt>
      <trkpt lat="43.69274" lon="5.18403">
        <ele>243.35</ele>
        <time>2021-09-25T07:40:39Z</time>
      </trkpt>
      <trkpt lat="43.69273" lon="5.18399">
        <ele>243.35</ele>
        <time>2021-09-25T07:40:40Z</time>
      </trkpt>
      <trkpt lat="43.69271" lon="5.18394">
        <ele>243.35</ele>
        <time>2021-09-25T07:40:41Z</time>
      </trkpt>
      <trkpt lat="43.69247" lon="5.18323">
        <ele>243.83</ele>
        <time>2021-09-25T07:41:00Z</time>
      </trkpt>
      <trkpt lat="43.69229" lon="5.18293">
        <ele>240.47</ele>
        <time>2021-09-25T07:41:14Z</time>
      </trkpt>
      <trkpt lat="43.69226" lon="5.18291">
        <ele>239.02</ele>
        <time>2021-09-25T07:41:44Z</time>
      </trkpt>
      <trkpt lat="43.69225" lon="5.18291">
        <ele>239.02</ele>
        <time>2021-09-25T07:41:45Z</time>
      </trkpt>
      <trkpt lat="43.69223" lon="5.18289">
        <ele>239.02</ele>
        <time>2021-09-25T07:41:46Z</time>
      </trkpt>
      <trkpt lat="43.69221" lon="5.18287">
        <ele>239.02</ele>
        <time>2021-09-25T07:41:47Z</time>
      </trkpt>
      <trkpt lat="43.69219" lon="5.18286">
        <ele>239.02</ele>
        <time>2021-09-25T07:41:48Z</time>
      </trkpt>
      <trkpt lat="43.69173" lon="5.18279">
        <ele>237.58</ele>
        <time>2021-09-25T07:42:05Z</time>
      </trkpt>
      <trkpt lat="43.69159" lon="5.18287">
        <ele>237.1</ele>
        <time>2021-09-25T07:42:09Z</time>
      </trkpt>
      <trkpt lat="43.69102" lon="5.18353">
        <ele>236.62</ele>
        <time>2021-09-25T07:42:30Z</time>
      </trkpt>
      <trkpt lat="43.69084" lon="5.18356">
        <ele>237.58</ele>
        <time>2021-09-25T07:42:40Z</time>
      </trkpt>
      <trkpt lat="43.69083" lon="5.18354">
        <ele>237.58</ele>
        <time>2021-09-25T07:42:41Z</time>
      </trkpt>
      <trkpt lat="43.69085" lon="5.18348">
        <ele>238.06</ele>
        <time>2021-09-25T07:42:44Z</time>
      </trkpt>
      <trkpt lat="43.69088" lon="5.18347">
        <ele>238.06</ele>
        <time>2021-09-25T07:42:45Z</time>
      </trkpt>
      <trkpt lat="43.6909" lon="5.18346">
        <ele>238.06</ele>
        <time>2021-09-25T07:42:46Z</time>
      </trkpt>
      <trkpt lat="43.69096" lon="5.18293">
        <ele>239.02</ele>
        <time>2021-09-25T07:43:01Z</time>
      </trkpt>
      <trkpt lat="43.69048" lon="5.18258">
        <ele>241.91</ele>
        <time>2021-09-25T07:43:19Z</time>
      </trkpt>
      <trkpt lat="43.6902" lon="5.18245">
        <ele>242.39</ele>
        <time>2021-09-25T07:43:34Z</time>
      </trkpt>
      <trkpt lat="43.68999" lon="5.18245">
        <ele>240.47</ele>
        <time>2021-09-25T07:43:42Z</time>
      </trkpt>
      <trkpt lat="43.68997" lon="5.18243">
        <ele>240.47</ele>
        <time>2021-09-25T07:43:43Z</time>
      </trkpt>
      <trkpt lat="43.68995" lon="5.18242">
        <ele>239.99</ele>
        <time>2021-09-25T07:43:44Z</time>
      </trkpt>
      <trkpt lat="43.68993" lon="5.1824">
        <ele>239.99</ele>
        <time>2021-09-25T07:43:45Z</time>
      </trkpt>
      <trkpt lat="43.68991" lon="5.18238">
        <ele>239.99</ele>
        <time>2021-09-25T07:43:46Z</time>
      </trkpt>
      <trkpt lat="43.68986" lon="5.18226">
        <ele>239.99</ele>
        <time>2021-09-25T07:43:51Z</time>
      </trkpt>
      <trkpt lat="43.69001" lon="5.18157">
        <ele>241.91</ele>
        <time>2021-09-25T07:44:07Z</time>
      </trkpt>
      <trkpt lat="43.69009" lon="5.1808">
        <ele>244.79</ele>
        <time>2021-09-25T07:44:25Z</time>
      </trkpt>
      <trkpt lat="43.6902" lon="5.17976">
        <ele>245.75</ele>
        <time>2021-09-25T07:44:49Z</time>
      </trkpt>
      <trkpt lat="43.6903" lon="5.17906">
        <ele>246.72</ele>
        <time>2021-09-25T07:45:06Z</time>
      </trkpt>
      <trkpt lat="43.69045" lon="5.17803">
        <ele>248.16</ele>
        <time>2021-09-25T07:45:30Z</time>
      </trkpt>
      <trkpt lat="43.69065" lon="5.17722">
        <ele>251.04</ele>
        <time>2021-09-25T07:45:51Z</time>
      </trkpt>
      <trkpt lat="43.69074" lon="5.17721">
        <ele>252.48</ele>
        <time>2021-09-25T07:45:57Z</time>
      </trkpt>
      <trkpt lat="43.69077" lon="5.17716">
        <ele>253.44</ele>
        <time>2021-09-25T07:46:00Z</time>
      </trkpt>
      <trkpt lat="43.69079" lon="5.17715">
        <ele>253.44</ele>
        <time>2021-09-25T07:46:01Z</time>
      </trkpt>
      <trkpt lat="43.6908" lon="5.17714">
        <ele>253.93</ele>
        <time>2021-09-25T07:46:02Z</time>
      </trkpt>
      <trkpt lat="43.69081" lon="5.17712">
        <ele>253.93</ele>
        <time>2021-09-25T07:46:03Z</time>
      </trkpt>
      <trkpt lat="43.69082" lon="5.17709">
        <ele>254.41</ele>
        <time>2021-09-25T07:46:04Z</time>
      </trkpt>
      <trkpt lat="43.69083" lon="5.17707">
        <ele>254.41</ele>
        <time>2021-09-25T07:46:05Z</time>
      </trkpt>
      <trkpt lat="43.69084" lon="5.17705">
        <ele>254.89</ele>
        <time>2021-09-25T07:46:06Z</time>
      </trkpt>
      <trkpt lat="43.69085" lon="5.17702">
        <ele>255.37</ele>
        <time>2021-09-25T07:46:07Z</time>
      </trkpt>
      <trkpt lat="43.69102" lon="5.17648">
        <ele>258.25</ele>
        <time>2021-09-25T07:46:25Z</time>
      </trkpt>
      <trkpt lat="43.69104" lon="5.17646">
        <ele>258.73</ele>
        <time>2021-09-25T07:46:26Z</time>
      </trkpt>
      <trkpt lat="43.69107" lon="5.17644">
        <ele>258.73</ele>
        <time>2021-09-25T07:46:27Z</time>
      </trkpt>
      <trkpt lat="43.69138" lon="5.17636">
        <ele>262.58</ele>
        <time>2021-09-25T07:46:43Z</time>
      </trkpt>
      <trkpt lat="43.6914" lon="5.17635">
        <ele>262.58</ele>
        <time>2021-09-25T07:46:44Z</time>
      </trkpt>
      <trkpt lat="43.69141" lon="5.17633">
        <ele>262.58</ele>
        <time>2021-09-25T07:46:46Z</time>
      </trkpt>
      <trkpt lat="43.69142" lon="5.17631">
        <ele>263.06</ele>
        <time>2021-09-25T07:46:47Z</time>
      </trkpt>
      <trkpt lat="43.69143" lon="5.17629">
        <ele>263.54</ele>
        <time>2021-09-25T07:46:48Z</time>
      </trkpt>
      <trkpt lat="43.69143" lon="5.17626">
        <ele>264.02</ele>
        <time>2021-09-25T07:46:49Z</time>
      </trkpt>
      <trkpt lat="43.69144" lon="5.17624">
        <ele>264.5</ele>
        <time>2021-09-25T07:46:50Z</time>
      </trkpt>
      <trkpt lat="43.69144" lon="5.17622">
        <ele>265.46</ele>
        <time>2021-09-25T07:46:51Z</time>
      </trkpt>
      <trkpt lat="43.69144" lon="5.1762">
        <ele>265.94</ele>
        <time>2021-09-25T07:46:52Z</time>
      </trkpt>
      <trkpt lat="43.69144" lon="5.17618">
        <ele>266.42</ele>
        <time>2021-09-25T07:46:53Z</time>
      </trkpt>
      <trkpt lat="43.69144" lon="5.17616">
        <ele>266.9</ele>
        <time>2021-09-25T07:46:54Z</time>
      </trkpt>
      <trkpt lat="43.69144" lon="5.17614">
        <ele>267.38</ele>
        <time>2021-09-25T07:46:55Z</time>
      </trkpt>
      <trkpt lat="43.69143" lon="5.17612">
        <ele>267.86</ele>
        <time>2021-09-25T07:46:56Z</time>
      </trkpt>
      <trkpt lat="43.69142" lon="5.1761">
        <ele>268.35</ele>
        <time>2021-09-25T07:46:57Z</time>
      </trkpt>
      <trkpt lat="43.69137" lon="5.17602">
        <ele>272.67</ele>
        <time>2021-09-25T07:47:18Z</time>
      </trkpt>
      <trkpt lat="43.69136" lon="5.17598">
        <ele>273.15</ele>
        <time>2021-09-25T07:47:38Z</time>
      </trkpt>
      <trkpt lat="43.69144" lon="5.17596">
        <ele>273.15</ele>
        <time>2021-09-25T07:47:44Z</time>
      </trkpt>
      <trkpt lat="43.69153" lon="5.17602">
        <ele>273.63</ele>
        <time>2021-09-25T07:47:49Z</time>
      </trkpt>
      <trkpt lat="43.69156" lon="5.17605">
        <ele>273.63</ele>
        <time>2021-09-25T07:47:50Z</time>
      </trkpt>
      <trkpt lat="43.69157" lon="5.17606">
        <ele>273.63</ele>
        <time>2021-09-25T07:47:51Z</time>
      </trkpt>
      <trkpt lat="43.69158" lon="5.17609">
        <ele>273.63</ele>
        <time>2021-09-25T07:47:52Z</time>
      </trkpt>
      <trkpt lat="43.69159" lon="5.17612">
        <ele>274.11</ele>
        <time>2021-09-25T07:47:53Z</time>
      </trkpt>
      <trkpt lat="43.6916" lon="5.17655">
        <ele>278.44</ele>
        <time>2021-09-25T07:48:06Z</time>
      </trkpt>
      <trkpt lat="43.69158" lon="5.17671">
        <ele>278.44</ele>
        <time>2021-09-25T07:48:13Z</time>
      </trkpt>
      <trkpt lat="43.69155" lon="5.17681">
        <ele>278.92</ele>
        <time>2021-09-25T07:48:17Z</time>
      </trkpt>
      <trkpt lat="43.69163" lon="5.17699">
        <ele>282.28</ele>
        <time>2021-09-25T07:48:27Z</time>
      </trkpt>
      <trkpt lat="43.69163" lon="5.17706">
        <ele>283.25</ele>
        <time>2021-09-25T07:48:30Z</time>
      </trkpt>
      <trkpt lat="43.69165" lon="5.17709">
        <ele>283.73</ele>
        <time>2021-09-25T07:48:32Z</time>
      </trkpt>
      <trkpt lat="43.69185" lon="5.17685">
        <ele>288.05</ele>
        <time>2021-09-25T07:48:49Z</time>
      </trkpt>
      <trkpt lat="43.69205" lon="5.17641">
        <ele>290.46</ele>
        <time>2021-09-25T07:49:07Z</time>
      </trkpt>
      <trkpt lat="43.69228" lon="5.176">
        <ele>288.53</ele>
        <time>2021-09-25T07:49:22Z</time>
      </trkpt>
      <trkpt lat="43.6923" lon="5.17598">
        <ele>288.53</ele>
        <time>2021-09-25T07:49:23Z</time>
      </trkpt>
      <trkpt lat="43.69232" lon="5.17597">
        <ele>288.53</ele>
        <time>2021-09-25T07:49:24Z</time>
      </trkpt>
      <trkpt lat="43.69234" lon="5.17595">
        <ele>289.01</ele>
        <time>2021-09-25T07:49:25Z</time>
      </trkpt>
      <trkpt lat="43.69236" lon="5.17593">
        <ele>288.53</ele>
        <time>2021-09-25T07:49:26Z</time>
      </trkpt>
      <trkpt lat="43.69251" lon="5.17582">
        <ele>289.49</ele>
        <time>2021-09-25T07:49:43Z</time>
      </trkpt>
      <trkpt lat="43.69254" lon="5.17584">
        <ele>288.53</ele>
        <time>2021-09-25T07:49:48Z</time>
      </trkpt>
      <trkpt lat="43.69256" lon="5.17584">
        <ele>289.01</ele>
        <time>2021-09-25T07:49:49Z</time>
      </trkpt>
      <trkpt lat="43.69259" lon="5.17584">
        <ele>289.01</ele>
        <time>2021-09-25T07:49:50Z</time>
      </trkpt>
      <trkpt lat="43.69261" lon="5.17584">
        <ele>289.01</ele>
        <time>2021-09-25T07:49:51Z</time>
      </trkpt>
      <trkpt lat="43.69264" lon="5.17584">
        <ele>289.01</ele>
        <time>2021-09-25T07:49:52Z</time>
      </trkpt>
      <trkpt lat="43.69267" lon="5.17583">
        <ele>289.01</ele>
        <time>2021-09-25T07:49:53Z</time>
      </trkpt>
      <trkpt lat="43.6927" lon="5.17583">
        <ele>289.49</ele>
        <time>2021-09-25T07:49:54Z</time>
      </trkpt>
      <trkpt lat="43.69319" lon="5.17562">
        <ele>292.38</ele>
        <time>2021-09-25T07:50:15Z</time>
      </trkpt>
      <trkpt lat="43.69346" lon="5.17519">
        <ele>294.78</ele>
        <time>2021-09-25T07:50:34Z</time>
      </trkpt>
      <trkpt lat="43.69334" lon="5.17467">
        <ele>302.47</ele>
        <time>2021-09-25T07:50:54Z</time>
      </trkpt>
      <trkpt lat="43.69309" lon="5.17427">
        <ele>306.32</ele>
        <time>2021-09-25T07:51:13Z</time>
      </trkpt>
      <trkpt lat="43.69283" lon="5.17392">
        <ele>310.64</ele>
        <time>2021-09-25T07:51:31Z</time>
      </trkpt>
      <trkpt lat="43.69267" lon="5.17353">
        <ele>315.93</ele>
        <time>2021-09-25T07:51:49Z</time>
      </trkpt>
      <trkpt lat="43.69267" lon="5.17351">
        <ele>316.41</ele>
        <time>2021-09-25T07:51:50Z</time>
      </trkpt>
      <trkpt lat="43.69266" lon="5.17348">
        <ele>316.89</ele>
        <time>2021-09-25T07:51:51Z</time>
      </trkpt>
      <trkpt lat="43.69265" lon="5.17346">
        <ele>316.89</ele>
        <time>2021-09-25T07:51:52Z</time>
      </trkpt>
      <trkpt lat="43.69264" lon="5.17344">
        <ele>317.37</ele>
        <time>2021-09-25T07:51:53Z</time>
      </trkpt>
      <trkpt lat="43.69245" lon="5.17291">
        <ele>318.81</ele>
        <time>2021-09-25T07:52:11Z</time>
      </trkpt>
      <trkpt lat="43.69226" lon="5.1722">
        <ele>320.26</ele>
        <time>2021-09-25T07:52:29Z</time>
      </trkpt>
      <trkpt lat="43.69224" lon="5.17216">
        <ele>319.78</ele>
        <time>2021-09-25T07:52:30Z</time>
      </trkpt>
      <trkpt lat="43.69222" lon="5.17212">
        <ele>320.26</ele>
        <time>2021-09-25T07:52:31Z</time>
      </trkpt>
      <trkpt lat="43.69221" lon="5.17208">
        <ele>320.26</ele>
        <time>2021-09-25T07:52:32Z</time>
      </trkpt>
      <trkpt lat="43.69221" lon="5.17204">
        <ele>319.78</ele>
        <time>2021-09-25T07:52:33Z</time>
      </trkpt>
      <trkpt lat="43.69216" lon="5.17166">
        <ele>320.26</ele>
        <time>2021-09-25T07:52:43Z</time>
      </trkpt>
      <trkpt lat="43.69216" lon="5.17164">
        <ele>320.74</ele>
        <time>2021-09-25T07:52:44Z</time>
      </trkpt>
      <trkpt lat="43.69216" lon="5.17163">
        <ele>320.74</ele>
        <time>2021-09-25T07:52:45Z</time>
      </trkpt>
      <trkpt lat="43.69217" lon="5.17161">
        <ele>320.74</ele>
        <time>2021-09-25T07:52:46Z</time>
      </trkpt>
      <trkpt lat="43.69217" lon="5.17159">
        <ele>320.74</ele>
        <time>2021-09-25T07:52:47Z</time>
      </trkpt>
      <trkpt lat="43.69217" lon="5.17156">
        <ele>320.26</ele>
        <time>2021-09-25T07:52:48Z</time>
      </trkpt>
      <trkpt lat="43.69212" lon="5.17095">
        <ele>317.85</ele>
        <time>2021-09-25T07:53:05Z</time>
      </trkpt>
      <trkpt lat="43.69206" lon="5.17038">
        <ele>316.41</ele>
        <time>2021-09-25T07:53:23Z</time>
      </trkpt>
      <trkpt lat="43.69207" lon="5.17036">
        <ele>316.41</ele>
        <time>2021-09-25T07:53:24Z</time>
      </trkpt>
      <trkpt lat="43.69209" lon="5.17034">
        <ele>316.41</ele>
        <time>2021-09-25T07:53:25Z</time>
      </trkpt>
      <trkpt lat="43.69211" lon="5.17031">
        <ele>316.41</ele>
        <time>2021-09-25T07:53:26Z</time>
      </trkpt>
      <trkpt lat="43.69213" lon="5.17028">
        <ele>316.41</ele>
        <time>2021-09-25T07:53:27Z</time>
      </trkpt>
      <trkpt lat="43.69214" lon="5.17024">
        <ele>316.41</ele>
        <time>2021-09-25T07:53:28Z</time>
      </trkpt>
      <trkpt lat="43.69215" lon="5.17021">
        <ele>315.93</ele>
        <time>2021-09-25T07:53:29Z</time>
      </trkpt>
      <trkpt lat="43.69245" lon="5.16972">
        <ele>316.89</ele>
        <time>2021-09-25T07:53:48Z</time>
      </trkpt>
      <trkpt lat="43.6926" lon="5.16956">
        <ele>317.37</ele>
        <time>2021-09-25T07:53:58Z</time>
      </trkpt>
      <trkpt lat="43.6926" lon="5.16953">
        <ele>317.37</ele>
        <time>2021-09-25T07:53:59Z</time>
      </trkpt>
      <trkpt lat="43.6926" lon="5.16951">
        <ele>317.37</ele>
        <time>2021-09-25T07:54:00Z</time>
      </trkpt>
      <trkpt lat="43.69262" lon="5.16948">
        <ele>317.85</ele>
        <time>2021-09-25T07:54:01Z</time>
      </trkpt>
      <trkpt lat="43.69263" lon="5.16945">
        <ele>317.85</ele>
        <time>2021-09-25T07:54:02Z</time>
      </trkpt>
      <trkpt lat="43.69264" lon="5.16943">
        <ele>318.33</ele>
        <time>2021-09-25T07:54:03Z</time>
      </trkpt>
      <trkpt lat="43.69266" lon="5.1694">
        <ele>318.33</ele>
        <time>2021-09-25T07:54:04Z</time>
      </trkpt>
      <trkpt lat="43.69267" lon="5.16938">
        <ele>318.33</ele>
        <time>2021-09-25T07:54:05Z</time>
      </trkpt>
      <trkpt lat="43.69269" lon="5.16936">
        <ele>318.33</ele>
        <time>2021-09-25T07:54:06Z</time>
      </trkpt>
      <trkpt lat="43.69295" lon="5.16895">
        <ele>323.14</ele>
        <time>2021-09-25T07:54:24Z</time>
      </trkpt>
      <trkpt lat="43.69301" lon="5.16891">
        <ele>324.1</ele>
        <time>2021-09-25T07:54:27Z</time>
      </trkpt>
      <trkpt lat="43.69302" lon="5.16888">
        <ele>324.1</ele>
        <time>2021-09-25T07:54:28Z</time>
      </trkpt>
      <trkpt lat="43.69314" lon="5.16863">
        <ele>326.02</ele>
        <time>2021-09-25T07:54:38Z</time>
      </trkpt>
      <trkpt lat="43.69316" lon="5.16861">
        <ele>326.02</ele>
        <time>2021-09-25T07:54:39Z</time>
      </trkpt>
      <trkpt lat="43.69327" lon="5.16844">
        <ele>326.99</ele>
        <time>2021-09-25T07:54:46Z</time>
      </trkpt>
      <trkpt lat="43.69327" lon="5.16841">
        <ele>327.47</ele>
        <time>2021-09-25T07:54:47Z</time>
      </trkpt>
      <trkpt lat="43.69328" lon="5.16838">
        <ele>327.47</ele>
        <time>2021-09-25T07:54:48Z</time>
      </trkpt>
      <trkpt lat="43.69328" lon="5.16835">
        <ele>327.95</ele>
        <time>2021-09-25T07:54:49Z</time>
      </trkpt>
      <trkpt lat="43.69329" lon="5.16832">
        <ele>328.43</ele>
        <time>2021-09-25T07:54:50Z</time>
      </trkpt>
      <trkpt lat="43.69329" lon="5.16829">
        <ele>328.43</ele>
        <time>2021-09-25T07:54:51Z</time>
      </trkpt>
      <trkpt lat="43.6933" lon="5.16827">
        <ele>328.91</ele>
        <time>2021-09-25T07:54:52Z</time>
      </trkpt>
      <trkpt lat="43.69331" lon="5.16824">
        <ele>329.39</ele>
        <time>2021-09-25T07:54:53Z</time>
      </trkpt>
      <trkpt lat="43.69331" lon="5.16821">
        <ele>329.39</ele>
        <time>2021-09-25T07:54:54Z</time>
      </trkpt>
      <trkpt lat="43.69332" lon="5.16819">
        <ele>329.39</ele>
        <time>2021-09-25T07:54:55Z</time>
      </trkpt>
      <trkpt lat="43.69333" lon="5.16816">
        <ele>329.87</ele>
        <time>2021-09-25T07:54:56Z</time>
      </trkpt>
      <trkpt lat="43.69333" lon="5.16813">
        <ele>330.35</ele>
        <time>2021-09-25T07:54:57Z</time>
      </trkpt>
      <trkpt lat="43.69334" lon="5.16777">
        <ele>333.23</ele>
        <time>2021-09-25T07:55:07Z</time>
      </trkpt>
      <trkpt lat="43.69333" lon="5.16774">
        <ele>333.23</ele>
        <time>2021-09-25T07:55:08Z</time>
      </trkpt>
      <trkpt lat="43.69332" lon="5.16771">
        <ele>333.23</ele>
        <time>2021-09-25T07:55:09Z</time>
      </trkpt>
      <trkpt lat="43.69332" lon="5.16768">
        <ele>333.71</ele>
        <time>2021-09-25T07:55:10Z</time>
      </trkpt>
      <trkpt lat="43.69332" lon="5.16765">
        <ele>333.71</ele>
        <time>2021-09-25T07:55:11Z</time>
      </trkpt>
      <trkpt lat="43.69333" lon="5.16762">
        <ele>333.71</ele>
        <time>2021-09-25T07:55:12Z</time>
      </trkpt>
      <trkpt lat="43.69334" lon="5.1676">
        <ele>334.2</ele>
        <time>2021-09-25T07:55:13Z</time>
      </trkpt>
      <trkpt lat="43.69334" lon="5.16758">
        <ele>334.68</ele>
        <time>2021-09-25T07:55:14Z</time>
      </trkpt>
      <trkpt lat="43.69335" lon="5.16756">
        <ele>334.68</ele>
        <time>2021-09-25T07:55:15Z</time>
      </trkpt>
      <trkpt lat="43.69334" lon="5.16745">
        <ele>336.12</ele>
        <time>2021-09-25T07:55:29Z</time>
      </trkpt>
      <trkpt lat="43.69337" lon="5.16738">
        <ele>338.52</ele>
        <time>2021-09-25T07:55:45Z</time>
      </trkpt>
      <trkpt lat="43.69347" lon="5.16715">
        <ele>340.92</ele>
        <time>2021-09-25T07:56:01Z</time>
      </trkpt>
      <trkpt lat="43.69347" lon="5.16685">
        <ele>347.17</ele>
        <time>2021-09-25T07:56:15Z</time>
      </trkpt>
      <trkpt lat="43.69346" lon="5.16684">
        <ele>347.65</ele>
        <time>2021-09-25T07:56:16Z</time>
      </trkpt>
      <trkpt lat="43.69348" lon="5.16678">
        <ele>348.13</ele>
        <time>2021-09-25T07:56:20Z</time>
      </trkpt>
      <trkpt lat="43.69347" lon="5.16666">
        <ele>348.13</ele>
        <time>2021-09-25T07:56:36Z</time>
      </trkpt>
      <trkpt lat="43.69346" lon="5.16664">
        <ele>349.1</ele>
        <time>2021-09-25T07:56:42Z</time>
      </trkpt>
      <trkpt lat="43.69344" lon="5.16656">
        <ele>350.06</ele>
        <time>2021-09-25T07:56:53Z</time>
      </trkpt>
      <trkpt lat="43.69343" lon="5.16651">
        <ele>350.54</ele>
        <time>2021-09-25T07:56:55Z</time>
      </trkpt>
      <trkpt lat="43.69342" lon="5.16648">
        <ele>351.02</ele>
        <time>2021-09-25T07:56:56Z</time>
      </trkpt>
      <trkpt lat="43.69341" lon="5.16646">
        <ele>351.5</ele>
        <time>2021-09-25T07:56:57Z</time>
      </trkpt>
      <trkpt lat="43.69329" lon="5.16609">
        <ele>357.75</ele>
        <time>2021-09-25T07:57:14Z</time>
      </trkpt>
      <trkpt lat="43.69332" lon="5.16605">
        <ele>357.27</ele>
        <time>2021-09-25T07:58:00Z</time>
      </trkpt>
      <trkpt lat="43.69326" lon="5.16606">
        <ele>351.5</ele>
        <time>2021-09-25T07:58:28Z</time>
      </trkpt>
      <trkpt lat="43.69327" lon="5.16608">
        <ele>351.02</ele>
        <time>2021-09-25T07:58:45Z</time>
      </trkpt>
      <trkpt lat="43.69287" lon="5.16631">
        <ele>352.46</ele>
        <time>2021-09-25T07:59:02Z</time>
      </trkpt>
      <trkpt lat="43.6924" lon="5.16647">
        <ele>352.46</ele>
        <time>2021-09-25T07:59:21Z</time>
      </trkpt>
      <trkpt lat="43.69234" lon="5.16647">
        <ele>352.94</ele>
        <time>2021-09-25T07:59:30Z</time>
      </trkpt>
      <trkpt lat="43.69204" lon="5.16631">
        <ele>357.27</ele>
        <time>2021-09-25T07:59:47Z</time>
      </trkpt>
      <trkpt lat="43.69187" lon="5.16628">
        <ele>360.63</ele>
        <time>2021-09-25T07:59:57Z</time>
      </trkpt>
      <trkpt lat="43.69185" lon="5.16629">
        <ele>360.63</ele>
        <time>2021-09-25T07:59:58Z</time>
      </trkpt>
      <trkpt lat="43.69182" lon="5.16629">
        <ele>360.63</ele>
        <time>2021-09-25T07:59:59Z</time>
      </trkpt>
      <trkpt lat="43.6918" lon="5.16629">
        <ele>361.11</ele>
        <time>2021-09-25T08:00:00Z</time>
      </trkpt>
      <trkpt lat="43.69178" lon="5.1663">
        <ele>361.11</ele>
        <time>2021-09-25T08:00:01Z</time>
      </trkpt>
      <trkpt lat="43.69147" lon="5.16673">
        <ele>361.59</ele>
        <time>2021-09-25T08:00:19Z</time>
      </trkpt>
      <trkpt lat="43.69113" lon="5.16725">
        <ele>362.55</ele>
        <time>2021-09-25T08:00:38Z</time>
      </trkpt>
      <trkpt lat="43.69076" lon="5.16758">
        <ele>366.88</ele>
        <time>2021-09-25T08:00:57Z</time>
      </trkpt>
      <trkpt lat="43.69039" lon="5.16792">
        <ele>368.8</ele>
        <time>2021-09-25T08:01:15Z</time>
      </trkpt>
      <trkpt lat="43.69031" lon="5.16799">
        <ele>368.8</ele>
        <time>2021-09-25T08:01:21Z</time>
      </trkpt>
      <trkpt lat="43.6903" lon="5.16797">
        <ele>368.8</ele>
        <time>2021-09-25T08:01:33Z</time>
      </trkpt>
      <trkpt lat="43.69029" lon="5.16796">
        <ele>369.76</ele>
        <time>2021-09-25T08:01:47Z</time>
      </trkpt>
      <trkpt lat="43.6903" lon="5.16795">
        <ele>370.24</ele>
        <time>2021-09-25T08:01:48Z</time>
      </trkpt>
      <trkpt lat="43.69031" lon="5.16793">
        <ele>370.24</ele>
        <time>2021-09-25T08:01:49Z</time>
      </trkpt>
      <trkpt lat="43.69045" lon="5.16741">
        <ele>380.34</ele>
        <time>2021-09-25T08:02:08Z</time>
      </trkpt>
      <trkpt lat="43.69075" lon="5.16707">
        <ele>384.18</ele>
        <time>2021-09-25T08:02:27Z</time>
      </trkpt>
      <trkpt lat="43.69081" lon="5.16661">
        <ele>386.11</ele>
        <time>2021-09-25T08:02:45Z</time>
      </trkpt>
      <trkpt lat="43.6908" lon="5.16659">
        <ele>386.11</ele>
        <time>2021-09-25T08:02:59Z</time>
      </trkpt>
      <trkpt lat="43.69079" lon="5.16657">
        <ele>385.63</ele>
        <time>2021-09-25T08:03:41Z</time>
      </trkpt>
      <trkpt lat="43.69078" lon="5.16656">
        <ele>385.15</ele>
        <time>2021-09-25T08:03:42Z</time>
      </trkpt>
      <trkpt lat="43.69077" lon="5.16655">
        <ele>385.63</ele>
        <time>2021-09-25T08:03:43Z</time>
      </trkpt>
      <trkpt lat="43.69076" lon="5.16653">
        <ele>385.63</ele>
        <time>2021-09-25T08:03:44Z</time>
      </trkpt>
      <trkpt lat="43.69074" lon="5.1665">
        <ele>386.11</ele>
        <time>2021-09-25T08:03:45Z</time>
      </trkpt>
      <trkpt lat="43.69057" lon="5.1659">
        <ele>385.63</ele>
        <time>2021-09-25T08:04:04Z</time>
      </trkpt>
      <trkpt lat="43.69055" lon="5.16535">
        <ele>387.55</ele>
        <time>2021-09-25T08:04:19Z</time>
      </trkpt>
      <trkpt lat="43.69055" lon="5.16532">
        <ele>388.03</ele>
        <time>2021-09-25T08:04:20Z</time>
      </trkpt>
      <trkpt lat="43.69056" lon="5.16528">
        <ele>388.03</ele>
        <time>2021-09-25T08:04:21Z</time>
      </trkpt>
      <trkpt lat="43.69083" lon="5.16466">
        <ele>389.95</ele>
        <time>2021-09-25T08:04:40Z</time>
      </trkpt>
      <trkpt lat="43.69107" lon="5.16421">
        <ele>390.43</ele>
        <time>2021-09-25T08:04:55Z</time>
      </trkpt>
      <trkpt lat="43.69124" lon="5.16397">
        <ele>389.95</ele>
        <time>2021-09-25T08:05:04Z</time>
      </trkpt>
      <trkpt lat="43.69128" lon="5.16393">
        <ele>389.95</ele>
        <time>2021-09-25T08:05:06Z</time>
      </trkpt>
      <trkpt lat="43.6913" lon="5.1639">
        <ele>389.95</ele>
        <time>2021-09-25T08:05:07Z</time>
      </trkpt>
      <trkpt lat="43.69131" lon="5.16387">
        <ele>389.95</ele>
        <time>2021-09-25T08:05:08Z</time>
      </trkpt>
      <trkpt lat="43.69133" lon="5.16384">
        <ele>389.95</ele>
        <time>2021-09-25T08:05:09Z</time>
      </trkpt>
      <trkpt lat="43.69135" lon="5.16383">
        <ele>389.95</ele>
        <time>2021-09-25T08:05:10Z</time>
      </trkpt>
      <trkpt lat="43.69138" lon="5.16381">
        <ele>389.95</ele>
        <time>2021-09-25T08:05:11Z</time>
      </trkpt>
      <trkpt lat="43.69141" lon="5.16379">
        <ele>389.95</ele>
        <time>2021-09-25T08:05:12Z</time>
      </trkpt>
      <trkpt lat="43.69144" lon="5.16377">
        <ele>389.95</ele>
        <time>2021-09-25T08:05:13Z</time>
      </trkpt>
      <trkpt lat="43.69146" lon="5.16374">
        <ele>390.43</ele>
        <time>2021-09-25T08:05:14Z</time>
      </trkpt>
      <trkpt lat="43.69148" lon="5.16372">
        <ele>390.43</ele>
        <time>2021-09-25T08:05:15Z</time>
      </trkpt>
      <trkpt lat="43.6915" lon="5.16368">
        <ele>390.43</ele>
        <time>2021-09-25T08:05:16Z</time>
      </trkpt>
      <trkpt lat="43.69159" lon="5.16362">
        <ele>390.43</ele>
        <time>2021-09-25T08:05:19Z</time>
      </trkpt>
      <trkpt lat="43.69181" lon="5.16366">
        <ele>391.39</ele>
        <time>2021-09-25T08:05:30Z</time>
      </trkpt>
      <trkpt lat="43.69184" lon="5.16365">
        <ele>391.39</ele>
        <time>2021-09-25T08:05:31Z</time>
      </trkpt>
      <trkpt lat="43.69187" lon="5.16364">
        <ele>391.39</ele>
        <time>2021-09-25T08:05:32Z</time>
      </trkpt>
      <trkpt lat="43.69189" lon="5.16363">
        <ele>391.39</ele>
        <time>2021-09-25T08:05:33Z</time>
      </trkpt>
      <trkpt lat="43.69215" lon="5.16334">
        <ele>387.07</ele>
        <time>2021-09-25T08:05:52Z</time>
      </trkpt>
      <trkpt lat="43.69214" lon="5.16333">
        <ele>387.07</ele>
        <time>2021-09-25T08:06:34Z</time>
      </trkpt>
      <trkpt lat="43.69215" lon="5.16333">
        <ele>388.51</ele>
        <time>2021-09-25T08:07:16Z</time>
      </trkpt>
      <trkpt lat="43.69217" lon="5.16311">
        <ele>386.11</ele>
        <time>2021-09-25T08:07:47Z</time>
      </trkpt>
      <trkpt lat="43.69213" lon="5.16294">
        <ele>384.66</ele>
        <time>2021-09-25T08:07:50Z</time>
      </trkpt>
      <trkpt lat="43.69203" lon="5.16267">
        <ele>382.74</ele>
        <time>2021-09-25T08:07:54Z</time>
      </trkpt>
      <trkpt lat="43.69202" lon="5.16258">
        <ele>382.26</ele>
        <time>2021-09-25T08:07:55Z</time>
      </trkpt>
      <trkpt lat="43.69201" lon="5.1625">
        <ele>381.78</ele>
        <time>2021-09-25T08:07:56Z</time>
      </trkpt>
      <trkpt lat="43.69202" lon="5.16241">
        <ele>381.78</ele>
        <time>2021-09-25T08:07:57Z</time>
      </trkpt>
      <trkpt lat="43.69203" lon="5.16232">
        <ele>381.78</ele>
        <time>2021-09-25T08:07:58Z</time>
      </trkpt>
      <trkpt lat="43.69207" lon="5.16208">
        <ele>380.82</ele>
        <time>2021-09-25T08:08:01Z</time>
      </trkpt>
      <trkpt lat="43.6921" lon="5.16201">
        <ele>380.34</ele>
        <time>2021-09-25T08:08:02Z</time>
      </trkpt>
      <trkpt lat="43.69213" lon="5.16196">
        <ele>380.34</ele>
        <time>2021-09-25T08:08:03Z</time>
      </trkpt>
      <trkpt lat="43.69216" lon="5.16192">
        <ele>379.86</ele>
        <time>2021-09-25T08:08:04Z</time>
      </trkpt>
      <trkpt lat="43.69218" lon="5.16188">
        <ele>379.86</ele>
        <time>2021-09-25T08:08:05Z</time>
      </trkpt>
      <trkpt lat="43.6922" lon="5.16183">
        <ele>379.86</ele>
        <time>2021-09-25T08:08:06Z</time>
      </trkpt>
      <trkpt lat="43.69222" lon="5.16177">
        <ele>379.38</ele>
        <time>2021-09-25T08:08:07Z</time>
      </trkpt>
      <trkpt lat="43.69225" lon="5.16171">
        <ele>379.38</ele>
        <time>2021-09-25T08:08:08Z</time>
      </trkpt>
      <trkpt lat="43.69228" lon="5.16165">
        <ele>378.9</ele>
        <time>2021-09-25T08:08:09Z</time>
      </trkpt>
      <trkpt lat="43.69232" lon="5.1616">
        <ele>378.9</ele>
        <time>2021-09-25T08:08:10Z</time>
      </trkpt>
      <trkpt lat="43.69234" lon="5.16154">
        <ele>378.9</ele>
        <time>2021-09-25T08:08:11Z</time>
      </trkpt>
      <trkpt lat="43.69236" lon="5.16149">
        <ele>378.9</ele>
        <time>2021-09-25T08:08:12Z</time>
      </trkpt>
      <trkpt lat="43.69235" lon="5.16143">
        <ele>379.38</ele>
        <time>2021-09-25T08:08:13Z</time>
      </trkpt>
      <trkpt lat="43.69234" lon="5.16138">
        <ele>379.38</ele>
        <time>2021-09-25T08:08:14Z</time>
      </trkpt>
      <trkpt lat="43.69232" lon="5.16134">
        <ele>379.86</ele>
        <time>2021-09-25T08:08:15Z</time>
      </trkpt>
      <trkpt lat="43.6923" lon="5.1613">
        <ele>379.86</ele>
        <time>2021-09-25T08:08:16Z</time>
      </trkpt>
      <trkpt lat="43.69229" lon="5.16126">
        <ele>379.86</ele>
        <time>2021-09-25T08:08:17Z</time>
      </trkpt>
      <trkpt lat="43.69228" lon="5.16122">
        <ele>379.86</ele>
        <time>2021-09-25T08:08:18Z</time>
      </trkpt>
      <trkpt lat="43.69226" lon="5.16117">
        <ele>379.86</ele>
        <time>2021-09-25T08:08:19Z</time>
      </trkpt>
      <trkpt lat="43.69223" lon="5.16114">
        <ele>379.38</ele>
        <time>2021-09-25T08:08:20Z</time>
      </trkpt>
      <trkpt lat="43.692" lon="5.16084">
        <ele>378.42</ele>
        <time>2021-09-25T08:08:28Z</time>
      </trkpt>
      <trkpt lat="43.69199" lon="5.16078">
        <ele>378.42</ele>
        <time>2021-09-25T08:08:29Z</time>
      </trkpt>
      <trkpt lat="43.69197" lon="5.16066">
        <ele>378.42</ele>
        <time>2021-09-25T08:08:31Z</time>
      </trkpt>
      <trkpt lat="43.69196" lon="5.1606">
        <ele>377.94</ele>
        <time>2021-09-25T08:08:32Z</time>
      </trkpt>
      <trkpt lat="43.69193" lon="5.16056">
        <ele>377.94</ele>
        <time>2021-09-25T08:08:33Z</time>
      </trkpt>
      <trkpt lat="43.6919" lon="5.16051">
        <ele>377.94</ele>
        <time>2021-09-25T08:08:34Z</time>
      </trkpt>
      <trkpt lat="43.69186" lon="5.16047">
        <ele>377.94</ele>
        <time>2021-09-25T08:08:35Z</time>
      </trkpt>
      <trkpt lat="43.69182" lon="5.16043">
        <ele>377.45</ele>
        <time>2021-09-25T08:08:36Z</time>
      </trkpt>
      <trkpt lat="43.69178" lon="5.16039">
        <ele>377.45</ele>
        <time>2021-09-25T08:08:37Z</time>
      </trkpt>
      <trkpt lat="43.69173" lon="5.16035">
        <ele>376.97</ele>
        <time>2021-09-25T08:08:38Z</time>
      </trkpt>
      <trkpt lat="43.69167" lon="5.16033">
        <ele>376.49</ele>
        <time>2021-09-25T08:08:39Z</time>
      </trkpt>
      <trkpt lat="43.6915" lon="5.1602">
        <ele>376.49</ele>
        <time>2021-09-25T08:08:46Z</time>
      </trkpt>
      <trkpt lat="43.69147" lon="5.16018">
        <ele>376.49</ele>
        <time>2021-09-25T08:09:05Z</time>
      </trkpt>
      <trkpt lat="43.69134" lon="5.16021">
        <ele>376.01</ele>
        <time>2021-09-25T08:09:19Z</time>
      </trkpt>
      <trkpt lat="43.6912" lon="5.16035">
        <ele>371.69</ele>
        <time>2021-09-25T08:09:28Z</time>
      </trkpt>
      <trkpt lat="43.69075" lon="5.16048">
        <ele>367.36</ele>
        <time>2021-09-25T08:09:45Z</time>
      </trkpt>
      <trkpt lat="43.69062" lon="5.16059">
        <ele>362.55</ele>
        <time>2021-09-25T08:10:01Z</time>
      </trkpt>
      <trkpt lat="43.69062" lon="5.16088">
        <ele>357.75</ele>
        <time>2021-09-25T08:10:12Z</time>
      </trkpt>
      <trkpt lat="43.69053" lon="5.16106">
        <ele>352.46</ele>
        <time>2021-09-25T08:10:19Z</time>
      </trkpt>
      <trkpt lat="43.69052" lon="5.16132">
        <ele>350.54</ele>
        <time>2021-09-25T08:10:26Z</time>
      </trkpt>
      <trkpt lat="43.69045" lon="5.1615">
        <ele>347.17</ele>
        <time>2021-09-25T08:10:39Z</time>
      </trkpt>
      <trkpt lat="43.69045" lon="5.16154">
        <ele>346.21</ele>
        <time>2021-09-25T08:11:18Z</time>
      </trkpt>
      <trkpt lat="43.69044" lon="5.16154">
        <ele>346.21</ele>
        <time>2021-09-25T08:11:25Z</time>
      </trkpt>
      <trkpt lat="43.69036" lon="5.16153">
        <ele>346.21</ele>
        <time>2021-09-25T08:11:29Z</time>
      </trkpt>
      <trkpt lat="43.69025" lon="5.16153">
        <ele>343.33</ele>
        <time>2021-09-25T08:11:34Z</time>
      </trkpt>
      <trkpt lat="43.69011" lon="5.16131">
        <ele>341.89</ele>
        <time>2021-09-25T08:11:52Z</time>
      </trkpt>
      <trkpt lat="43.69009" lon="5.1613">
        <ele>341.89</ele>
        <time>2021-09-25T08:11:56Z</time>
      </trkpt>
      <trkpt lat="43.69008" lon="5.16128">
        <ele>341.89</ele>
        <time>2021-09-25T08:11:57Z</time>
      </trkpt>
      <trkpt lat="43.69005" lon="5.16126">
        <ele>341.89</ele>
        <time>2021-09-25T08:11:58Z</time>
      </trkpt>
      <trkpt lat="43.68965" lon="5.16086">
        <ele>335.64</ele>
        <time>2021-09-25T08:12:12Z</time>
      </trkpt>
      <trkpt lat="43.6896" lon="5.16083">
        <ele>335.64</ele>
        <time>2021-09-25T08:12:30Z</time>
      </trkpt>
      <trkpt lat="43.68955" lon="5.16082">
        <ele>335.64</ele>
        <time>2021-09-25T08:13:08Z</time>
      </trkpt>
      <trkpt lat="43.6894" lon="5.1608">
        <ele>334.2</ele>
        <time>2021-09-25T08:13:13Z</time>
      </trkpt>
      <trkpt lat="43.68938" lon="5.16078">
        <ele>333.71</ele>
        <time>2021-09-25T08:13:14Z</time>
      </trkpt>
      <trkpt lat="43.68935" lon="5.16076">
        <ele>332.75</ele>
        <time>2021-09-25T08:13:15Z</time>
      </trkpt>
      <trkpt lat="43.68933" lon="5.16075">
        <ele>332.75</ele>
        <time>2021-09-25T08:13:16Z</time>
      </trkpt>
      <trkpt lat="43.68931" lon="5.16073">
        <ele>331.31</ele>
        <time>2021-09-25T08:13:23Z</time>
      </trkpt>
      <trkpt lat="43.68929" lon="5.16072">
        <ele>331.31</ele>
        <time>2021-09-25T08:13:24Z</time>
      </trkpt>
      <trkpt lat="43.689" lon="5.16044">
        <ele>326.99</ele>
        <time>2021-09-25T08:13:38Z</time>
      </trkpt>
      <trkpt lat="43.68892" lon="5.16033">
        <ele>325.54</ele>
        <time>2021-09-25T08:13:41Z</time>
      </trkpt>
      <trkpt lat="43.68889" lon="5.16029">
        <ele>325.54</ele>
        <time>2021-09-25T08:13:42Z</time>
      </trkpt>
      <trkpt lat="43.68862" lon="5.16">
        <ele>323.62</ele>
        <time>2021-09-25T08:13:49Z</time>
      </trkpt>
      <trkpt lat="43.68859" lon="5.15995">
        <ele>323.62</ele>
        <time>2021-09-25T08:13:50Z</time>
      </trkpt>
      <trkpt lat="43.68856" lon="5.15989">
        <ele>323.62</ele>
        <time>2021-09-25T08:13:51Z</time>
      </trkpt>
      <trkpt lat="43.68853" lon="5.15978">
        <ele>323.14</ele>
        <time>2021-09-25T08:13:53Z</time>
      </trkpt>
      <trkpt lat="43.68853" lon="5.15972">
        <ele>322.66</ele>
        <time>2021-09-25T08:13:54Z</time>
      </trkpt>
      <trkpt lat="43.68853" lon="5.15966">
        <ele>322.18</ele>
        <time>2021-09-25T08:13:55Z</time>
      </trkpt>
      <trkpt lat="43.68853" lon="5.15961">
        <ele>322.18</ele>
        <time>2021-09-25T08:13:56Z</time>
      </trkpt>
      <trkpt lat="43.68853" lon="5.15955">
        <ele>322.18</ele>
        <time>2021-09-25T08:13:57Z</time>
      </trkpt>
      <trkpt lat="43.68838" lon="5.15875">
        <ele>317.37</ele>
        <time>2021-09-25T08:14:13Z</time>
      </trkpt>
      <trkpt lat="43.68827" lon="5.15801">
        <ele>311.12</ele>
        <time>2021-09-25T08:14:29Z</time>
      </trkpt>
      <trkpt lat="43.68821" lon="5.1573">
        <ele>305.36</ele>
        <time>2021-09-25T08:14:46Z</time>
      </trkpt>
      <trkpt lat="43.68815" lon="5.15704">
        <ele>303.91</ele>
        <time>2021-09-25T08:14:53Z</time>
      </trkpt>
      <trkpt lat="43.68814" lon="5.15698">
        <ele>303.91</ele>
        <time>2021-09-25T08:15:12Z</time>
      </trkpt>
      <trkpt lat="43.68812" lon="5.15705">
        <ele>304.88</ele>
        <time>2021-09-25T08:16:03Z</time>
      </trkpt>
      <trkpt lat="43.68813" lon="5.15697">
        <ele>305.84</ele>
        <time>2021-09-25T08:16:31Z</time>
      </trkpt>
      <trkpt lat="43.68812" lon="5.15698">
        <ele>307.76</ele>
        <time>2021-09-25T08:17:02Z</time>
      </trkpt>
      <trkpt lat="43.68813" lon="5.1569">
        <ele>306.8</ele>
        <time>2021-09-25T08:17:22Z</time>
      </trkpt>
      <trkpt lat="43.68808" lon="5.15626">
        <ele>303.43</ele>
        <time>2021-09-25T08:17:36Z</time>
      </trkpt>
      <trkpt lat="43.68807" lon="5.15611">
        <ele>302.95</ele>
        <time>2021-09-25T08:17:38Z</time>
      </trkpt>
      <trkpt lat="43.68806" lon="5.15603">
        <ele>302.47</ele>
        <time>2021-09-25T08:17:39Z</time>
      </trkpt>
      <trkpt lat="43.68806" lon="5.15587">
        <ele>301.51</ele>
        <time>2021-09-25T08:17:41Z</time>
      </trkpt>
      <trkpt lat="43.68806" lon="5.15571">
        <ele>300.07</ele>
        <time>2021-09-25T08:17:43Z</time>
      </trkpt>
      <trkpt lat="43.68805" lon="5.15564">
        <ele>299.59</ele>
        <time>2021-09-25T08:17:44Z</time>
      </trkpt>
      <trkpt lat="43.68804" lon="5.15526">
        <ele>296.22</ele>
        <time>2021-09-25T08:17:49Z</time>
      </trkpt>
      <trkpt lat="43.68804" lon="5.15519">
        <ele>295.74</ele>
        <time>2021-09-25T08:17:50Z</time>
      </trkpt>
      <trkpt lat="43.68805" lon="5.15512">
        <ele>295.26</ele>
        <time>2021-09-25T08:17:51Z</time>
      </trkpt>
      <trkpt lat="43.68806" lon="5.15504">
        <ele>294.78</ele>
        <time>2021-09-25T08:17:52Z</time>
      </trkpt>
      <trkpt lat="43.68807" lon="5.15497">
        <ele>293.82</ele>
        <time>2021-09-25T08:17:53Z</time>
      </trkpt>
      <trkpt lat="43.68808" lon="5.15482">
        <ele>292.86</ele>
        <time>2021-09-25T08:17:55Z</time>
      </trkpt>
      <trkpt lat="43.68809" lon="5.15475">
        <ele>292.86</ele>
        <time>2021-09-25T08:17:56Z</time>
      </trkpt>
      <trkpt lat="43.6881" lon="5.15469">
        <ele>292.38</ele>
        <time>2021-09-25T08:17:57Z</time>
      </trkpt>
      <trkpt lat="43.68811" lon="5.15463">
        <ele>291.9</ele>
        <time>2021-09-25T08:17:58Z</time>
      </trkpt>
      <trkpt lat="43.68813" lon="5.15457">
        <ele>291.42</ele>
        <time>2021-09-25T08:17:59Z</time>
      </trkpt>
      <trkpt lat="43.68815" lon="5.15452">
        <ele>290.46</ele>
        <time>2021-09-25T08:18:00Z</time>
      </trkpt>
      <trkpt lat="43.68821" lon="5.15433">
        <ele>288.53</ele>
        <time>2021-09-25T08:18:03Z</time>
      </trkpt>
      <trkpt lat="43.68823" lon="5.15428">
        <ele>287.57</ele>
        <time>2021-09-25T08:18:04Z</time>
      </trkpt>
      <trkpt lat="43.68825" lon="5.15423">
        <ele>286.61</ele>
        <time>2021-09-25T08:18:05Z</time>
      </trkpt>
      <trkpt lat="43.68837" lon="5.15373">
        <ele>282.28</ele>
        <time>2021-09-25T08:18:16Z</time>
      </trkpt>
      <trkpt lat="43.68849" lon="5.15345">
        <ele>278.92</ele>
        <time>2021-09-25T08:18:25Z</time>
      </trkpt>
      <trkpt lat="43.68848" lon="5.15342">
        <ele>278.44</ele>
        <time>2021-09-25T08:18:26Z</time>
      </trkpt>
      <trkpt lat="43.68848" lon="5.15338">
        <ele>277.48</ele>
        <time>2021-09-25T08:18:27Z</time>
      </trkpt>
      <trkpt lat="43.68849" lon="5.15334">
        <ele>277</ele>
        <time>2021-09-25T08:18:28Z</time>
      </trkpt>
      <trkpt lat="43.6885" lon="5.1533">
        <ele>276.52</ele>
        <time>2021-09-25T08:18:29Z</time>
      </trkpt>
      <trkpt lat="43.68853" lon="5.15269">
        <ele>269.79</ele>
        <time>2021-09-25T08:18:43Z</time>
      </trkpt>
      <trkpt lat="43.68854" lon="5.15248">
        <ele>268.35</ele>
        <time>2021-09-25T08:18:47Z</time>
      </trkpt>
      <trkpt lat="43.68856" lon="5.15244">
        <ele>268.35</ele>
        <time>2021-09-25T08:18:48Z</time>
      </trkpt>
      <trkpt lat="43.68859" lon="5.1524">
        <ele>268.35</ele>
        <time>2021-09-25T08:18:49Z</time>
      </trkpt>
      <trkpt lat="43.68861" lon="5.15236">
        <ele>268.35</ele>
        <time>2021-09-25T08:18:50Z</time>
      </trkpt>
      <trkpt lat="43.68863" lon="5.15232">
        <ele>267.86</ele>
        <time>2021-09-25T08:18:51Z</time>
      </trkpt>
      <trkpt lat="43.68863" lon="5.15227">
        <ele>267.86</ele>
        <time>2021-09-25T08:18:52Z</time>
      </trkpt>
      <trkpt lat="43.68863" lon="5.15222">
        <ele>267.86</ele>
        <time>2021-09-25T08:18:53Z</time>
      </trkpt>
      <trkpt lat="43.68864" lon="5.15165">
        <ele>260.65</ele>
        <time>2021-09-25T08:19:07Z</time>
      </trkpt>
      <trkpt lat="43.68864" lon="5.15156">
        <ele>260.65</ele>
        <time>2021-09-25T08:19:09Z</time>
      </trkpt>
      <trkpt lat="43.68865" lon="5.15152">
        <ele>260.65</ele>
        <time>2021-09-25T08:19:10Z</time>
      </trkpt>
      <trkpt lat="43.68867" lon="5.15149">
        <ele>261.14</ele>
        <time>2021-09-25T08:19:11Z</time>
      </trkpt>
      <trkpt lat="43.68879" lon="5.15133">
        <ele>263.54</ele>
        <time>2021-09-25T08:19:25Z</time>
      </trkpt>
      <trkpt lat="43.6888" lon="5.15134">
        <ele>264.5</ele>
        <time>2021-09-25T08:20:00Z</time>
      </trkpt>
      <trkpt lat="43.6888" lon="5.15132">
        <ele>264.5</ele>
        <time>2021-09-25T08:20:26Z</time>
      </trkpt>
      <trkpt lat="43.68882" lon="5.15131">
        <ele>265.94</ele>
        <time>2021-09-25T08:20:42Z</time>
      </trkpt>
      <trkpt lat="43.68888" lon="5.15108">
        <ele>264.5</ele>
        <time>2021-09-25T08:20:48Z</time>
      </trkpt>
      <trkpt lat="43.68889" lon="5.15102">
        <ele>264.5</ele>
        <time>2021-09-25T08:20:49Z</time>
      </trkpt>
      <trkpt lat="43.68891" lon="5.15096">
        <ele>264.02</ele>
        <time>2021-09-25T08:20:50Z</time>
      </trkpt>
      <trkpt lat="43.68893" lon="5.15083">
        <ele>263.54</ele>
        <time>2021-09-25T08:20:52Z</time>
      </trkpt>
      <trkpt lat="43.68896" lon="5.15077">
        <ele>263.54</ele>
        <time>2021-09-25T08:20:53Z</time>
      </trkpt>
      <trkpt lat="43.689" lon="5.15072">
        <ele>263.06</ele>
        <time>2021-09-25T08:20:54Z</time>
      </trkpt>
      <trkpt lat="43.68902" lon="5.1507">
        <ele>263.06</ele>
        <time>2021-09-25T08:20:55Z</time>
      </trkpt>
      <trkpt lat="43.68904" lon="5.15068">
        <ele>262.58</ele>
        <time>2021-09-25T08:20:56Z</time>
      </trkpt>
      <trkpt lat="43.68906" lon="5.15066">
        <ele>262.58</ele>
        <time>2021-09-25T08:20:57Z</time>
      </trkpt>
      <trkpt lat="43.68907" lon="5.15062">
        <ele>262.58</ele>
        <time>2021-09-25T08:20:58Z</time>
      </trkpt>
      <trkpt lat="43.68907" lon="5.15059">
        <ele>262.1</ele>
        <time>2021-09-25T08:20:59Z</time>
      </trkpt>
      <trkpt lat="43.68908" lon="5.15053">
        <ele>261.62</ele>
        <time>2021-09-25T08:21:01Z</time>
      </trkpt>
      <trkpt lat="43.68911" lon="5.1505">
        <ele>261.14</ele>
        <time>2021-09-25T08:21:02Z</time>
      </trkpt>
      <trkpt lat="43.68912" lon="5.15049">
        <ele>260.65</ele>
        <time>2021-09-25T08:21:03Z</time>
      </trkpt>
      <trkpt lat="43.68914" lon="5.15047">
        <ele>260.65</ele>
        <time>2021-09-25T08:21:04Z</time>
      </trkpt>
      <trkpt lat="43.68917" lon="5.15044">
        <ele>260.65</ele>
        <time>2021-09-25T08:21:05Z</time>
      </trkpt>
      <trkpt lat="43.68922" lon="5.15031">
        <ele>260.17</ele>
        <time>2021-09-25T08:21:08Z</time>
      </trkpt>
      <trkpt lat="43.6892" lon="5.15015">
        <ele>259.69</ele>
        <time>2021-09-25T08:21:11Z</time>
      </trkpt>
      <trkpt lat="43.68917" lon="5.15013">
        <ele>259.21</ele>
        <time>2021-09-25T08:21:12Z</time>
      </trkpt>
      <trkpt lat="43.68915" lon="5.15011">
        <ele>259.21</ele>
        <time>2021-09-25T08:21:13Z</time>
      </trkpt>
      <trkpt lat="43.68896" lon="5.15002">
        <ele>258.73</ele>
        <time>2021-09-25T08:21:21Z</time>
      </trkpt>
      <trkpt lat="43.68893" lon="5.15">
        <ele>258.25</ele>
        <time>2021-09-25T08:21:22Z</time>
      </trkpt>
      <trkpt lat="43.68889" lon="5.1499">
        <ele>257.77</ele>
        <time>2021-09-25T08:21:25Z</time>
      </trkpt>
      <trkpt lat="43.68889" lon="5.14988">
        <ele>257.77</ele>
        <time>2021-09-25T08:21:26Z</time>
      </trkpt>
      <trkpt lat="43.68889" lon="5.14976">
        <ele>255.85</ele>
        <time>2021-09-25T08:21:30Z</time>
      </trkpt>
      <trkpt lat="43.68891" lon="5.14974">
        <ele>255.85</ele>
        <time>2021-09-25T08:21:31Z</time>
      </trkpt>
      <trkpt lat="43.68892" lon="5.14973">
        <ele>255.85</ele>
        <time>2021-09-25T08:21:32Z</time>
      </trkpt>
      <trkpt lat="43.68894" lon="5.14972">
        <ele>255.85</ele>
        <time>2021-09-25T08:21:33Z</time>
      </trkpt>
      <trkpt lat="43.68894" lon="5.14971">
        <ele>255.37</ele>
        <time>2021-09-25T08:21:34Z</time>
      </trkpt>
      <trkpt lat="43.68895" lon="5.1497">
        <ele>255.37</ele>
        <time>2021-09-25T08:21:35Z</time>
      </trkpt>
      <trkpt lat="43.68896" lon="5.14968">
        <ele>255.37</ele>
        <time>2021-09-25T08:21:36Z</time>
      </trkpt>
      <trkpt lat="43.68897" lon="5.14967">
        <ele>255.37</ele>
        <time>2021-09-25T08:21:37Z</time>
      </trkpt>
      <trkpt lat="43.68897" lon="5.14965">
        <ele>255.37</ele>
        <time>2021-09-25T08:21:38Z</time>
      </trkpt>
      <trkpt lat="43.68896" lon="5.1496">
        <ele>254.89</ele>
        <time>2021-09-25T08:21:41Z</time>
      </trkpt>
      <trkpt lat="43.68895" lon="5.14959">
        <ele>254.89</ele>
        <time>2021-09-25T08:21:42Z</time>
      </trkpt>
      <trkpt lat="43.68893" lon="5.14961">
        <ele>255.37</ele>
        <time>2021-09-25T08:21:44Z</time>
      </trkpt>
      <trkpt lat="43.68893" lon="5.14962">
        <ele>255.37</ele>
        <time>2021-09-25T08:21:45Z</time>
      </trkpt>
      <trkpt lat="43.6889" lon="5.14971">
        <ele>256.33</ele>
        <time>2021-09-25T08:21:57Z</time>
      </trkpt>
      <trkpt lat="43.6888" lon="5.14979">
        <ele>255.85</ele>
        <time>2021-09-25T08:22:01Z</time>
      </trkpt>
      <trkpt lat="43.68877" lon="5.14977">
        <ele>255.85</ele>
        <time>2021-09-25T08:22:02Z</time>
      </trkpt>
      <trkpt lat="43.68874" lon="5.14973">
        <ele>255.37</ele>
        <time>2021-09-25T08:22:03Z</time>
      </trkpt>
      <trkpt lat="43.68873" lon="5.14969">
        <ele>254.89</ele>
        <time>2021-09-25T08:22:04Z</time>
      </trkpt>
      <trkpt lat="43.68873" lon="5.14964">
        <ele>254.41</ele>
        <time>2021-09-25T08:22:05Z</time>
      </trkpt>
      <trkpt lat="43.68875" lon="5.14961">
        <ele>254.41</ele>
        <time>2021-09-25T08:22:06Z</time>
      </trkpt>
      <trkpt lat="43.68877" lon="5.14957">
        <ele>253.93</ele>
        <time>2021-09-25T08:22:07Z</time>
      </trkpt>
      <trkpt lat="43.6888" lon="5.14954">
        <ele>253.93</ele>
        <time>2021-09-25T08:22:08Z</time>
      </trkpt>
      <trkpt lat="43.68912" lon="5.14906">
        <ele>250.56</ele>
        <time>2021-09-25T08:22:21Z</time>
      </trkpt>
      <trkpt lat="43.6895" lon="5.14844">
        <ele>250.08</ele>
        <time>2021-09-25T08:22:36Z</time>
      </trkpt>
      <trkpt lat="43.68953" lon="5.1484">
        <ele>250.08</ele>
        <time>2021-09-25T08:22:37Z</time>
      </trkpt>
      <trkpt lat="43.69005" lon="5.14791">
        <ele>251.52</ele>
        <time>2021-09-25T08:22:53Z</time>
      </trkpt>
      <trkpt lat="43.69027" lon="5.1479">
        <ele>254.89</ele>
        <time>2021-09-25T08:23:02Z</time>
      </trkpt>
      <trkpt lat="43.69028" lon="5.14789">
        <ele>254.89</ele>
        <time>2021-09-25T08:23:03Z</time>
      </trkpt>
      <trkpt lat="43.69033" lon="5.1479">
        <ele>254.89</ele>
        <time>2021-09-25T08:23:22Z</time>
      </trkpt>
      <trkpt lat="43.69049" lon="5.14761">
        <ele>254.89</ele>
        <time>2021-09-25T08:23:44Z</time>
      </trkpt>
      <trkpt lat="43.69058" lon="5.1475">
        <ele>254.89</ele>
        <time>2021-09-25T08:23:47Z</time>
      </trkpt>
      <trkpt lat="43.6906" lon="5.14745">
        <ele>254.89</ele>
        <time>2021-09-25T08:23:48Z</time>
      </trkpt>
      <trkpt lat="43.69109" lon="5.147">
        <ele>255.37</ele>
        <time>2021-09-25T08:24:06Z</time>
      </trkpt>
      <trkpt lat="43.69114" lon="5.14694">
        <ele>255.37</ele>
        <time>2021-09-25T08:24:10Z</time>
      </trkpt>
      <trkpt lat="43.6912" lon="5.147">
        <ele>255.37</ele>
        <time>2021-09-25T08:24:14Z</time>
      </trkpt>
      <trkpt lat="43.69119" lon="5.14714">
        <ele>255.37</ele>
        <time>2021-09-25T08:24:19Z</time>
      </trkpt>
      <trkpt lat="43.6911" lon="5.14734">
        <ele>252.48</ele>
        <time>2021-09-25T08:24:25Z</time>
      </trkpt>
      <trkpt lat="43.69109" lon="5.14742">
        <ele>250.56</ele>
        <time>2021-09-25T08:24:28Z</time>
      </trkpt>
      <trkpt lat="43.69139" lon="5.14714">
        <ele>251.04</ele>
        <time>2021-09-25T08:24:42Z</time>
      </trkpt>
      <trkpt lat="43.69157" lon="5.14702">
        <ele>250.56</ele>
        <time>2021-09-25T08:24:46Z</time>
      </trkpt>
      <trkpt lat="43.69162" lon="5.14702">
        <ele>250.56</ele>
        <time>2021-09-25T08:24:47Z</time>
      </trkpt>
      <trkpt lat="43.69164" lon="5.14701">
        <ele>250.08</ele>
        <time>2021-09-25T08:24:48Z</time>
      </trkpt>
      <trkpt lat="43.69167" lon="5.14698">
        <ele>250.08</ele>
        <time>2021-09-25T08:24:49Z</time>
      </trkpt>
      <trkpt lat="43.69169" lon="5.14695">
        <ele>250.08</ele>
        <time>2021-09-25T08:24:50Z</time>
      </trkpt>
      <trkpt lat="43.692" lon="5.14646">
        <ele>252</ele>
        <time>2021-09-25T08:25:03Z</time>
      </trkpt>
      <trkpt lat="43.69219" lon="5.14634">
        <ele>251.52</ele>
        <time>2021-09-25T08:25:08Z</time>
      </trkpt>
      <trkpt lat="43.69232" lon="5.14627">
        <ele>250.56</ele>
        <time>2021-09-25T08:25:11Z</time>
      </trkpt>
      <trkpt lat="43.69272" lon="5.14611">
        <ele>248.16</ele>
        <time>2021-09-25T08:25:23Z</time>
      </trkpt>
      <trkpt lat="43.69275" lon="5.14612">
        <ele>248.16</ele>
        <time>2021-09-25T08:25:24Z</time>
      </trkpt>
      <trkpt lat="43.69292" lon="5.14614">
        <ele>247.68</ele>
        <time>2021-09-25T08:25:29Z</time>
      </trkpt>
      <trkpt lat="43.69308" lon="5.14626">
        <ele>246.23</ele>
        <time>2021-09-25T08:25:34Z</time>
      </trkpt>
      <trkpt lat="43.69318" lon="5.14631">
        <ele>245.27</ele>
        <time>2021-09-25T08:25:36Z</time>
      </trkpt>
      <trkpt lat="43.69323" lon="5.14665">
        <ele>241.43</ele>
        <time>2021-09-25T08:25:45Z</time>
      </trkpt>
      <trkpt lat="43.69324" lon="5.14681">
        <ele>239.51</ele>
        <time>2021-09-25T08:25:48Z</time>
      </trkpt>
      <trkpt lat="43.69325" lon="5.14686">
        <ele>238.54</ele>
        <time>2021-09-25T08:25:49Z</time>
      </trkpt>
      <trkpt lat="43.69327" lon="5.14687">
        <ele>238.06</ele>
        <time>2021-09-25T08:25:50Z</time>
      </trkpt>
      <trkpt lat="43.6933" lon="5.14687">
        <ele>237.58</ele>
        <time>2021-09-25T08:25:51Z</time>
      </trkpt>
      <trkpt lat="43.69339" lon="5.14682">
        <ele>237.1</ele>
        <time>2021-09-25T08:25:54Z</time>
      </trkpt>
      <trkpt lat="43.69349" lon="5.14677">
        <ele>237.1</ele>
        <time>2021-09-25T08:26:07Z</time>
      </trkpt>
      <trkpt lat="43.6935" lon="5.14676">
        <ele>237.58</ele>
        <time>2021-09-25T08:26:08Z</time>
      </trkpt>
      <trkpt lat="43.69353" lon="5.14675">
        <ele>237.58</ele>
        <time>2021-09-25T08:26:09Z</time>
      </trkpt>
      <trkpt lat="43.69357" lon="5.14674">
        <ele>237.58</ele>
        <time>2021-09-25T08:26:10Z</time>
      </trkpt>
      <trkpt lat="43.6936" lon="5.14671">
        <ele>237.1</ele>
        <time>2021-09-25T08:26:11Z</time>
      </trkpt>
      <trkpt lat="43.69362" lon="5.14668">
        <ele>237.58</ele>
        <time>2021-09-25T08:26:12Z</time>
      </trkpt>
      <trkpt lat="43.69388" lon="5.14647">
        <ele>237.1</ele>
        <time>2021-09-25T08:26:20Z</time>
      </trkpt>
      <trkpt lat="43.69395" lon="5.14638">
        <ele>237.1</ele>
        <time>2021-09-25T08:26:22Z</time>
      </trkpt>
      <trkpt lat="43.69416" lon="5.14589">
        <ele>239.02</ele>
        <time>2021-09-25T08:26:33Z</time>
      </trkpt>
      <trkpt lat="43.69441" lon="5.14564">
        <ele>239.02</ele>
        <time>2021-09-25T08:26:40Z</time>
      </trkpt>
      <trkpt lat="43.69458" lon="5.1454">
        <ele>238.54</ele>
        <time>2021-09-25T08:26:46Z</time>
      </trkpt>
      <trkpt lat="43.69481" lon="5.1452">
        <ele>237.1</ele>
        <time>2021-09-25T08:26:55Z</time>
      </trkpt>
      <trkpt lat="43.69493" lon="5.14508">
        <ele>236.62</ele>
        <time>2021-09-25T08:26:58Z</time>
      </trkpt>
      <trkpt lat="43.69508" lon="5.14488">
        <ele>236.14</ele>
        <time>2021-09-25T08:27:02Z</time>
      </trkpt>
      <trkpt lat="43.69515" lon="5.14479">
        <ele>236.14</ele>
        <time>2021-09-25T08:27:04Z</time>
      </trkpt>
      <trkpt lat="43.69529" lon="5.14444">
        <ele>236.62</ele>
        <time>2021-09-25T08:27:10Z</time>
      </trkpt>
      <trkpt lat="43.69543" lon="5.14423">
        <ele>237.1</ele>
        <time>2021-09-25T08:27:15Z</time>
      </trkpt>
      <trkpt lat="43.69553" lon="5.14416">
        <ele>237.58</ele>
        <time>2021-09-25T08:27:17Z</time>
      </trkpt>
      <trkpt lat="43.69582" lon="5.1439">
        <ele>237.1</ele>
        <time>2021-09-25T08:27:23Z</time>
      </trkpt>
      <trkpt lat="43.69595" lon="5.14374">
        <ele>236.62</ele>
        <time>2021-09-25T08:27:28Z</time>
      </trkpt>
      <trkpt lat="43.69596" lon="5.14371">
        <ele>230.85</ele>
        <time>2021-09-25T08:27:45Z</time>
      </trkpt>
      <trkpt lat="43.69598" lon="5.14367">
        <ele>230.85</ele>
        <time>2021-09-25T08:27:49Z</time>
      </trkpt>
      <trkpt lat="43.69616" lon="5.14326">
        <ele>230.85</ele>
        <time>2021-09-25T08:28:00Z</time>
      </trkpt>
      <trkpt lat="43.69617" lon="5.14321">
        <ele>230.85</ele>
        <time>2021-09-25T08:28:01Z</time>
      </trkpt>
      <trkpt lat="43.69618" lon="5.14316">
        <ele>231.33</ele>
        <time>2021-09-25T08:28:02Z</time>
      </trkpt>
      <trkpt lat="43.69618" lon="5.14311">
        <ele>231.33</ele>
        <time>2021-09-25T08:28:03Z</time>
      </trkpt>
      <trkpt lat="43.69619" lon="5.14305">
        <ele>231.33</ele>
        <time>2021-09-25T08:28:04Z</time>
      </trkpt>
      <trkpt lat="43.69619" lon="5.14299">
        <ele>231.33</ele>
        <time>2021-09-25T08:28:05Z</time>
      </trkpt>
      <trkpt lat="43.69619" lon="5.14294">
        <ele>231.33</ele>
        <time>2021-09-25T08:28:06Z</time>
      </trkpt>
      <trkpt lat="43.69618" lon="5.14289">
        <ele>231.33</ele>
        <time>2021-09-25T08:28:07Z</time>
      </trkpt>
      <trkpt lat="43.69616" lon="5.14284">
        <ele>231.81</ele>
        <time>2021-09-25T08:28:08Z</time>
      </trkpt>
      <trkpt lat="43.69614" lon="5.14278">
        <ele>231.81</ele>
        <time>2021-09-25T08:28:09Z</time>
      </trkpt>
      <trkpt lat="43.69613" lon="5.14273">
        <ele>231.81</ele>
        <time>2021-09-25T08:28:10Z</time>
      </trkpt>
      <trkpt lat="43.69585" lon="5.14185">
        <ele>232.78</ele>
        <time>2021-09-25T08:28:29Z</time>
      </trkpt>
      <trkpt lat="43.69556" lon="5.14154">
        <ele>232.78</ele>
        <time>2021-09-25T08:28:39Z</time>
      </trkpt>
      <trkpt lat="43.69552" lon="5.14152">
        <ele>232.78</ele>
        <time>2021-09-25T08:28:40Z</time>
      </trkpt>
      <trkpt lat="43.69548" lon="5.14152">
        <ele>232.78</ele>
        <time>2021-09-25T08:28:41Z</time>
      </trkpt>
      <trkpt lat="43.69544" lon="5.14151">
        <ele>232.78</ele>
        <time>2021-09-25T08:28:42Z</time>
      </trkpt>
      <trkpt lat="43.6954" lon="5.14151">
        <ele>232.78</ele>
        <time>2021-09-25T08:28:43Z</time>
      </trkpt>
      <trkpt lat="43.69489" lon="5.14164">
        <ele>234.22</ele>
        <time>2021-09-25T08:28:59Z</time>
      </trkpt>
      <trkpt lat="43.69448" lon="5.14187">
        <ele>233.74</ele>
        <time>2021-09-25T08:29:14Z</time>
      </trkpt>
      <trkpt lat="43.69419" lon="5.14252">
        <ele>236.62</ele>
        <time>2021-09-25T08:29:32Z</time>
      </trkpt>
      <trkpt lat="43.69382" lon="5.14318">
        <ele>239.51</ele>
        <time>2021-09-25T08:29:51Z</time>
      </trkpt>
      <trkpt lat="43.6937" lon="5.14365">
        <ele>242.39</ele>
        <time>2021-09-25T08:30:05Z</time>
      </trkpt>
      <trkpt lat="43.69352" lon="5.14423">
        <ele>247.68</ele>
        <time>2021-09-25T08:30:23Z</time>
      </trkpt>
      <trkpt lat="43.69304" lon="5.14443">
        <ele>251.52</ele>
        <time>2021-09-25T08:30:40Z</time>
      </trkpt>
      <trkpt lat="43.6926" lon="5.14451">
        <ele>255.37</ele>
        <time>2021-09-25T08:30:57Z</time>
      </trkpt>
      <trkpt lat="43.69226" lon="5.14462">
        <ele>254.89</ele>
        <time>2021-09-25T08:31:10Z</time>
      </trkpt>
      <trkpt lat="43.69225" lon="5.1446">
        <ele>254.41</ele>
        <time>2021-09-25T08:31:11Z</time>
      </trkpt>
      <trkpt lat="43.69224" lon="5.14458">
        <ele>254.41</ele>
        <time>2021-09-25T08:31:12Z</time>
      </trkpt>
      <trkpt lat="43.69224" lon="5.14455">
        <ele>254.41</ele>
        <time>2021-09-25T08:31:14Z</time>
      </trkpt>
      <trkpt lat="43.69221" lon="5.14457">
        <ele>253.93</ele>
        <time>2021-09-25T08:31:28Z</time>
      </trkpt>
      <trkpt lat="43.6922" lon="5.14458">
        <ele>253.93</ele>
        <time>2021-09-25T08:31:29Z</time>
      </trkpt>
      <trkpt lat="43.69219" lon="5.1446">
        <ele>253.93</ele>
        <time>2021-09-25T08:31:30Z</time>
      </trkpt>
      <trkpt lat="43.69218" lon="5.14461">
        <ele>253.93</ele>
        <time>2021-09-25T08:31:31Z</time>
      </trkpt>
      <trkpt lat="43.69217" lon="5.14464">
        <ele>254.41</ele>
        <time>2021-09-25T08:31:32Z</time>
      </trkpt>
      <trkpt lat="43.69216" lon="5.14468">
        <ele>254.41</ele>
        <time>2021-09-25T08:31:33Z</time>
      </trkpt>
      <trkpt lat="43.69216" lon="5.14472">
        <ele>254.41</ele>
        <time>2021-09-25T08:31:34Z</time>
      </trkpt>
      <trkpt lat="43.69214" lon="5.14476">
        <ele>254.89</ele>
        <time>2021-09-25T08:31:35Z</time>
      </trkpt>
      <trkpt lat="43.69213" lon="5.14479">
        <ele>254.89</ele>
        <time>2021-09-25T08:31:36Z</time>
      </trkpt>
      <trkpt lat="43.69212" lon="5.14482">
        <ele>254.89</ele>
        <time>2021-09-25T08:31:37Z</time>
      </trkpt>
      <trkpt lat="43.69212" lon="5.14484">
        <ele>255.37</ele>
        <time>2021-09-25T08:31:38Z</time>
      </trkpt>
      <trkpt lat="43.69211" lon="5.14485">
        <ele>255.37</ele>
        <time>2021-09-25T08:31:39Z</time>
      </trkpt>
      <trkpt lat="43.69206" lon="5.14495">
        <ele>255.37</ele>
        <time>2021-09-25T08:31:45Z</time>
      </trkpt>
      <trkpt lat="43.69205" lon="5.14496">
        <ele>254.89</ele>
        <time>2021-09-25T08:31:46Z</time>
      </trkpt>
      <trkpt lat="43.69201" lon="5.14492">
        <ele>254.89</ele>
        <time>2021-09-25T08:31:52Z</time>
      </trkpt>
      <trkpt lat="43.69202" lon="5.14488">
        <ele>254.41</ele>
        <time>2021-09-25T08:31:54Z</time>
      </trkpt>
      <trkpt lat="43.69203" lon="5.14485">
        <ele>253.93</ele>
        <time>2021-09-25T08:31:55Z</time>
      </trkpt>
      <trkpt lat="43.69205" lon="5.14475">
        <ele>252.48</ele>
        <time>2021-09-25T08:32:02Z</time>
      </trkpt>
      <trkpt lat="43.69215" lon="5.14432">
        <ele>248.64</ele>
        <time>2021-09-25T08:32:17Z</time>
      </trkpt>
      <trkpt lat="43.69232" lon="5.14418">
        <ele>247.2</ele>
        <time>2021-09-25T08:32:34Z</time>
      </trkpt>
      <trkpt lat="43.69234" lon="5.14388">
        <ele>247.2</ele>
        <time>2021-09-25T08:32:40Z</time>
      </trkpt>
      <trkpt lat="43.69233" lon="5.14383">
        <ele>246.72</ele>
        <time>2021-09-25T08:32:41Z</time>
      </trkpt>
      <trkpt lat="43.69233" lon="5.14377">
        <ele>246.72</ele>
        <time>2021-09-25T08:32:42Z</time>
      </trkpt>
      <trkpt lat="43.69232" lon="5.14371">
        <ele>246.72</ele>
        <time>2021-09-25T08:32:43Z</time>
      </trkpt>
      <trkpt lat="43.69232" lon="5.14366">
        <ele>246.23</ele>
        <time>2021-09-25T08:32:44Z</time>
      </trkpt>
      <trkpt lat="43.69233" lon="5.14362">
        <ele>246.23</ele>
        <time>2021-09-25T08:32:45Z</time>
      </trkpt>
      <trkpt lat="43.69234" lon="5.14357">
        <ele>245.75</ele>
        <time>2021-09-25T08:32:46Z</time>
      </trkpt>
      <trkpt lat="43.69233" lon="5.14351">
        <ele>245.75</ele>
        <time>2021-09-25T08:32:47Z</time>
      </trkpt>
      <trkpt lat="43.69233" lon="5.14347">
        <ele>245.27</ele>
        <time>2021-09-25T08:32:48Z</time>
      </trkpt>
      <trkpt lat="43.69232" lon="5.14343">
        <ele>244.79</ele>
        <time>2021-09-25T08:32:49Z</time>
      </trkpt>
      <trkpt lat="43.69231" lon="5.14313">
        <ele>243.83</ele>
        <time>2021-09-25T08:32:55Z</time>
      </trkpt>
      <trkpt lat="43.69233" lon="5.14308">
        <ele>243.83</ele>
        <time>2021-09-25T08:32:56Z</time>
      </trkpt>
      <trkpt lat="43.6924" lon="5.14283">
        <ele>242.87</ele>
        <time>2021-09-25T08:33:00Z</time>
      </trkpt>
      <trkpt lat="43.69242" lon="5.14276">
        <ele>242.39</ele>
        <time>2021-09-25T08:33:01Z</time>
      </trkpt>
      <trkpt lat="43.69244" lon="5.1427">
        <ele>241.91</ele>
        <time>2021-09-25T08:33:02Z</time>
      </trkpt>
      <trkpt lat="43.69244" lon="5.14264">
        <ele>241.91</ele>
        <time>2021-09-25T08:33:03Z</time>
      </trkpt>
      <trkpt lat="43.69244" lon="5.14258">
        <ele>241.43</ele>
        <time>2021-09-25T08:33:04Z</time>
      </trkpt>
      <trkpt lat="43.69242" lon="5.14253">
        <ele>241.43</ele>
        <time>2021-09-25T08:33:05Z</time>
      </trkpt>
      <trkpt lat="43.69241" lon="5.14248">
        <ele>240.95</ele>
        <time>2021-09-25T08:33:06Z</time>
      </trkpt>
      <trkpt lat="43.69238" lon="5.14238">
        <ele>240.95</ele>
        <time>2021-09-25T08:33:08Z</time>
      </trkpt>
      <trkpt lat="43.69231" lon="5.14205">
        <ele>240.95</ele>
        <time>2021-09-25T08:33:15Z</time>
      </trkpt>
      <trkpt lat="43.69196" lon="5.14171">
        <ele>247.2</ele>
        <time>2021-09-25T08:33:32Z</time>
      </trkpt>
      <trkpt lat="43.69193" lon="5.14166">
        <ele>249.12</ele>
        <time>2021-09-25T08:33:37Z</time>
      </trkpt>
      <trkpt lat="43.69192" lon="5.14158">
        <ele>252.96</ele>
        <time>2021-09-25T08:34:03Z</time>
      </trkpt>
      <trkpt lat="43.69193" lon="5.14154">
        <ele>253.44</ele>
        <time>2021-09-25T08:34:07Z</time>
      </trkpt>
      <trkpt lat="43.69197" lon="5.14148">
        <ele>253.44</ele>
        <time>2021-09-25T08:34:10Z</time>
      </trkpt>
      <trkpt lat="43.69227" lon="5.14095">
        <ele>252</ele>
        <time>2021-09-25T08:34:26Z</time>
      </trkpt>
      <trkpt lat="43.69252" lon="5.14053">
        <ele>251.52</ele>
        <time>2021-09-25T08:34:36Z</time>
      </trkpt>
      <trkpt lat="43.69267" lon="5.14032">
        <ele>250.08</ele>
        <time>2021-09-25T08:34:40Z</time>
      </trkpt>
      <trkpt lat="43.6927" lon="5.14025">
        <ele>249.6</ele>
        <time>2021-09-25T08:34:41Z</time>
      </trkpt>
      <trkpt lat="43.69275" lon="5.14011">
        <ele>249.12</ele>
        <time>2021-09-25T08:34:43Z</time>
      </trkpt>
      <trkpt lat="43.69292" lon="5.1398">
        <ele>248.16</ele>
        <time>2021-09-25T08:34:48Z</time>
      </trkpt>
      <trkpt lat="43.69296" lon="5.13968">
        <ele>247.2</ele>
        <time>2021-09-25T08:34:50Z</time>
      </trkpt>
      <trkpt lat="43.69296" lon="5.13962">
        <ele>247.2</ele>
        <time>2021-09-25T08:34:51Z</time>
      </trkpt>
      <trkpt lat="43.69297" lon="5.13955">
        <ele>247.2</ele>
        <time>2021-09-25T08:34:52Z</time>
      </trkpt>
      <trkpt lat="43.69298" lon="5.1395">
        <ele>246.72</ele>
        <time>2021-09-25T08:34:53Z</time>
      </trkpt>
      <trkpt lat="43.693" lon="5.13945">
        <ele>246.72</ele>
        <time>2021-09-25T08:34:54Z</time>
      </trkpt>
      <trkpt lat="43.69303" lon="5.13939">
        <ele>246.72</ele>
        <time>2021-09-25T08:34:55Z</time>
      </trkpt>
      <trkpt lat="43.69305" lon="5.13934">
        <ele>247.2</ele>
        <time>2021-09-25T08:34:56Z</time>
      </trkpt>
      <trkpt lat="43.69306" lon="5.13928">
        <ele>247.2</ele>
        <time>2021-09-25T08:34:57Z</time>
      </trkpt>
      <trkpt lat="43.69306" lon="5.13922">
        <ele>247.2</ele>
        <time>2021-09-25T08:34:58Z</time>
      </trkpt>
      <trkpt lat="43.69305" lon="5.13916">
        <ele>247.2</ele>
        <time>2021-09-25T08:34:59Z</time>
      </trkpt>
      <trkpt lat="43.69304" lon="5.13911">
        <ele>247.2</ele>
        <time>2021-09-25T08:35:00Z</time>
      </trkpt>
      <trkpt lat="43.69303" lon="5.13905">
        <ele>247.68</ele>
        <time>2021-09-25T08:35:01Z</time>
      </trkpt>
      <trkpt lat="43.69293" lon="5.13826">
        <ele>247.2</ele>
        <time>2021-09-25T08:35:14Z</time>
      </trkpt>
      <trkpt lat="43.69287" lon="5.13813">
        <ele>246.72</ele>
        <time>2021-09-25T08:35:16Z</time>
      </trkpt>
      <trkpt lat="43.69284" lon="5.13808">
        <ele>246.72</ele>
        <time>2021-09-25T08:35:17Z</time>
      </trkpt>
      <trkpt lat="43.6928" lon="5.13804">
        <ele>246.72</ele>
        <time>2021-09-25T08:35:18Z</time>
      </trkpt>
      <trkpt lat="43.69264" lon="5.13777">
        <ele>244.31</ele>
        <time>2021-09-25T08:35:23Z</time>
      </trkpt>
      <trkpt lat="43.6926" lon="5.13774">
        <ele>243.83</ele>
        <time>2021-09-25T08:35:24Z</time>
      </trkpt>
      <trkpt lat="43.69255" lon="5.13773">
        <ele>242.87</ele>
        <time>2021-09-25T08:35:25Z</time>
      </trkpt>
      <trkpt lat="43.6925" lon="5.1377">
        <ele>242.39</ele>
        <time>2021-09-25T08:35:26Z</time>
      </trkpt>
      <trkpt lat="43.6924" lon="5.13764">
        <ele>240.47</ele>
        <time>2021-09-25T08:35:28Z</time>
      </trkpt>
      <trkpt lat="43.69236" lon="5.13763">
        <ele>239.99</ele>
        <time>2021-09-25T08:35:29Z</time>
      </trkpt>
      <trkpt lat="43.69231" lon="5.13763">
        <ele>239.02</ele>
        <time>2021-09-25T08:35:30Z</time>
      </trkpt>
      <trkpt lat="43.69227" lon="5.13763">
        <ele>238.54</ele>
        <time>2021-09-25T08:35:31Z</time>
      </trkpt>
      <trkpt lat="43.69222" lon="5.13764">
        <ele>238.06</ele>
        <time>2021-09-25T08:35:32Z</time>
      </trkpt>
      <trkpt lat="43.69209" lon="5.13763">
        <ele>237.1</ele>
        <time>2021-09-25T08:35:35Z</time>
      </trkpt>
      <trkpt lat="43.69205" lon="5.13761">
        <ele>236.62</ele>
        <time>2021-09-25T08:35:36Z</time>
      </trkpt>
      <trkpt lat="43.69197" lon="5.13758">
        <ele>236.62</ele>
        <time>2021-09-25T08:35:38Z</time>
      </trkpt>
      <trkpt lat="43.69193" lon="5.13758">
        <ele>236.14</ele>
        <time>2021-09-25T08:35:39Z</time>
      </trkpt>
      <trkpt lat="43.69189" lon="5.13759">
        <ele>235.66</ele>
        <time>2021-09-25T08:35:40Z</time>
      </trkpt>
      <trkpt lat="43.69186" lon="5.13763">
        <ele>235.66</ele>
        <time>2021-09-25T08:35:41Z</time>
      </trkpt>
      <trkpt lat="43.69183" lon="5.13766">
        <ele>235.18</ele>
        <time>2021-09-25T08:35:42Z</time>
      </trkpt>
      <trkpt lat="43.69172" lon="5.13775">
        <ele>234.7</ele>
        <time>2021-09-25T08:35:46Z</time>
      </trkpt>
      <trkpt lat="43.6917" lon="5.13774">
        <ele>235.66</ele>
        <time>2021-09-25T08:35:47Z</time>
      </trkpt>
      <trkpt lat="43.69168" lon="5.13774">
        <ele>235.66</ele>
        <time>2021-09-25T08:35:48Z</time>
      </trkpt>
      <trkpt lat="43.69166" lon="5.13775">
        <ele>236.14</ele>
        <time>2021-09-25T08:35:49Z</time>
      </trkpt>
      <trkpt lat="43.69164" lon="5.13776">
        <ele>236.14</ele>
        <time>2021-09-25T08:35:50Z</time>
      </trkpt>
      <trkpt lat="43.69162" lon="5.13778">
        <ele>236.14</ele>
        <time>2021-09-25T08:35:51Z</time>
      </trkpt>
      <trkpt lat="43.69156" lon="5.13779">
        <ele>235.66</ele>
        <time>2021-09-25T08:35:54Z</time>
      </trkpt>
      <trkpt lat="43.69144" lon="5.13743">
        <ele>234.7</ele>
        <time>2021-09-25T08:36:03Z</time>
      </trkpt>
      <trkpt lat="43.69139" lon="5.13719">
        <ele>233.26</ele>
        <time>2021-09-25T08:36:07Z</time>
      </trkpt>
      <trkpt lat="43.69136" lon="5.13707">
        <ele>232.78</ele>
        <time>2021-09-25T08:36:09Z</time>
      </trkpt>
      <trkpt lat="43.69116" lon="5.13655">
        <ele>231.81</ele>
        <time>2021-09-25T08:36:18Z</time>
      </trkpt>
      <trkpt lat="43.6911" lon="5.13628">
        <ele>230.85</ele>
        <time>2021-09-25T08:36:22Z</time>
      </trkpt>
      <trkpt lat="43.69093" lon="5.13612">
        <ele>230.37</ele>
        <time>2021-09-25T08:36:27Z</time>
      </trkpt>
      <trkpt lat="43.69073" lon="5.13591">
        <ele>231.33</ele>
        <time>2021-09-25T08:36:34Z</time>
      </trkpt>
      <trkpt lat="43.69069" lon="5.1359">
        <ele>231.33</ele>
        <time>2021-09-25T08:36:35Z</time>
      </trkpt>
      <trkpt lat="43.69066" lon="5.13592">
        <ele>231.33</ele>
        <time>2021-09-25T08:36:36Z</time>
      </trkpt>
      <trkpt lat="43.69062" lon="5.13593">
        <ele>231.33</ele>
        <time>2021-09-25T08:36:37Z</time>
      </trkpt>
      <trkpt lat="43.69058" lon="5.13594">
        <ele>231.33</ele>
        <time>2021-09-25T08:36:38Z</time>
      </trkpt>
      <trkpt lat="43.69054" lon="5.13595">
        <ele>231.33</ele>
        <time>2021-09-25T08:36:39Z</time>
      </trkpt>
      <trkpt lat="43.6905" lon="5.13595">
        <ele>231.33</ele>
        <time>2021-09-25T08:36:40Z</time>
      </trkpt>
      <trkpt lat="43.69024" lon="5.136">
        <ele>230.85</ele>
        <time>2021-09-25T08:36:46Z</time>
      </trkpt>
      <trkpt lat="43.6902" lon="5.13599">
        <ele>230.85</ele>
        <time>2021-09-25T08:36:47Z</time>
      </trkpt>
      <trkpt lat="43.69011" lon="5.13597">
        <ele>230.85</ele>
        <time>2021-09-25T08:36:49Z</time>
      </trkpt>
      <trkpt lat="43.6899" lon="5.13596">
        <ele>230.85</ele>
        <time>2021-09-25T08:36:56Z</time>
      </trkpt>
      <trkpt lat="43.68979" lon="5.13597">
        <ele>231.33</ele>
        <time>2021-09-25T08:37:04Z</time>
      </trkpt>
      <trkpt lat="43.68977" lon="5.13598">
        <ele>231.33</ele>
        <time>2021-09-25T08:37:05Z</time>
      </trkpt>
      <trkpt lat="43.68974" lon="5.13599">
        <ele>231.33</ele>
        <time>2021-09-25T08:37:06Z</time>
      </trkpt>
      <trkpt lat="43.68941" lon="5.13612">
        <ele>231.33</ele>
        <time>2021-09-25T08:37:25Z</time>
      </trkpt>
      <trkpt lat="43.68878" lon="5.13643">
        <ele>231.33</ele>
        <time>2021-09-25T08:37:47Z</time>
      </trkpt>
      <trkpt lat="43.6879" lon="5.13673">
        <ele>230.85</ele>
        <time>2021-09-25T08:38:14Z</time>
      </trkpt>
      <trkpt lat="43.68735" lon="5.13677">
        <ele>229.41</ele>
        <time>2021-09-25T08:38:30Z</time>
      </trkpt>
      <trkpt lat="43.68686" lon="5.13655">
        <ele>227.97</ele>
        <time>2021-09-25T08:38:45Z</time>
      </trkpt>
      <trkpt lat="43.68683" lon="5.13658">
        <ele>227.97</ele>
        <time>2021-09-25T08:38:46Z</time>
      </trkpt>
      <trkpt lat="43.68642" lon="5.13651">
        <ele>227.49</ele>
        <time>2021-09-25T08:39:00Z</time>
      </trkpt>
      <trkpt lat="43.68578" lon="5.13704">
        <ele>227.49</ele>
        <time>2021-09-25T08:39:18Z</time>
      </trkpt>
      <trkpt lat="43.68471" lon="5.13797">
        <ele>226.53</ele>
        <time>2021-09-25T08:39:45Z</time>
      </trkpt>
      <trkpt lat="43.68375" lon="5.13865">
        <ele>226.53</ele>
        <time>2021-09-25T08:40:09Z</time>
      </trkpt>
      <trkpt lat="43.68265" lon="5.13916">
        <ele>227.97</ele>
        <time>2021-09-25T08:40:35Z</time>
      </trkpt>
      <trkpt lat="43.68176" lon="5.13965">
        <ele>229.89</ele>
        <time>2021-09-25T08:40:57Z</time>
      </trkpt>
      <trkpt lat="43.68094" lon="5.13986">
        <ele>233.74</ele>
        <time>2021-09-25T08:41:19Z</time>
      </trkpt>
      <trkpt lat="43.68053" lon="5.1399">
        <ele>239.51</ele>
        <time>2021-09-25T08:41:33Z</time>
      </trkpt>
      <trkpt lat="43.6801" lon="5.14012">
        <ele>242.39</ele>
        <time>2021-09-25T08:41:48Z</time>
      </trkpt>
      <trkpt lat="43.6794" lon="5.14055">
        <ele>245.27</ele>
        <time>2021-09-25T08:42:11Z</time>
      </trkpt>
      <trkpt lat="43.67881" lon="5.14087">
        <ele>250.56</ele>
        <time>2021-09-25T08:42:33Z</time>
      </trkpt>
      <trkpt lat="43.6788" lon="5.14087">
        <ele>250.56</ele>
        <time>2021-09-25T08:42:34Z</time>
      </trkpt>
      <trkpt lat="43.67875" lon="5.14087">
        <ele>252</ele>
        <time>2021-09-25T08:42:54Z</time>
      </trkpt>
      <trkpt lat="43.67873" lon="5.14085">
        <ele>251.52</ele>
        <time>2021-09-25T08:43:33Z</time>
      </trkpt>
      <trkpt lat="43.67872" lon="5.14083">
        <ele>251.52</ele>
        <time>2021-09-25T08:43:34Z</time>
      </trkpt>
      <trkpt lat="43.67867" lon="5.14058">
        <ele>251.52</ele>
        <time>2021-09-25T08:43:40Z</time>
      </trkpt>
      <trkpt lat="43.67866" lon="5.14053">
        <ele>251.04</ele>
        <time>2021-09-25T08:43:41Z</time>
      </trkpt>
      <trkpt lat="43.67865" lon="5.14047">
        <ele>251.04</ele>
        <time>2021-09-25T08:43:42Z</time>
      </trkpt>
      <trkpt lat="43.67866" lon="5.14042">
        <ele>251.04</ele>
        <time>2021-09-25T08:43:43Z</time>
      </trkpt>
      <trkpt lat="43.67869" lon="5.14038">
        <ele>250.56</ele>
        <time>2021-09-25T08:43:44Z</time>
      </trkpt>
      <trkpt lat="43.67871" lon="5.14034">
        <ele>250.56</ele>
        <time>2021-09-25T08:43:45Z</time>
      </trkpt>
      <trkpt lat="43.67874" lon="5.14031">
        <ele>250.56</ele>
        <time>2021-09-25T08:43:46Z</time>
      </trkpt>
      <trkpt lat="43.67878" lon="5.14029">
        <ele>250.56</ele>
        <time>2021-09-25T08:43:47Z</time>
      </trkpt>
      <trkpt lat="43.67881" lon="5.14025">
        <ele>251.04</ele>
        <time>2021-09-25T08:43:48Z</time>
      </trkpt>
      <trkpt lat="43.67882" lon="5.14021">
        <ele>251.04</ele>
        <time>2021-09-25T08:43:49Z</time>
      </trkpt>
      <trkpt lat="43.67884" lon="5.14016">
        <ele>250.56</ele>
        <time>2021-09-25T08:43:50Z</time>
      </trkpt>
      <trkpt lat="43.67886" lon="5.1401">
        <ele>250.56</ele>
        <time>2021-09-25T08:43:51Z</time>
      </trkpt>
      <trkpt lat="43.67889" lon="5.14004">
        <ele>250.08</ele>
        <time>2021-09-25T08:43:52Z</time>
      </trkpt>
      <trkpt lat="43.6789" lon="5.13997">
        <ele>249.6</ele>
        <time>2021-09-25T08:43:53Z</time>
      </trkpt>
      <trkpt lat="43.67891" lon="5.1399">
        <ele>249.6</ele>
        <time>2021-09-25T08:43:54Z</time>
      </trkpt>
      <trkpt lat="43.67893" lon="5.13984">
        <ele>249.6</ele>
        <time>2021-09-25T08:43:55Z</time>
      </trkpt>
      <trkpt lat="43.67896" lon="5.1398">
        <ele>249.12</ele>
        <time>2021-09-25T08:43:56Z</time>
      </trkpt>
      <trkpt lat="43.67899" lon="5.13976">
        <ele>249.12</ele>
        <time>2021-09-25T08:43:57Z</time>
      </trkpt>
      <trkpt lat="43.67901" lon="5.13973">
        <ele>249.12</ele>
        <time>2021-09-25T08:43:58Z</time>
      </trkpt>
      <trkpt lat="43.67903" lon="5.1397">
        <ele>249.12</ele>
        <time>2021-09-25T08:43:59Z</time>
      </trkpt>
      <trkpt lat="43.67905" lon="5.13967">
        <ele>249.12</ele>
        <time>2021-09-25T08:44:00Z</time>
      </trkpt>
      <trkpt lat="43.67905" lon="5.13964">
        <ele>248.64</ele>
        <time>2021-09-25T08:44:01Z</time>
      </trkpt>
      <trkpt lat="43.67906" lon="5.13961">
        <ele>248.64</ele>
        <time>2021-09-25T08:44:02Z</time>
      </trkpt>
      <trkpt lat="43.67905" lon="5.13949">
        <ele>248.64</ele>
        <time>2021-09-25T08:44:06Z</time>
      </trkpt>
      <trkpt lat="43.67896" lon="5.13885">
        <ele>252</ele>
        <time>2021-09-25T08:44:20Z</time>
      </trkpt>
      <trkpt lat="43.67902" lon="5.13821">
        <ele>258.25</ele>
        <time>2021-09-25T08:44:35Z</time>
      </trkpt>
      <trkpt lat="43.67908" lon="5.13773">
        <ele>259.69</ele>
        <time>2021-09-25T08:44:45Z</time>
      </trkpt>
      <trkpt lat="43.67909" lon="5.13767">
        <ele>259.69</ele>
        <time>2021-09-25T08:44:46Z</time>
      </trkpt>
      <trkpt lat="43.6791" lon="5.1376">
        <ele>259.69</ele>
        <time>2021-09-25T08:44:47Z</time>
      </trkpt>
      <trkpt lat="43.67911" lon="5.13753">
        <ele>259.21</ele>
        <time>2021-09-25T08:44:48Z</time>
      </trkpt>
      <trkpt lat="43.67911" lon="5.13746">
        <ele>259.21</ele>
        <time>2021-09-25T08:44:49Z</time>
      </trkpt>
      <trkpt lat="43.67913" lon="5.1374">
        <ele>258.73</ele>
        <time>2021-09-25T08:44:50Z</time>
      </trkpt>
      <trkpt lat="43.67913" lon="5.13734">
        <ele>258.25</ele>
        <time>2021-09-25T08:44:51Z</time>
      </trkpt>
      <trkpt lat="43.67915" lon="5.13709">
        <ele>258.25</ele>
        <time>2021-09-25T08:44:55Z</time>
      </trkpt>
      <trkpt lat="43.67916" lon="5.13703">
        <ele>258.25</ele>
        <time>2021-09-25T08:44:56Z</time>
      </trkpt>
      <trkpt lat="43.67918" lon="5.13698">
        <ele>257.77</ele>
        <time>2021-09-25T08:44:57Z</time>
      </trkpt>
      <trkpt lat="43.67919" lon="5.13692">
        <ele>257.77</ele>
        <time>2021-09-25T08:44:58Z</time>
      </trkpt>
      <trkpt lat="43.67921" lon="5.13687">
        <ele>257.77</ele>
        <time>2021-09-25T08:44:59Z</time>
      </trkpt>
      <trkpt lat="43.67923" lon="5.13681">
        <ele>257.77</ele>
        <time>2021-09-25T08:45:00Z</time>
      </trkpt>
      <trkpt lat="43.67925" lon="5.13676">
        <ele>257.29</ele>
        <time>2021-09-25T08:45:01Z</time>
      </trkpt>
      <trkpt lat="43.67938" lon="5.13647">
        <ele>255.85</ele>
        <time>2021-09-25T08:45:06Z</time>
      </trkpt>
      <trkpt lat="43.67941" lon="5.13642">
        <ele>255.85</ele>
        <time>2021-09-25T08:45:07Z</time>
      </trkpt>
      <trkpt lat="43.67941" lon="5.13637">
        <ele>255.37</ele>
        <time>2021-09-25T08:45:08Z</time>
      </trkpt>
      <trkpt lat="43.6793" lon="5.13535">
        <ele>258.25</ele>
        <time>2021-09-25T08:45:26Z</time>
      </trkpt>
      <trkpt lat="43.67928" lon="5.135">
        <ele>257.77</ele>
        <time>2021-09-25T08:45:31Z</time>
      </trkpt>
      <trkpt lat="43.67925" lon="5.13474">
        <ele>258.25</ele>
        <time>2021-09-25T08:45:35Z</time>
      </trkpt>
      <trkpt lat="43.67925" lon="5.13468">
        <ele>258.25</ele>
        <time>2021-09-25T08:45:36Z</time>
      </trkpt>
      <trkpt lat="43.67923" lon="5.13462">
        <ele>258.73</ele>
        <time>2021-09-25T08:45:37Z</time>
      </trkpt>
      <trkpt lat="43.67922" lon="5.13456">
        <ele>258.25</ele>
        <time>2021-09-25T08:45:38Z</time>
      </trkpt>
      <trkpt lat="43.67919" lon="5.13451">
        <ele>258.25</ele>
        <time>2021-09-25T08:45:39Z</time>
      </trkpt>
      <trkpt lat="43.67917" lon="5.13445">
        <ele>258.25</ele>
        <time>2021-09-25T08:45:40Z</time>
      </trkpt>
      <trkpt lat="43.6791" lon="5.1343">
        <ele>257.77</ele>
        <time>2021-09-25T08:45:43Z</time>
      </trkpt>
      <trkpt lat="43.679" lon="5.13415">
        <ele>257.77</ele>
        <time>2021-09-25T08:45:46Z</time>
      </trkpt>
      <trkpt lat="43.67898" lon="5.1341">
        <ele>258.25</ele>
        <time>2021-09-25T08:45:47Z</time>
      </trkpt>
      <trkpt lat="43.67895" lon="5.13405">
        <ele>258.25</ele>
        <time>2021-09-25T08:45:48Z</time>
      </trkpt>
      <trkpt lat="43.67894" lon="5.134">
        <ele>258.25</ele>
        <time>2021-09-25T08:45:49Z</time>
      </trkpt>
      <trkpt lat="43.67891" lon="5.13396">
        <ele>258.73</ele>
        <time>2021-09-25T08:45:50Z</time>
      </trkpt>
      <trkpt lat="43.67888" lon="5.13391">
        <ele>258.73</ele>
        <time>2021-09-25T08:45:51Z</time>
      </trkpt>
      <trkpt lat="43.67886" lon="5.13387">
        <ele>258.73</ele>
        <time>2021-09-25T08:45:52Z</time>
      </trkpt>
      <trkpt lat="43.67883" lon="5.13383">
        <ele>258.73</ele>
        <time>2021-09-25T08:45:53Z</time>
      </trkpt>
      <trkpt lat="43.67881" lon="5.13378">
        <ele>259.21</ele>
        <time>2021-09-25T08:45:54Z</time>
      </trkpt>
      <trkpt lat="43.67878" lon="5.13372">
        <ele>259.21</ele>
        <time>2021-09-25T08:45:55Z</time>
      </trkpt>
      <trkpt lat="43.67872" lon="5.13362">
        <ele>259.21</ele>
        <time>2021-09-25T08:45:57Z</time>
      </trkpt>
      <trkpt lat="43.6787" lon="5.13357">
        <ele>258.73</ele>
        <time>2021-09-25T08:45:58Z</time>
      </trkpt>
      <trkpt lat="43.67868" lon="5.13352">
        <ele>258.25</ele>
        <time>2021-09-25T08:45:59Z</time>
      </trkpt>
      <trkpt lat="43.67867" lon="5.13346">
        <ele>257.77</ele>
        <time>2021-09-25T08:46:00Z</time>
      </trkpt>
      <trkpt lat="43.67864" lon="5.1334">
        <ele>257.29</ele>
        <time>2021-09-25T08:46:01Z</time>
      </trkpt>
      <trkpt lat="43.67862" lon="5.13334">
        <ele>256.33</ele>
        <time>2021-09-25T08:46:02Z</time>
      </trkpt>
      <trkpt lat="43.67859" lon="5.13327">
        <ele>256.33</ele>
        <time>2021-09-25T08:46:03Z</time>
      </trkpt>
      <trkpt lat="43.67856" lon="5.13324">
        <ele>255.85</ele>
        <time>2021-09-25T08:46:04Z</time>
      </trkpt>
      <trkpt lat="43.67852" lon="5.13321">
        <ele>255.85</ele>
        <time>2021-09-25T08:46:05Z</time>
      </trkpt>
      <trkpt lat="43.67835" lon="5.13298">
        <ele>255.85</ele>
        <time>2021-09-25T08:46:11Z</time>
      </trkpt>
      <trkpt lat="43.6783" lon="5.1329">
        <ele>255.85</ele>
        <time>2021-09-25T08:46:13Z</time>
      </trkpt>
      <trkpt lat="43.67824" lon="5.13281">
        <ele>255.37</ele>
        <time>2021-09-25T08:46:15Z</time>
      </trkpt>
      <trkpt lat="43.67821" lon="5.13277">
        <ele>255.37</ele>
        <time>2021-09-25T08:46:16Z</time>
      </trkpt>
      <trkpt lat="43.67818" lon="5.13273">
        <ele>254.89</ele>
        <time>2021-09-25T08:46:17Z</time>
      </trkpt>
      <trkpt lat="43.67814" lon="5.13271">
        <ele>254.89</ele>
        <time>2021-09-25T08:46:18Z</time>
      </trkpt>
      <trkpt lat="43.67811" lon="5.1327">
        <ele>254.89</ele>
        <time>2021-09-25T08:46:19Z</time>
      </trkpt>
      <trkpt lat="43.67796" lon="5.13262">
        <ele>254.89</ele>
        <time>2021-09-25T08:46:23Z</time>
      </trkpt>
      <trkpt lat="43.67792" lon="5.1326">
        <ele>254.89</ele>
        <time>2021-09-25T08:46:24Z</time>
      </trkpt>
      <trkpt lat="43.67788" lon="5.1326">
        <ele>255.37</ele>
        <time>2021-09-25T08:46:25Z</time>
      </trkpt>
      <trkpt lat="43.67783" lon="5.13259">
        <ele>255.37</ele>
        <time>2021-09-25T08:46:26Z</time>
      </trkpt>
      <trkpt lat="43.6778" lon="5.13258">
        <ele>255.37</ele>
        <time>2021-09-25T08:46:27Z</time>
      </trkpt>
      <trkpt lat="43.67777" lon="5.13253">
        <ele>255.37</ele>
        <time>2021-09-25T08:46:29Z</time>
      </trkpt>
      <trkpt lat="43.67768" lon="5.13228">
        <ele>253.44</ele>
        <time>2021-09-25T08:46:34Z</time>
      </trkpt>
      <trkpt lat="43.67765" lon="5.13223">
        <ele>252.96</ele>
        <time>2021-09-25T08:46:35Z</time>
      </trkpt>
      <trkpt lat="43.6776" lon="5.1322">
        <ele>252.48</ele>
        <time>2021-09-25T08:46:36Z</time>
      </trkpt>
      <trkpt lat="43.67756" lon="5.13217">
        <ele>252</ele>
        <time>2021-09-25T08:46:37Z</time>
      </trkpt>
      <trkpt lat="43.67751" lon="5.13216">
        <ele>252</ele>
        <time>2021-09-25T08:46:38Z</time>
      </trkpt>
      <trkpt lat="43.67746" lon="5.13216">
        <ele>252</ele>
        <time>2021-09-25T08:46:39Z</time>
      </trkpt>
      <trkpt lat="43.67742" lon="5.13217">
        <ele>252.48</ele>
        <time>2021-09-25T08:46:40Z</time>
      </trkpt>
      <trkpt lat="43.67706" lon="5.13231">
        <ele>253.44</ele>
        <time>2021-09-25T08:46:48Z</time>
      </trkpt>
      <trkpt lat="43.67702" lon="5.13232">
        <ele>253.44</ele>
        <time>2021-09-25T08:46:49Z</time>
      </trkpt>
      <trkpt lat="43.67673" lon="5.13239">
        <ele>256.33</ele>
        <time>2021-09-25T08:47:03Z</time>
      </trkpt>
      <trkpt lat="43.67674" lon="5.1324">
        <ele>258.25</ele>
        <time>2021-09-25T08:47:52Z</time>
      </trkpt>
      <trkpt lat="43.67674" lon="5.1324">
        <ele>261.14</ele>
        <time>2021-09-25T08:48:23Z</time>
      </trkpt>
      <trkpt lat="43.67672" lon="5.13241">
        <ele>260.17</ele>
        <time>2021-09-25T08:48:54Z</time>
      </trkpt>
      <trkpt lat="43.67672" lon="5.13242">
        <ele>260.17</ele>
        <time>2021-09-25T08:48:56Z</time>
      </trkpt>
      <trkpt lat="43.67671" lon="5.13243">
        <ele>260.17</ele>
        <time>2021-09-25T08:48:57Z</time>
      </trkpt>
      <trkpt lat="43.6767" lon="5.13245">
        <ele>260.17</ele>
        <time>2021-09-25T08:48:58Z</time>
      </trkpt>
      <trkpt lat="43.67668" lon="5.13246">
        <ele>260.17</ele>
        <time>2021-09-25T08:48:59Z</time>
      </trkpt>
      <trkpt lat="43.67665" lon="5.13246">
        <ele>260.17</ele>
        <time>2021-09-25T08:49:00Z</time>
      </trkpt>
      <trkpt lat="43.67662" lon="5.13246">
        <ele>260.17</ele>
        <time>2021-09-25T08:49:01Z</time>
      </trkpt>
      <trkpt lat="43.67659" lon="5.13245">
        <ele>260.17</ele>
        <time>2021-09-25T08:49:02Z</time>
      </trkpt>
      <trkpt lat="43.67636" lon="5.13245">
        <ele>260.17</ele>
        <time>2021-09-25T08:49:10Z</time>
      </trkpt>
      <trkpt lat="43.67627" lon="5.13231">
        <ele>257.77</ele>
        <time>2021-09-25T08:49:14Z</time>
      </trkpt>
      <trkpt lat="43.67612" lon="5.13188">
        <ele>255.37</ele>
        <time>2021-09-25T08:49:21Z</time>
      </trkpt>
      <trkpt lat="43.67609" lon="5.13183">
        <ele>255.37</ele>
        <time>2021-09-25T08:49:22Z</time>
      </trkpt>
      <trkpt lat="43.67604" lon="5.1318">
        <ele>255.37</ele>
        <time>2021-09-25T08:49:23Z</time>
      </trkpt>
      <trkpt lat="43.67599" lon="5.13179">
        <ele>255.37</ele>
        <time>2021-09-25T08:49:24Z</time>
      </trkpt>
      <trkpt lat="43.67595" lon="5.1318">
        <ele>255.37</ele>
        <time>2021-09-25T08:49:25Z</time>
      </trkpt>
      <trkpt lat="43.6759" lon="5.13182">
        <ele>255.37</ele>
        <time>2021-09-25T08:49:26Z</time>
      </trkpt>
      <trkpt lat="43.67586" lon="5.13185">
        <ele>255.37</ele>
        <time>2021-09-25T08:49:27Z</time>
      </trkpt>
      <trkpt lat="43.67563" lon="5.13201">
        <ele>255.37</ele>
        <time>2021-09-25T08:49:33Z</time>
      </trkpt>
      <trkpt lat="43.6756" lon="5.13205">
        <ele>255.37</ele>
        <time>2021-09-25T08:49:34Z</time>
      </trkpt>
      <trkpt lat="43.67557" lon="5.1321">
        <ele>255.37</ele>
        <time>2021-09-25T08:49:35Z</time>
      </trkpt>
      <trkpt lat="43.67555" lon="5.13214">
        <ele>255.37</ele>
        <time>2021-09-25T08:49:36Z</time>
      </trkpt>
      <trkpt lat="43.67552" lon="5.13219">
        <ele>255.37</ele>
        <time>2021-09-25T08:49:37Z</time>
      </trkpt>
      <trkpt lat="43.6755" lon="5.13223">
        <ele>255.37</ele>
        <time>2021-09-25T08:49:38Z</time>
      </trkpt>
      <trkpt lat="43.67543" lon="5.13233">
        <ele>255.85</ele>
        <time>2021-09-25T08:49:40Z</time>
      </trkpt>
      <trkpt lat="43.67514" lon="5.13269">
        <ele>257.77</ele>
        <time>2021-09-25T08:49:49Z</time>
      </trkpt>
      <trkpt lat="43.6751" lon="5.13272">
        <ele>257.77</ele>
        <time>2021-09-25T08:49:50Z</time>
      </trkpt>
      <trkpt lat="43.67506" lon="5.13273">
        <ele>257.77</ele>
        <time>2021-09-25T08:49:51Z</time>
      </trkpt>
      <trkpt lat="43.67501" lon="5.13273">
        <ele>258.25</ele>
        <time>2021-09-25T08:49:52Z</time>
      </trkpt>
      <trkpt lat="43.67497" lon="5.13273">
        <ele>258.25</ele>
        <time>2021-09-25T08:49:53Z</time>
      </trkpt>
      <trkpt lat="43.67476" lon="5.13275">
        <ele>258.25</ele>
        <time>2021-09-25T08:49:57Z</time>
      </trkpt>
      <trkpt lat="43.67471" lon="5.13275">
        <ele>258.25</ele>
        <time>2021-09-25T08:49:58Z</time>
      </trkpt>
      <trkpt lat="43.67465" lon="5.13273">
        <ele>257.77</ele>
        <time>2021-09-25T08:49:59Z</time>
      </trkpt>
      <trkpt lat="43.67455" lon="5.13269">
        <ele>257.77</ele>
        <time>2021-09-25T08:50:01Z</time>
      </trkpt>
      <trkpt lat="43.67449" lon="5.1327">
        <ele>257.77</ele>
        <time>2021-09-25T08:50:02Z</time>
      </trkpt>
      <trkpt lat="43.67444" lon="5.13272">
        <ele>257.77</ele>
        <time>2021-09-25T08:50:03Z</time>
      </trkpt>
      <trkpt lat="43.6744" lon="5.13276">
        <ele>257.77</ele>
        <time>2021-09-25T08:50:04Z</time>
      </trkpt>
      <trkpt lat="43.67435" lon="5.1328">
        <ele>257.77</ele>
        <time>2021-09-25T08:50:05Z</time>
      </trkpt>
      <trkpt lat="43.6743" lon="5.13282">
        <ele>257.77</ele>
        <time>2021-09-25T08:50:06Z</time>
      </trkpt>
      <trkpt lat="43.67425" lon="5.13283">
        <ele>258.25</ele>
        <time>2021-09-25T08:50:07Z</time>
      </trkpt>
      <trkpt lat="43.67419" lon="5.13284">
        <ele>258.25</ele>
        <time>2021-09-25T08:50:08Z</time>
      </trkpt>
      <trkpt lat="43.67414" lon="5.13285">
        <ele>258.25</ele>
        <time>2021-09-25T08:50:09Z</time>
      </trkpt>
      <trkpt lat="43.67409" lon="5.13288">
        <ele>257.77</ele>
        <time>2021-09-25T08:50:10Z</time>
      </trkpt>
      <trkpt lat="43.67404" lon="5.13292">
        <ele>257.77</ele>
        <time>2021-09-25T08:50:11Z</time>
      </trkpt>
      <trkpt lat="43.67399" lon="5.13296">
        <ele>257.29</ele>
        <time>2021-09-25T08:50:12Z</time>
      </trkpt>
      <trkpt lat="43.67394" lon="5.13298">
        <ele>257.29</ele>
        <time>2021-09-25T08:50:13Z</time>
      </trkpt>
      <trkpt lat="43.6739" lon="5.133">
        <ele>257.29</ele>
        <time>2021-09-25T08:50:14Z</time>
      </trkpt>
      <trkpt lat="43.67384" lon="5.13306">
        <ele>258.25</ele>
        <time>2021-09-25T08:50:16Z</time>
      </trkpt>
      <trkpt lat="43.67384" lon="5.13311">
        <ele>258.73</ele>
        <time>2021-09-25T08:50:17Z</time>
      </trkpt>
      <trkpt lat="43.67387" lon="5.13315">
        <ele>259.21</ele>
        <time>2021-09-25T08:50:18Z</time>
      </trkpt>
      <trkpt lat="43.6739" lon="5.13318">
        <ele>259.21</ele>
        <time>2021-09-25T08:50:19Z</time>
      </trkpt>
      <trkpt lat="43.67392" lon="5.13321">
        <ele>259.69</ele>
        <time>2021-09-25T08:50:20Z</time>
      </trkpt>
      <trkpt lat="43.67384" lon="5.13341">
        <ele>260.17</ele>
        <time>2021-09-25T08:50:25Z</time>
      </trkpt>
      <trkpt lat="43.6739" lon="5.13389">
        <ele>261.62</ele>
        <time>2021-09-25T08:50:35Z</time>
      </trkpt>
      <trkpt lat="43.67372" lon="5.13416">
        <ele>261.62</ele>
        <time>2021-09-25T08:50:40Z</time>
      </trkpt>
      <trkpt lat="43.67371" lon="5.13424">
        <ele>261.14</ele>
        <time>2021-09-25T08:50:41Z</time>
      </trkpt>
      <trkpt lat="43.67372" lon="5.1343">
        <ele>261.14</ele>
        <time>2021-09-25T08:50:42Z</time>
      </trkpt>
      <trkpt lat="43.67376" lon="5.13435">
        <ele>260.65</ele>
        <time>2021-09-25T08:50:43Z</time>
      </trkpt>
      <trkpt lat="43.67389" lon="5.1347">
        <ele>261.62</ele>
        <time>2021-09-25T08:50:50Z</time>
      </trkpt>
      <trkpt lat="43.67388" lon="5.13484">
        <ele>261.14</ele>
        <time>2021-09-25T08:50:52Z</time>
      </trkpt>
      <trkpt lat="43.6739" lon="5.13491">
        <ele>261.14</ele>
        <time>2021-09-25T08:50:53Z</time>
      </trkpt>
      <trkpt lat="43.674" lon="5.13527">
        <ele>262.1</ele>
        <time>2021-09-25T08:50:58Z</time>
      </trkpt>
      <trkpt lat="43.67404" lon="5.13533">
        <ele>262.1</ele>
        <time>2021-09-25T08:50:59Z</time>
      </trkpt>
      <trkpt lat="43.67412" lon="5.13556">
        <ele>262.58</ele>
        <time>2021-09-25T08:51:03Z</time>
      </trkpt>
      <trkpt lat="43.6741" lon="5.13571">
        <ele>262.1</ele>
        <time>2021-09-25T08:51:05Z</time>
      </trkpt>
      <trkpt lat="43.67407" lon="5.1361">
        <ele>262.1</ele>
        <time>2021-09-25T08:51:10Z</time>
      </trkpt>
      <trkpt lat="43.67407" lon="5.13616">
        <ele>262.1</ele>
        <time>2021-09-25T08:51:11Z</time>
      </trkpt>
      <trkpt lat="43.67409" lon="5.13621">
        <ele>262.1</ele>
        <time>2021-09-25T08:51:12Z</time>
      </trkpt>
      <trkpt lat="43.67417" lon="5.13646">
        <ele>261.62</ele>
        <time>2021-09-25T08:51:16Z</time>
      </trkpt>
      <trkpt lat="43.6742" lon="5.1365">
        <ele>261.14</ele>
        <time>2021-09-25T08:51:17Z</time>
      </trkpt>
      <trkpt lat="43.67424" lon="5.13652">
        <ele>261.62</ele>
        <time>2021-09-25T08:51:18Z</time>
      </trkpt>
      <trkpt lat="43.67434" lon="5.13667">
        <ele>263.06</ele>
        <time>2021-09-25T08:51:23Z</time>
      </trkpt>
      <trkpt lat="43.6743" lon="5.13683">
        <ele>262.58</ele>
        <time>2021-09-25T08:51:25Z</time>
      </trkpt>
      <trkpt lat="43.6743" lon="5.13692">
        <ele>262.58</ele>
        <time>2021-09-25T08:51:26Z</time>
      </trkpt>
      <trkpt lat="43.67432" lon="5.13699">
        <ele>262.58</ele>
        <time>2021-09-25T08:51:27Z</time>
      </trkpt>
      <trkpt lat="43.67435" lon="5.13706">
        <ele>262.58</ele>
        <time>2021-09-25T08:51:28Z</time>
      </trkpt>
      <trkpt lat="43.67438" lon="5.13712">
        <ele>262.58</ele>
        <time>2021-09-25T08:51:29Z</time>
      </trkpt>
      <trkpt lat="43.67443" lon="5.13717">
        <ele>262.58</ele>
        <time>2021-09-25T08:51:30Z</time>
      </trkpt>
      <trkpt lat="43.67448" lon="5.1372">
        <ele>263.06</ele>
        <time>2021-09-25T08:51:31Z</time>
      </trkpt>
      <trkpt lat="43.67453" lon="5.13722">
        <ele>263.06</ele>
        <time>2021-09-25T08:51:32Z</time>
      </trkpt>
      <trkpt lat="43.67457" lon="5.13724">
        <ele>263.06</ele>
        <time>2021-09-25T08:51:33Z</time>
      </trkpt>
      <trkpt lat="43.67461" lon="5.13729">
        <ele>263.06</ele>
        <time>2021-09-25T08:51:34Z</time>
      </trkpt>
      <trkpt lat="43.67464" lon="5.13734">
        <ele>263.06</ele>
        <time>2021-09-25T08:51:35Z</time>
      </trkpt>
      <trkpt lat="43.67467" lon="5.1374">
        <ele>263.54</ele>
        <time>2021-09-25T08:51:36Z</time>
      </trkpt>
      <trkpt lat="43.6747" lon="5.13748">
        <ele>263.54</ele>
        <time>2021-09-25T08:51:37Z</time>
      </trkpt>
      <trkpt lat="43.67472" lon="5.13756">
        <ele>263.06</ele>
        <time>2021-09-25T08:51:38Z</time>
      </trkpt>
      <trkpt lat="43.67474" lon="5.13763">
        <ele>263.06</ele>
        <time>2021-09-25T08:51:39Z</time>
      </trkpt>
      <trkpt lat="43.67477" lon="5.1377">
        <ele>262.58</ele>
        <time>2021-09-25T08:51:40Z</time>
      </trkpt>
      <trkpt lat="43.6748" lon="5.13776">
        <ele>262.58</ele>
        <time>2021-09-25T08:51:41Z</time>
      </trkpt>
      <trkpt lat="43.67484" lon="5.13781">
        <ele>262.1</ele>
        <time>2021-09-25T08:51:42Z</time>
      </trkpt>
      <trkpt lat="43.67489" lon="5.13786">
        <ele>262.1</ele>
        <time>2021-09-25T08:51:43Z</time>
      </trkpt>
      <trkpt lat="43.67493" lon="5.1379">
        <ele>261.62</ele>
        <time>2021-09-25T08:51:44Z</time>
      </trkpt>
      <trkpt lat="43.67498" lon="5.13795">
        <ele>261.62</ele>
        <time>2021-09-25T08:51:45Z</time>
      </trkpt>
      <trkpt lat="43.67503" lon="5.13799">
        <ele>261.14</ele>
        <time>2021-09-25T08:51:46Z</time>
      </trkpt>
      <trkpt lat="43.67519" lon="5.1381">
        <ele>260.65</ele>
        <time>2021-09-25T08:51:49Z</time>
      </trkpt>
      <trkpt lat="43.67524" lon="5.13811">
        <ele>260.65</ele>
        <time>2021-09-25T08:51:50Z</time>
      </trkpt>
      <trkpt lat="43.6753" lon="5.13812">
        <ele>260.65</ele>
        <time>2021-09-25T08:51:51Z</time>
      </trkpt>
      <trkpt lat="43.67537" lon="5.13812">
        <ele>260.17</ele>
        <time>2021-09-25T08:51:52Z</time>
      </trkpt>
      <trkpt lat="43.67542" lon="5.13814">
        <ele>260.17</ele>
        <time>2021-09-25T08:51:53Z</time>
      </trkpt>
      <trkpt lat="43.67547" lon="5.13817">
        <ele>259.69</ele>
        <time>2021-09-25T08:51:54Z</time>
      </trkpt>
      <trkpt lat="43.67552" lon="5.1382">
        <ele>259.69</ele>
        <time>2021-09-25T08:51:55Z</time>
      </trkpt>
      <trkpt lat="43.67556" lon="5.13823">
        <ele>259.69</ele>
        <time>2021-09-25T08:51:56Z</time>
      </trkpt>
      <trkpt lat="43.67561" lon="5.13826">
        <ele>259.21</ele>
        <time>2021-09-25T08:51:57Z</time>
      </trkpt>
      <trkpt lat="43.67566" lon="5.13829">
        <ele>259.21</ele>
        <time>2021-09-25T08:51:58Z</time>
      </trkpt>
      <trkpt lat="43.6757" lon="5.13832">
        <ele>258.73</ele>
        <time>2021-09-25T08:51:59Z</time>
      </trkpt>
      <trkpt lat="43.67577" lon="5.13839">
        <ele>258.25</ele>
        <time>2021-09-25T08:52:01Z</time>
      </trkpt>
      <trkpt lat="43.67582" lon="5.13841">
        <ele>258.25</ele>
        <time>2021-09-25T08:52:02Z</time>
      </trkpt>
      <trkpt lat="43.67587" lon="5.13841">
        <ele>258.25</ele>
        <time>2021-09-25T08:52:03Z</time>
      </trkpt>
      <trkpt lat="43.67591" lon="5.13841">
        <ele>258.73</ele>
        <time>2021-09-25T08:52:04Z</time>
      </trkpt>
      <trkpt lat="43.67596" lon="5.13841">
        <ele>258.73</ele>
        <time>2021-09-25T08:52:05Z</time>
      </trkpt>
      <trkpt lat="43.67601" lon="5.13843">
        <ele>259.21</ele>
        <time>2021-09-25T08:52:06Z</time>
      </trkpt>
      <trkpt lat="43.67605" lon="5.13846">
        <ele>259.21</ele>
        <time>2021-09-25T08:52:07Z</time>
      </trkpt>
      <trkpt lat="43.67607" lon="5.13852">
        <ele>259.21</ele>
        <time>2021-09-25T08:52:08Z</time>
      </trkpt>
      <trkpt lat="43.67613" lon="5.13864">
        <ele>259.21</ele>
        <time>2021-09-25T08:52:10Z</time>
      </trkpt>
      <trkpt lat="43.67617" lon="5.13867">
        <ele>259.21</ele>
        <time>2021-09-25T08:52:11Z</time>
      </trkpt>
      <trkpt lat="43.67621" lon="5.13867">
        <ele>259.69</ele>
        <time>2021-09-25T08:52:12Z</time>
      </trkpt>
      <trkpt lat="43.67625" lon="5.13864">
        <ele>259.69</ele>
        <time>2021-09-25T08:52:13Z</time>
      </trkpt>
      <trkpt lat="43.67629" lon="5.13862">
        <ele>260.17</ele>
        <time>2021-09-25T08:52:14Z</time>
      </trkpt>
      <trkpt lat="43.67634" lon="5.13861">
        <ele>260.17</ele>
        <time>2021-09-25T08:52:15Z</time>
      </trkpt>
      <trkpt lat="43.67639" lon="5.13861">
        <ele>260.65</ele>
        <time>2021-09-25T08:52:16Z</time>
      </trkpt>
      <trkpt lat="43.67644" lon="5.13861">
        <ele>260.65</ele>
        <time>2021-09-25T08:52:17Z</time>
      </trkpt>
      <trkpt lat="43.67649" lon="5.13862">
        <ele>260.65</ele>
        <time>2021-09-25T08:52:18Z</time>
      </trkpt>
      <trkpt lat="43.67654" lon="5.13865">
        <ele>260.17</ele>
        <time>2021-09-25T08:52:19Z</time>
      </trkpt>
      <trkpt lat="43.67659" lon="5.13869">
        <ele>260.17</ele>
        <time>2021-09-25T08:52:20Z</time>
      </trkpt>
      <trkpt lat="43.67674" lon="5.13881">
        <ele>259.21</ele>
        <time>2021-09-25T08:52:23Z</time>
      </trkpt>
      <trkpt lat="43.67697" lon="5.13903">
        <ele>259.21</ele>
        <time>2021-09-25T08:52:28Z</time>
      </trkpt>
      <trkpt lat="43.67701" lon="5.13906">
        <ele>259.21</ele>
        <time>2021-09-25T08:52:29Z</time>
      </trkpt>
      <trkpt lat="43.67706" lon="5.13909">
        <ele>259.21</ele>
        <time>2021-09-25T08:52:30Z</time>
      </trkpt>
      <trkpt lat="43.6771" lon="5.13912">
        <ele>259.69</ele>
        <time>2021-09-25T08:52:31Z</time>
      </trkpt>
      <trkpt lat="43.67714" lon="5.13932">
        <ele>258.73</ele>
        <time>2021-09-25T08:52:36Z</time>
      </trkpt>
      <trkpt lat="43.67719" lon="5.1396">
        <ele>257.29</ele>
        <time>2021-09-25T08:52:41Z</time>
      </trkpt>
      <trkpt lat="43.677" lon="5.14044">
        <ele>253.93</ele>
        <time>2021-09-25T08:52:52Z</time>
      </trkpt>
      <trkpt lat="43.67692" lon="5.14062">
        <ele>253.93</ele>
        <time>2021-09-25T08:52:55Z</time>
      </trkpt>
      <trkpt lat="43.67691" lon="5.14067">
        <ele>253.93</ele>
        <time>2021-09-25T08:52:56Z</time>
      </trkpt>
      <trkpt lat="43.6769" lon="5.14074">
        <ele>253.93</ele>
        <time>2021-09-25T08:52:57Z</time>
      </trkpt>
      <trkpt lat="43.67689" lon="5.14079">
        <ele>253.93</ele>
        <time>2021-09-25T08:52:58Z</time>
      </trkpt>
      <trkpt lat="43.67688" lon="5.14085">
        <ele>253.44</ele>
        <time>2021-09-25T08:52:59Z</time>
      </trkpt>
      <trkpt lat="43.6768" lon="5.14145">
        <ele>253.44</ele>
        <time>2021-09-25T08:53:12Z</time>
      </trkpt>
      <trkpt lat="43.67679" lon="5.14147">
        <ele>253.44</ele>
        <time>2021-09-25T08:53:13Z</time>
      </trkpt>
      <trkpt lat="43.67678" lon="5.14149">
        <ele>253.44</ele>
        <time>2021-09-25T08:53:14Z</time>
      </trkpt>
      <trkpt lat="43.67677" lon="5.14151">
        <ele>253.44</ele>
        <time>2021-09-25T08:53:15Z</time>
      </trkpt>
      <trkpt lat="43.67676" lon="5.14153">
        <ele>255.85</ele>
        <time>2021-09-25T08:53:38Z</time>
      </trkpt>
      <trkpt lat="43.67677" lon="5.14154">
        <ele>257.29</ele>
        <time>2021-09-25T08:54:21Z</time>
      </trkpt>
      <trkpt lat="43.67677" lon="5.14165">
        <ele>256.81</ele>
        <time>2021-09-25T08:54:26Z</time>
      </trkpt>
      <trkpt lat="43.67676" lon="5.14167">
        <ele>256.81</ele>
        <time>2021-09-25T08:54:27Z</time>
      </trkpt>
      <trkpt lat="43.6767" lon="5.14169">
        <ele>255.85</ele>
        <time>2021-09-25T08:54:30Z</time>
      </trkpt>
      <trkpt lat="43.67667" lon="5.1417">
        <ele>255.85</ele>
        <time>2021-09-25T08:54:31Z</time>
      </trkpt>
      <trkpt lat="43.67661" lon="5.14174">
        <ele>255.37</ele>
        <time>2021-09-25T08:54:33Z</time>
      </trkpt>
      <trkpt lat="43.67645" lon="5.14191">
        <ele>255.37</ele>
        <time>2021-09-25T08:54:43Z</time>
      </trkpt>
      <trkpt lat="43.67646" lon="5.14199">
        <ele>255.85</ele>
        <time>2021-09-25T08:54:45Z</time>
      </trkpt>
      <trkpt lat="43.67634" lon="5.14244">
        <ele>253.44</ele>
        <time>2021-09-25T08:54:59Z</time>
      </trkpt>
      <trkpt lat="43.67634" lon="5.14248">
        <ele>255.37</ele>
        <time>2021-09-25T08:55:16Z</time>
      </trkpt>
      <trkpt lat="43.67635" lon="5.14254">
        <ele>256.33</ele>
        <time>2021-09-25T08:55:22Z</time>
      </trkpt>
      <trkpt lat="43.67633" lon="5.1427">
        <ele>258.25</ele>
        <time>2021-09-25T08:55:38Z</time>
      </trkpt>
      <trkpt lat="43.67632" lon="5.14272">
        <ele>258.25</ele>
        <time>2021-09-25T08:55:42Z</time>
      </trkpt>
      <trkpt lat="43.6763" lon="5.14274">
        <ele>258.25</ele>
        <time>2021-09-25T08:55:44Z</time>
      </trkpt>
      <trkpt lat="43.67628" lon="5.14275">
        <ele>257.77</ele>
        <time>2021-09-25T08:55:45Z</time>
      </trkpt>
      <trkpt lat="43.67626" lon="5.14277">
        <ele>257.77</ele>
        <time>2021-09-25T08:55:46Z</time>
      </trkpt>
      <trkpt lat="43.67624" lon="5.14279">
        <ele>257.77</ele>
        <time>2021-09-25T08:55:47Z</time>
      </trkpt>
      <trkpt lat="43.67622" lon="5.14281">
        <ele>257.77</ele>
        <time>2021-09-25T08:55:48Z</time>
      </trkpt>
      <trkpt lat="43.67619" lon="5.14283">
        <ele>257.29</ele>
        <time>2021-09-25T08:55:49Z</time>
      </trkpt>
      <trkpt lat="43.67614" lon="5.14284">
        <ele>256.81</ele>
        <time>2021-09-25T08:55:50Z</time>
      </trkpt>
      <trkpt lat="43.67609" lon="5.14285">
        <ele>255.85</ele>
        <time>2021-09-25T08:55:51Z</time>
      </trkpt>
      <trkpt lat="43.67601" lon="5.14286">
        <ele>256.33</ele>
        <time>2021-09-25T08:55:53Z</time>
      </trkpt>
      <trkpt lat="43.67597" lon="5.14287">
        <ele>257.29</ele>
        <time>2021-09-25T08:55:55Z</time>
      </trkpt>
      <trkpt lat="43.67579" lon="5.14292">
        <ele>258.73</ele>
        <time>2021-09-25T08:56:03Z</time>
      </trkpt>
      <trkpt lat="43.67561" lon="5.14334">
        <ele>258.25</ele>
        <time>2021-09-25T08:56:14Z</time>
      </trkpt>
      <trkpt lat="43.6754" lon="5.1435">
        <ele>255.85</ele>
        <time>2021-09-25T08:56:24Z</time>
      </trkpt>
      <trkpt lat="43.67521" lon="5.14379">
        <ele>254.41</ele>
        <time>2021-09-25T08:56:33Z</time>
      </trkpt>
      <trkpt lat="43.67519" lon="5.14388">
        <ele>253.93</ele>
        <time>2021-09-25T08:56:35Z</time>
      </trkpt>
      <trkpt lat="43.67517" lon="5.14391">
        <ele>253.93</ele>
        <time>2021-09-25T08:56:36Z</time>
      </trkpt>
      <trkpt lat="43.6751" lon="5.14391">
        <ele>253.44</ele>
        <time>2021-09-25T08:56:38Z</time>
      </trkpt>
      <trkpt lat="43.67484" lon="5.14395">
        <ele>252.48</ele>
        <time>2021-09-25T08:56:44Z</time>
      </trkpt>
      <trkpt lat="43.67486" lon="5.14427">
        <ele>252.48</ele>
        <time>2021-09-25T08:56:51Z</time>
      </trkpt>
      <trkpt lat="43.67484" lon="5.14438">
        <ele>251.52</ele>
        <time>2021-09-25T08:56:53Z</time>
      </trkpt>
      <trkpt lat="43.67469" lon="5.14445">
        <ele>251.04</ele>
        <time>2021-09-25T08:56:57Z</time>
      </trkpt>
      <trkpt lat="43.67456" lon="5.14457">
        <ele>252.96</ele>
        <time>2021-09-25T08:57:01Z</time>
      </trkpt>
      <trkpt lat="43.67457" lon="5.14492">
        <ele>254.89</ele>
        <time>2021-09-25T08:57:09Z</time>
      </trkpt>
      <trkpt lat="43.67458" lon="5.14525">
        <ele>253.93</ele>
        <time>2021-09-25T08:57:16Z</time>
      </trkpt>
      <trkpt lat="43.67465" lon="5.14588">
        <ele>252.96</ele>
        <time>2021-09-25T08:57:29Z</time>
      </trkpt>
      <trkpt lat="43.67463" lon="5.14617">
        <ele>252</ele>
        <time>2021-09-25T08:57:34Z</time>
      </trkpt>
      <trkpt lat="43.67473" lon="5.14652">
        <ele>252.96</ele>
        <time>2021-09-25T08:57:41Z</time>
      </trkpt>
      <trkpt lat="43.67475" lon="5.14665">
        <ele>252.96</ele>
        <time>2021-09-25T08:57:43Z</time>
      </trkpt>
      <trkpt lat="43.67474" lon="5.14672">
        <ele>252.96</ele>
        <time>2021-09-25T08:57:44Z</time>
      </trkpt>
      <trkpt lat="43.67474" lon="5.14678">
        <ele>253.44</ele>
        <time>2021-09-25T08:57:45Z</time>
      </trkpt>
      <trkpt lat="43.67473" lon="5.14683">
        <ele>253.44</ele>
        <time>2021-09-25T08:57:46Z</time>
      </trkpt>
      <trkpt lat="43.67469" lon="5.14694">
        <ele>255.85</ele>
        <time>2021-09-25T08:57:58Z</time>
      </trkpt>
      <trkpt lat="43.67462" lon="5.14704">
        <ele>259.69</ele>
        <time>2021-09-25T08:58:20Z</time>
      </trkpt>
      <trkpt lat="43.67451" lon="5.14713">
        <ele>264.98</ele>
        <time>2021-09-25T08:58:40Z</time>
      </trkpt>
      <trkpt lat="43.67449" lon="5.14715">
        <ele>264.5</ele>
        <time>2021-09-25T08:58:59Z</time>
      </trkpt>
      <trkpt lat="43.67449" lon="5.14716">
        <ele>264.5</ele>
        <time>2021-09-25T08:59:01Z</time>
      </trkpt>
      <trkpt lat="43.67443" lon="5.14724">
        <ele>265.46</ele>
        <time>2021-09-25T08:59:06Z</time>
      </trkpt>
      <trkpt lat="43.67401" lon="5.14738">
        <ele>269.31</ele>
        <time>2021-09-25T08:59:24Z</time>
      </trkpt>
      <trkpt lat="43.67349" lon="5.14728">
        <ele>274.11</ele>
        <time>2021-09-25T08:59:42Z</time>
      </trkpt>
      <trkpt lat="43.67315" lon="5.14717">
        <ele>274.11</ele>
        <time>2021-09-25T08:59:57Z</time>
      </trkpt>
      <trkpt lat="43.67313" lon="5.14717">
        <ele>274.59</ele>
        <time>2021-09-25T09:00:07Z</time>
      </trkpt>
      <trkpt lat="43.67312" lon="5.14718">
        <ele>274.59</ele>
        <time>2021-09-25T09:00:08Z</time>
      </trkpt>
      <trkpt lat="43.67274" lon="5.14748">
        <ele>276.04</ele>
        <time>2021-09-25T09:00:22Z</time>
      </trkpt>
      <trkpt lat="43.67241" lon="5.1477">
        <ele>277</ele>
        <time>2021-09-25T09:00:38Z</time>
      </trkpt>
      <trkpt lat="43.67212" lon="5.14806">
        <ele>279.88</ele>
        <time>2021-09-25T09:00:55Z</time>
      </trkpt>
      <trkpt lat="43.67198" lon="5.14854">
        <ele>280.36</ele>
        <time>2021-09-25T09:01:10Z</time>
      </trkpt>
      <trkpt lat="43.67172" lon="5.14912">
        <ele>283.25</ele>
        <time>2021-09-25T09:01:26Z</time>
      </trkpt>
      <trkpt lat="43.67115" lon="5.14965">
        <ele>285.17</ele>
        <time>2021-09-25T09:01:45Z</time>
      </trkpt>
      <trkpt lat="43.67079" lon="5.14992">
        <ele>286.13</ele>
        <time>2021-09-25T09:01:58Z</time>
      </trkpt>
      <trkpt lat="43.67045" lon="5.1502">
        <ele>285.17</ele>
        <time>2021-09-25T09:02:15Z</time>
      </trkpt>
      <trkpt lat="43.67002" lon="5.15056">
        <ele>284.69</ele>
        <time>2021-09-25T09:02:35Z</time>
      </trkpt>
      <trkpt lat="43.6698" lon="5.15071">
        <ele>284.21</ele>
        <time>2021-09-25T09:02:52Z</time>
      </trkpt>
      <trkpt lat="43.6698" lon="5.15072">
        <ele>284.21</ele>
        <time>2021-09-25T09:02:56Z</time>
      </trkpt>
      <trkpt lat="43.66944" lon="5.15113">
        <ele>284.21</ele>
        <time>2021-09-25T09:03:14Z</time>
      </trkpt>
      <trkpt lat="43.66938" lon="5.15119">
        <ele>284.21</ele>
        <time>2021-09-25T09:03:17Z</time>
      </trkpt>
      <trkpt lat="43.66936" lon="5.15122">
        <ele>284.21</ele>
        <time>2021-09-25T09:03:18Z</time>
      </trkpt>
      <trkpt lat="43.66935" lon="5.15125">
        <ele>284.21</ele>
        <time>2021-09-25T09:03:19Z</time>
      </trkpt>
      <trkpt lat="43.66934" lon="5.15129">
        <ele>284.21</ele>
        <time>2021-09-25T09:03:20Z</time>
      </trkpt>
      <trkpt lat="43.66933" lon="5.15132">
        <ele>284.21</ele>
        <time>2021-09-25T09:03:21Z</time>
      </trkpt>
      <trkpt lat="43.66932" lon="5.15135">
        <ele>284.21</ele>
        <time>2021-09-25T09:03:22Z</time>
      </trkpt>
      <trkpt lat="43.6693" lon="5.15146">
        <ele>284.21</ele>
        <time>2021-09-25T09:03:38Z</time>
      </trkpt>
      <trkpt lat="43.66929" lon="5.15146">
        <ele>288.53</ele>
        <time>2021-09-25T09:04:12Z</time>
      </trkpt>
      <trkpt lat="43.6693" lon="5.15145">
        <ele>284.69</ele>
        <time>2021-09-25T09:04:38Z</time>
      </trkpt>
      <trkpt lat="43.66929" lon="5.15145">
        <ele>284.21</ele>
        <time>2021-09-25T09:04:43Z</time>
      </trkpt>
      <trkpt lat="43.66928" lon="5.15148">
        <ele>284.69</ele>
        <time>2021-09-25T09:04:45Z</time>
      </trkpt>
      <trkpt lat="43.66931" lon="5.15157">
        <ele>284.69</ele>
        <time>2021-09-25T09:04:49Z</time>
      </trkpt>
      <trkpt lat="43.6693" lon="5.15201">
        <ele>286.61</ele>
        <time>2021-09-25T09:05:06Z</time>
      </trkpt>
      <trkpt lat="43.66901" lon="5.15206">
        <ele>285.17</ele>
        <time>2021-09-25T09:05:21Z</time>
      </trkpt>
      <trkpt lat="43.6689" lon="5.15217">
        <ele>284.21</ele>
        <time>2021-09-25T09:05:29Z</time>
      </trkpt>
      <trkpt lat="43.66888" lon="5.15219">
        <ele>284.21</ele>
        <time>2021-09-25T09:05:30Z</time>
      </trkpt>
      <trkpt lat="43.6688" lon="5.15226">
        <ele>283.73</ele>
        <time>2021-09-25T09:05:35Z</time>
      </trkpt>
      <trkpt lat="43.66879" lon="5.15229">
        <ele>284.21</ele>
        <time>2021-09-25T09:05:36Z</time>
      </trkpt>
      <trkpt lat="43.66878" lon="5.15233">
        <ele>284.21</ele>
        <time>2021-09-25T09:05:37Z</time>
      </trkpt>
      <trkpt lat="43.66877" lon="5.15237">
        <ele>284.21</ele>
        <time>2021-09-25T09:05:38Z</time>
      </trkpt>
      <trkpt lat="43.66877" lon="5.1524">
        <ele>284.21</ele>
        <time>2021-09-25T09:05:39Z</time>
      </trkpt>
      <trkpt lat="43.66876" lon="5.1525">
        <ele>284.21</ele>
        <time>2021-09-25T09:05:42Z</time>
      </trkpt>
      <trkpt lat="43.66876" lon="5.15253">
        <ele>284.21</ele>
        <time>2021-09-25T09:05:43Z</time>
      </trkpt>
      <trkpt lat="43.66876" lon="5.15255">
        <ele>284.21</ele>
        <time>2021-09-25T09:05:44Z</time>
      </trkpt>
      <trkpt lat="43.66876" lon="5.15258">
        <ele>284.21</ele>
        <time>2021-09-25T09:05:45Z</time>
      </trkpt>
      <trkpt lat="43.66875" lon="5.15261">
        <ele>284.21</ele>
        <time>2021-09-25T09:05:46Z</time>
      </trkpt>
      <trkpt lat="43.66875" lon="5.15263">
        <ele>284.21</ele>
        <time>2021-09-25T09:05:47Z</time>
      </trkpt>
      <trkpt lat="43.66875" lon="5.15266">
        <ele>284.21</ele>
        <time>2021-09-25T09:05:48Z</time>
      </trkpt>
      <trkpt lat="43.66875" lon="5.15268">
        <ele>284.21</ele>
        <time>2021-09-25T09:05:49Z</time>
      </trkpt>
      <trkpt lat="43.66883" lon="5.15318">
        <ele>283.73</ele>
        <time>2021-09-25T09:06:07Z</time>
      </trkpt>
      <trkpt lat="43.66916" lon="5.15425">
        <ele>282.77</ele>
        <time>2021-09-25T09:06:27Z</time>
      </trkpt>
      <trkpt lat="43.66967" lon="5.15523">
        <ele>284.21</ele>
        <time>2021-09-25T09:06:50Z</time>
      </trkpt>
      <trkpt lat="43.66992" lon="5.15551">
        <ele>285.65</ele>
        <time>2021-09-25T09:07:07Z</time>
      </trkpt>
      <trkpt lat="43.66992" lon="5.15552">
        <ele>284.69</ele>
        <time>2021-09-25T09:07:24Z</time>
      </trkpt>
      <trkpt lat="43.66989" lon="5.15558">
        <ele>284.21</ele>
        <time>2021-09-25T09:07:32Z</time>
      </trkpt>
      <trkpt lat="43.6699" lon="5.15567">
        <ele>283.73</ele>
        <time>2021-09-25T09:07:35Z</time>
      </trkpt>
      <trkpt lat="43.66991" lon="5.15576">
        <ele>283.25</ele>
        <time>2021-09-25T09:07:38Z</time>
      </trkpt>
      <trkpt lat="43.66986" lon="5.156">
        <ele>281.8</ele>
        <time>2021-09-25T09:07:49Z</time>
      </trkpt>
      <trkpt lat="43.6698" lon="5.15603">
        <ele>281.32</ele>
        <time>2021-09-25T09:08:02Z</time>
      </trkpt>
      <trkpt lat="43.66979" lon="5.15602">
        <ele>282.77</ele>
        <time>2021-09-25T09:08:22Z</time>
      </trkpt>
      <trkpt lat="43.66982" lon="5.15602">
        <ele>282.77</ele>
        <time>2021-09-25T09:08:24Z</time>
      </trkpt>
      <trkpt lat="43.66993" lon="5.156">
        <ele>283.25</ele>
        <time>2021-09-25T09:08:31Z</time>
      </trkpt>
      <trkpt lat="43.66994" lon="5.15619">
        <ele>282.28</ele>
        <time>2021-09-25T09:08:39Z</time>
      </trkpt>
      <trkpt lat="43.66988" lon="5.15638">
        <ele>280.36</ele>
        <time>2021-09-25T09:08:46Z</time>
      </trkpt>
      <trkpt lat="43.6698" lon="5.15653">
        <ele>278.44</ele>
        <time>2021-09-25T09:08:50Z</time>
      </trkpt>
      <trkpt lat="43.66963" lon="5.15682">
        <ele>275.07</ele>
        <time>2021-09-25T09:08:56Z</time>
      </trkpt>
      <trkpt lat="43.66938" lon="5.15704">
        <ele>271.23</ele>
        <time>2021-09-25T09:09:02Z</time>
      </trkpt>
      <trkpt lat="43.66933" lon="5.15716">
        <ele>270.27</ele>
        <time>2021-09-25T09:09:04Z</time>
      </trkpt>
      <trkpt lat="43.66924" lon="5.15732">
        <ele>269.31</ele>
        <time>2021-09-25T09:09:07Z</time>
      </trkpt>
      <trkpt lat="43.66894" lon="5.15795">
        <ele>268.83</ele>
        <time>2021-09-25T09:09:18Z</time>
      </trkpt>
      <trkpt lat="43.66874" lon="5.15809">
        <ele>269.31</ele>
        <time>2021-09-25T09:09:24Z</time>
      </trkpt>
      <trkpt lat="43.6682" lon="5.15781">
        <ele>268.83</ele>
        <time>2021-09-25T09:09:41Z</time>
      </trkpt>
      <trkpt lat="43.66787" lon="5.15773">
        <ele>269.31</ele>
        <time>2021-09-25T09:09:55Z</time>
      </trkpt>
      <trkpt lat="43.66784" lon="5.15771">
        <ele>270.27</ele>
        <time>2021-09-25T09:10:14Z</time>
      </trkpt>
      <trkpt lat="43.66781" lon="5.15768">
        <ele>271.23</ele>
        <time>2021-09-25T09:10:32Z</time>
      </trkpt>
      <trkpt lat="43.66779" lon="5.15767">
        <ele>271.23</ele>
        <time>2021-09-25T09:10:37Z</time>
      </trkpt>
      <trkpt lat="43.66776" lon="5.15768">
        <ele>271.23</ele>
        <time>2021-09-25T09:10:42Z</time>
      </trkpt>
      <trkpt lat="43.66768" lon="5.15775">
        <ele>270.75</ele>
        <time>2021-09-25T09:10:46Z</time>
      </trkpt>
      <trkpt lat="43.66765" lon="5.15777">
        <ele>270.27</ele>
        <time>2021-09-25T09:10:47Z</time>
      </trkpt>
      <trkpt lat="43.66763" lon="5.15779">
        <ele>270.27</ele>
        <time>2021-09-25T09:10:48Z</time>
      </trkpt>
      <trkpt lat="43.6676" lon="5.1578">
        <ele>269.79</ele>
        <time>2021-09-25T09:10:49Z</time>
      </trkpt>
      <trkpt lat="43.6673" lon="5.15806">
        <ele>264.98</ele>
        <time>2021-09-25T09:11:00Z</time>
      </trkpt>
      <trkpt lat="43.66727" lon="5.1581">
        <ele>264.5</ele>
        <time>2021-09-25T09:11:01Z</time>
      </trkpt>
      <trkpt lat="43.66721" lon="5.15818">
        <ele>263.06</ele>
        <time>2021-09-25T09:11:03Z</time>
      </trkpt>
      <trkpt lat="43.66718" lon="5.15822">
        <ele>262.1</ele>
        <time>2021-09-25T09:11:04Z</time>
      </trkpt>
      <trkpt lat="43.66716" lon="5.15827">
        <ele>261.62</ele>
        <time>2021-09-25T09:11:05Z</time>
      </trkpt>
      <trkpt lat="43.66713" lon="5.15831">
        <ele>261.14</ele>
        <time>2021-09-25T09:11:06Z</time>
      </trkpt>
      <trkpt lat="43.66711" lon="5.15835">
        <ele>260.17</ele>
        <time>2021-09-25T09:11:07Z</time>
      </trkpt>
      <trkpt lat="43.66708" lon="5.15839">
        <ele>259.21</ele>
        <time>2021-09-25T09:11:08Z</time>
      </trkpt>
      <trkpt lat="43.66706" lon="5.15844">
        <ele>258.73</ele>
        <time>2021-09-25T09:11:09Z</time>
      </trkpt>
      <trkpt lat="43.66682" lon="5.15866">
        <ele>254.41</ele>
        <time>2021-09-25T09:11:17Z</time>
      </trkpt>
      <trkpt lat="43.6668" lon="5.1587">
        <ele>254.41</ele>
        <time>2021-09-25T09:11:18Z</time>
      </trkpt>
      <trkpt lat="43.66676" lon="5.1588">
        <ele>253.44</ele>
        <time>2021-09-25T09:11:20Z</time>
      </trkpt>
      <trkpt lat="43.66674" lon="5.15886">
        <ele>253.44</ele>
        <time>2021-09-25T09:11:21Z</time>
      </trkpt>
      <trkpt lat="43.66673" lon="5.15893">
        <ele>252.96</ele>
        <time>2021-09-25T09:11:22Z</time>
      </trkpt>
      <trkpt lat="43.66671" lon="5.15899">
        <ele>252.48</ele>
        <time>2021-09-25T09:11:23Z</time>
      </trkpt>
      <trkpt lat="43.66667" lon="5.15905">
        <ele>252</ele>
        <time>2021-09-25T09:11:24Z</time>
      </trkpt>
      <trkpt lat="43.66663" lon="5.15911">
        <ele>251.52</ele>
        <time>2021-09-25T09:11:25Z</time>
      </trkpt>
      <trkpt lat="43.66658" lon="5.15915">
        <ele>251.04</ele>
        <time>2021-09-25T09:11:26Z</time>
      </trkpt>
      <trkpt lat="43.66653" lon="5.15917">
        <ele>250.56</ele>
        <time>2021-09-25T09:11:27Z</time>
      </trkpt>
      <trkpt lat="43.66647" lon="5.15916">
        <ele>250.56</ele>
        <time>2021-09-25T09:11:28Z</time>
      </trkpt>
      <trkpt lat="43.66641" lon="5.15912">
        <ele>249.6</ele>
        <time>2021-09-25T09:11:29Z</time>
      </trkpt>
      <trkpt lat="43.66636" lon="5.15907">
        <ele>249.12</ele>
        <time>2021-09-25T09:11:30Z</time>
      </trkpt>
      <trkpt lat="43.66634" lon="5.15902">
        <ele>248.64</ele>
        <time>2021-09-25T09:11:31Z</time>
      </trkpt>
      <trkpt lat="43.66633" lon="5.15895">
        <ele>248.16</ele>
        <time>2021-09-25T09:11:32Z</time>
      </trkpt>
      <trkpt lat="43.66633" lon="5.15887">
        <ele>247.68</ele>
        <time>2021-09-25T09:11:33Z</time>
      </trkpt>
      <trkpt lat="43.66634" lon="5.15881">
        <ele>247.2</ele>
        <time>2021-09-25T09:11:34Z</time>
      </trkpt>
      <trkpt lat="43.66638" lon="5.15859">
        <ele>246.23</ele>
        <time>2021-09-25T09:11:37Z</time>
      </trkpt>
      <trkpt lat="43.66637" lon="5.15851">
        <ele>246.23</ele>
        <time>2021-09-25T09:11:38Z</time>
      </trkpt>
      <trkpt lat="43.66634" lon="5.15844">
        <ele>245.75</ele>
        <time>2021-09-25T09:11:39Z</time>
      </trkpt>
      <trkpt lat="43.66629" lon="5.1584">
        <ele>245.75</ele>
        <time>2021-09-25T09:11:40Z</time>
      </trkpt>
      <trkpt lat="43.66624" lon="5.15837">
        <ele>245.27</ele>
        <time>2021-09-25T09:11:41Z</time>
      </trkpt>
      <trkpt lat="43.66618" lon="5.15835">
        <ele>245.27</ele>
        <time>2021-09-25T09:11:42Z</time>
      </trkpt>
      <trkpt lat="43.66612" lon="5.15833">
        <ele>244.79</ele>
        <time>2021-09-25T09:11:43Z</time>
      </trkpt>
      <trkpt lat="43.66606" lon="5.15832">
        <ele>244.31</ele>
        <time>2021-09-25T09:11:44Z</time>
      </trkpt>
      <trkpt lat="43.66589" lon="5.15825">
        <ele>243.35</ele>
        <time>2021-09-25T09:11:47Z</time>
      </trkpt>
      <trkpt lat="43.66584" lon="5.1582">
        <ele>242.87</ele>
        <time>2021-09-25T09:11:48Z</time>
      </trkpt>
      <trkpt lat="43.66579" lon="5.15815">
        <ele>241.91</ele>
        <time>2021-09-25T09:11:49Z</time>
      </trkpt>
      <trkpt lat="43.66555" lon="5.15785">
        <ele>239.02</ele>
        <time>2021-09-25T09:11:58Z</time>
      </trkpt>
      <trkpt lat="43.66553" lon="5.15784">
        <ele>239.02</ele>
        <time>2021-09-25T09:11:59Z</time>
      </trkpt>
      <trkpt lat="43.66551" lon="5.15785">
        <ele>238.54</ele>
        <time>2021-09-25T09:12:00Z</time>
      </trkpt>
      <trkpt lat="43.6655" lon="5.15788">
        <ele>238.54</ele>
        <time>2021-09-25T09:12:01Z</time>
      </trkpt>
      <trkpt lat="43.66549" lon="5.15792">
        <ele>238.54</ele>
        <time>2021-09-25T09:12:02Z</time>
      </trkpt>
      <trkpt lat="43.66535" lon="5.15885">
        <ele>231.81</ele>
        <time>2021-09-25T09:12:15Z</time>
      </trkpt>
      <trkpt lat="43.66482" lon="5.16014">
        <ele>227.49</ele>
        <time>2021-09-25T09:12:32Z</time>
      </trkpt>
      <trkpt lat="43.66481" lon="5.1602">
        <ele>227.49</ele>
        <time>2021-09-25T09:12:33Z</time>
      </trkpt>
      <trkpt lat="43.66481" lon="5.16027">
        <ele>227.01</ele>
        <time>2021-09-25T09:12:34Z</time>
      </trkpt>
      <trkpt lat="43.66482" lon="5.16035">
        <ele>227.01</ele>
        <time>2021-09-25T09:12:35Z</time>
      </trkpt>
      <trkpt lat="43.66484" lon="5.16043">
        <ele>227.01</ele>
        <time>2021-09-25T09:12:36Z</time>
      </trkpt>
      <trkpt lat="43.66486" lon="5.16051">
        <ele>227.01</ele>
        <time>2021-09-25T09:12:37Z</time>
      </trkpt>
      <trkpt lat="43.66489" lon="5.1606">
        <ele>227.01</ele>
        <time>2021-09-25T09:12:38Z</time>
      </trkpt>
      <trkpt lat="43.66498" lon="5.16086">
        <ele>225.57</ele>
        <time>2021-09-25T09:12:41Z</time>
      </trkpt>
      <trkpt lat="43.66503" lon="5.16094">
        <ele>225.09</ele>
        <time>2021-09-25T09:12:42Z</time>
      </trkpt>
      <trkpt lat="43.66509" lon="5.161">
        <ele>224.61</ele>
        <time>2021-09-25T09:12:43Z</time>
      </trkpt>
      <trkpt lat="43.66514" lon="5.16105">
        <ele>224.12</ele>
        <time>2021-09-25T09:12:44Z</time>
      </trkpt>
      <trkpt lat="43.6652" lon="5.16109">
        <ele>224.12</ele>
        <time>2021-09-25T09:12:45Z</time>
      </trkpt>
      <trkpt lat="43.66526" lon="5.16114">
        <ele>224.12</ele>
        <time>2021-09-25T09:12:46Z</time>
      </trkpt>
      <trkpt lat="43.66555" lon="5.16134">
        <ele>223.64</ele>
        <time>2021-09-25T09:12:51Z</time>
      </trkpt>
      <trkpt lat="43.66559" lon="5.16139">
        <ele>223.16</ele>
        <time>2021-09-25T09:12:52Z</time>
      </trkpt>
      <trkpt lat="43.66562" lon="5.16145">
        <ele>223.16</ele>
        <time>2021-09-25T09:12:53Z</time>
      </trkpt>
      <trkpt lat="43.66564" lon="5.16153">
        <ele>223.16</ele>
        <time>2021-09-25T09:12:54Z</time>
      </trkpt>
      <trkpt lat="43.66565" lon="5.1616">
        <ele>223.16</ele>
        <time>2021-09-25T09:12:55Z</time>
      </trkpt>
      <trkpt lat="43.66566" lon="5.16167">
        <ele>223.16</ele>
        <time>2021-09-25T09:12:56Z</time>
      </trkpt>
      <trkpt lat="43.66566" lon="5.16173">
        <ele>223.16</ele>
        <time>2021-09-25T09:12:57Z</time>
      </trkpt>
      <trkpt lat="43.66565" lon="5.1618">
        <ele>223.16</ele>
        <time>2021-09-25T09:12:58Z</time>
      </trkpt>
      <trkpt lat="43.66562" lon="5.16186">
        <ele>223.16</ele>
        <time>2021-09-25T09:12:59Z</time>
      </trkpt>
      <trkpt lat="43.66554" lon="5.162">
        <ele>224.12</ele>
        <time>2021-09-25T09:13:02Z</time>
      </trkpt>
      <trkpt lat="43.66482" lon="5.16285">
        <ele>228.45</ele>
        <time>2021-09-25T09:13:26Z</time>
      </trkpt>
      <trkpt lat="43.66491" lon="5.1636">
        <ele>231.81</ele>
        <time>2021-09-25T09:13:42Z</time>
      </trkpt>
      <trkpt lat="43.66456" lon="5.16422">
        <ele>235.66</ele>
        <time>2021-09-25T09:13:59Z</time>
      </trkpt>
      <trkpt lat="43.66394" lon="5.16473">
        <ele>240.47</ele>
        <time>2021-09-25T09:14:21Z</time>
      </trkpt>
      <trkpt lat="43.66365" lon="5.16495">
        <ele>242.39</ele>
        <time>2021-09-25T09:14:31Z</time>
      </trkpt>
      <trkpt lat="43.66365" lon="5.16499">
        <ele>242.87</ele>
        <time>2021-09-25T09:14:32Z</time>
      </trkpt>
      <trkpt lat="43.66365" lon="5.16504">
        <ele>242.87</ele>
        <time>2021-09-25T09:14:33Z</time>
      </trkpt>
      <trkpt lat="43.66365" lon="5.16509">
        <ele>243.35</ele>
        <time>2021-09-25T09:14:34Z</time>
      </trkpt>
      <trkpt lat="43.66366" lon="5.16513">
        <ele>243.35</ele>
        <time>2021-09-25T09:14:35Z</time>
      </trkpt>
      <trkpt lat="43.66404" lon="5.16596">
        <ele>245.75</ele>
        <time>2021-09-25T09:14:56Z</time>
      </trkpt>
      <trkpt lat="43.66408" lon="5.16601">
        <ele>246.23</ele>
        <time>2021-09-25T09:15:15Z</time>
      </trkpt>
      <trkpt lat="43.66413" lon="5.16601">
        <ele>245.75</ele>
        <time>2021-09-25T09:15:48Z</time>
      </trkpt>
      <trkpt lat="43.66428" lon="5.16609">
        <ele>244.31</ele>
        <time>2021-09-25T09:16:06Z</time>
      </trkpt>
      <trkpt lat="43.66511" lon="5.16586">
        <ele>238.54</ele>
        <time>2021-09-25T09:16:21Z</time>
      </trkpt>
      <trkpt lat="43.66515" lon="5.16581">
        <ele>238.06</ele>
        <time>2021-09-25T09:16:22Z</time>
      </trkpt>
      <trkpt lat="43.6652" lon="5.16576">
        <ele>237.58</ele>
        <time>2021-09-25T09:16:23Z</time>
      </trkpt>
      <trkpt lat="43.66525" lon="5.16573">
        <ele>237.58</ele>
        <time>2021-09-25T09:16:24Z</time>
      </trkpt>
      <trkpt lat="43.66531" lon="5.16571">
        <ele>237.1</ele>
        <time>2021-09-25T09:16:25Z</time>
      </trkpt>
      <trkpt lat="43.66536" lon="5.16572">
        <ele>236.62</ele>
        <time>2021-09-25T09:16:26Z</time>
      </trkpt>
      <trkpt lat="43.66541" lon="5.16576">
        <ele>236.62</ele>
        <time>2021-09-25T09:16:27Z</time>
      </trkpt>
      <trkpt lat="43.66544" lon="5.1658">
        <ele>236.14</ele>
        <time>2021-09-25T09:16:28Z</time>
      </trkpt>
      <trkpt lat="43.66545" lon="5.16587">
        <ele>236.14</ele>
        <time>2021-09-25T09:16:29Z</time>
      </trkpt>
      <trkpt lat="43.66544" lon="5.16594">
        <ele>235.66</ele>
        <time>2021-09-25T09:16:30Z</time>
      </trkpt>
      <trkpt lat="43.66542" lon="5.16601">
        <ele>235.18</ele>
        <time>2021-09-25T09:16:31Z</time>
      </trkpt>
      <trkpt lat="43.66537" lon="5.16618">
        <ele>233.74</ele>
        <time>2021-09-25T09:16:33Z</time>
      </trkpt>
      <trkpt lat="43.6651" lon="5.16711">
        <ele>227.01</ele>
        <time>2021-09-25T09:16:43Z</time>
      </trkpt>
      <trkpt lat="43.66509" lon="5.1672">
        <ele>226.05</ele>
        <time>2021-09-25T09:16:44Z</time>
      </trkpt>
      <trkpt lat="43.6651" lon="5.1673">
        <ele>225.57</ele>
        <time>2021-09-25T09:16:45Z</time>
      </trkpt>
      <trkpt lat="43.66513" lon="5.16739">
        <ele>225.09</ele>
        <time>2021-09-25T09:16:46Z</time>
      </trkpt>
      <trkpt lat="43.66515" lon="5.16747">
        <ele>224.12</ele>
        <time>2021-09-25T09:16:47Z</time>
      </trkpt>
      <trkpt lat="43.66516" lon="5.16757">
        <ele>223.64</ele>
        <time>2021-09-25T09:16:48Z</time>
      </trkpt>
      <trkpt lat="43.66517" lon="5.16767">
        <ele>222.68</ele>
        <time>2021-09-25T09:16:49Z</time>
      </trkpt>
      <trkpt lat="43.6652" lon="5.16798">
        <ele>220.28</ele>
        <time>2021-09-25T09:16:52Z</time>
      </trkpt>
      <trkpt lat="43.66523" lon="5.16808">
        <ele>219.8</ele>
        <time>2021-09-25T09:16:53Z</time>
      </trkpt>
      <trkpt lat="43.66526" lon="5.16818">
        <ele>219.32</ele>
        <time>2021-09-25T09:16:54Z</time>
      </trkpt>
      <trkpt lat="43.66604" lon="5.16972">
        <ele>217.4</ele>
        <time>2021-09-25T09:17:14Z</time>
      </trkpt>
      <trkpt lat="43.66669" lon="5.17064">
        <ele>216.43</ele>
        <time>2021-09-25T09:17:29Z</time>
      </trkpt>
      <trkpt lat="43.66672" lon="5.17071">
        <ele>216.43</ele>
        <time>2021-09-25T09:17:30Z</time>
      </trkpt>
      <trkpt lat="43.66723" lon="5.17155">
        <ele>216.91</ele>
        <time>2021-09-25T09:17:45Z</time>
      </trkpt>
      <trkpt lat="43.66726" lon="5.1716">
        <ele>217.4</ele>
        <time>2021-09-25T09:17:46Z</time>
      </trkpt>
      <trkpt lat="43.66765" lon="5.17239">
        <ele>217.88</ele>
        <time>2021-09-25T09:18:00Z</time>
      </trkpt>
      <trkpt lat="43.66767" lon="5.17245">
        <ele>218.36</ele>
        <time>2021-09-25T09:18:01Z</time>
      </trkpt>
      <trkpt lat="43.66769" lon="5.17251">
        <ele>218.36</ele>
        <time>2021-09-25T09:18:02Z</time>
      </trkpt>
      <trkpt lat="43.66771" lon="5.17257">
        <ele>218.36</ele>
        <time>2021-09-25T09:18:03Z</time>
      </trkpt>
      <trkpt lat="43.66772" lon="5.17263">
        <ele>218.36</ele>
        <time>2021-09-25T09:18:04Z</time>
      </trkpt>
      <trkpt lat="43.66772" lon="5.17269">
        <ele>218.84</ele>
        <time>2021-09-25T09:18:05Z</time>
      </trkpt>
      <trkpt lat="43.66773" lon="5.17275">
        <ele>218.84</ele>
        <time>2021-09-25T09:18:06Z</time>
      </trkpt>
      <trkpt lat="43.66774" lon="5.1728">
        <ele>218.84</ele>
        <time>2021-09-25T09:18:07Z</time>
      </trkpt>
      <trkpt lat="43.66774" lon="5.17285">
        <ele>219.32</ele>
        <time>2021-09-25T09:18:08Z</time>
      </trkpt>
      <trkpt lat="43.66808" lon="5.17335">
        <ele>226.05</ele>
        <time>2021-09-25T09:18:28Z</time>
      </trkpt>
      <trkpt lat="43.6684" lon="5.17384">
        <ele>229.89</ele>
        <time>2021-09-25T09:18:46Z</time>
      </trkpt>
      <trkpt lat="43.66868" lon="5.17414">
        <ele>226.53</ele>
        <time>2021-09-25T09:18:52Z</time>
      </trkpt>
      <trkpt lat="43.66874" lon="5.17417">
        <ele>226.05</ele>
        <time>2021-09-25T09:18:53Z</time>
      </trkpt>
      <trkpt lat="43.66879" lon="5.1742">
        <ele>225.57</ele>
        <time>2021-09-25T09:18:54Z</time>
      </trkpt>
      <trkpt lat="43.66885" lon="5.17421">
        <ele>225.09</ele>
        <time>2021-09-25T09:18:55Z</time>
      </trkpt>
      <trkpt lat="43.6689" lon="5.17423">
        <ele>224.61</ele>
        <time>2021-09-25T09:18:56Z</time>
      </trkpt>
      <trkpt lat="43.66949" lon="5.17438">
        <ele>219.8</ele>
        <time>2021-09-25T09:19:05Z</time>
      </trkpt>
      <trkpt lat="43.66955" lon="5.17438">
        <ele>219.32</ele>
        <time>2021-09-25T09:19:06Z</time>
      </trkpt>
      <trkpt lat="43.66962" lon="5.17438">
        <ele>219.32</ele>
        <time>2021-09-25T09:19:07Z</time>
      </trkpt>
      <trkpt lat="43.66967" lon="5.17438">
        <ele>218.84</ele>
        <time>2021-09-25T09:19:08Z</time>
      </trkpt>
      <trkpt lat="43.66973" lon="5.1744">
        <ele>218.84</ele>
        <time>2021-09-25T09:19:09Z</time>
      </trkpt>
      <trkpt lat="43.66979" lon="5.17442">
        <ele>218.84</ele>
        <time>2021-09-25T09:19:10Z</time>
      </trkpt>
      <trkpt lat="43.66995" lon="5.17446">
        <ele>218.84</ele>
        <time>2021-09-25T09:19:13Z</time>
      </trkpt>
      <trkpt lat="43.67017" lon="5.17446">
        <ele>218.84</ele>
        <time>2021-09-25T09:19:17Z</time>
      </trkpt>
      <trkpt lat="43.67021" lon="5.17445">
        <ele>218.84</ele>
        <time>2021-09-25T09:19:18Z</time>
      </trkpt>
      <trkpt lat="43.67039" lon="5.17443">
        <ele>219.32</ele>
        <time>2021-09-25T09:19:22Z</time>
      </trkpt>
      <trkpt lat="43.67044" lon="5.17444">
        <ele>219.8</ele>
        <time>2021-09-25T09:19:23Z</time>
      </trkpt>
      <trkpt lat="43.67061" lon="5.17449">
        <ele>220.28</ele>
        <time>2021-09-25T09:19:27Z</time>
      </trkpt>
      <trkpt lat="43.67065" lon="5.17452">
        <ele>220.76</ele>
        <time>2021-09-25T09:19:28Z</time>
      </trkpt>
      <trkpt lat="43.67069" lon="5.17455">
        <ele>220.76</ele>
        <time>2021-09-25T09:19:29Z</time>
      </trkpt>
      <trkpt lat="43.67092" lon="5.17484">
        <ele>223.64</ele>
        <time>2021-09-25T09:19:37Z</time>
      </trkpt>
      <trkpt lat="43.67096" lon="5.17488">
        <ele>223.64</ele>
        <time>2021-09-25T09:19:38Z</time>
      </trkpt>
      <trkpt lat="43.671" lon="5.17491">
        <ele>223.64</ele>
        <time>2021-09-25T09:19:39Z</time>
      </trkpt>
      <trkpt lat="43.67105" lon="5.17494">
        <ele>223.64</ele>
        <time>2021-09-25T09:19:40Z</time>
      </trkpt>
      <trkpt lat="43.6711" lon="5.17495">
        <ele>223.64</ele>
        <time>2021-09-25T09:19:41Z</time>
      </trkpt>
      <trkpt lat="43.67115" lon="5.17497">
        <ele>223.64</ele>
        <time>2021-09-25T09:19:42Z</time>
      </trkpt>
      <trkpt lat="43.67197" lon="5.17526">
        <ele>226.05</ele>
        <time>2021-09-25T09:20:00Z</time>
      </trkpt>
      <trkpt lat="43.67205" lon="5.1753">
        <ele>226.05</ele>
        <time>2021-09-25T09:20:02Z</time>
      </trkpt>
      <trkpt lat="43.67209" lon="5.17532">
        <ele>226.53</ele>
        <time>2021-09-25T09:20:03Z</time>
      </trkpt>
      <trkpt lat="43.67258" lon="5.17572">
        <ele>230.37</ele>
        <time>2021-09-25T09:20:21Z</time>
      </trkpt>
      <trkpt lat="43.67252" lon="5.17636">
        <ele>236.62</ele>
        <time>2021-09-25T09:20:39Z</time>
      </trkpt>
      <trkpt lat="43.67257" lon="5.17665">
        <ele>238.06</ele>
        <time>2021-09-25T09:20:57Z</time>
      </trkpt>
      <trkpt lat="43.67259" lon="5.1767">
        <ele>236.14</ele>
        <time>2021-09-25T09:21:24Z</time>
      </trkpt>
      <trkpt lat="43.67259" lon="5.17672">
        <ele>236.14</ele>
        <time>2021-09-25T09:21:25Z</time>
      </trkpt>
      <trkpt lat="43.67259" lon="5.17674">
        <ele>236.62</ele>
        <time>2021-09-25T09:21:26Z</time>
      </trkpt>
      <trkpt lat="43.67259" lon="5.17678">
        <ele>236.62</ele>
        <time>2021-09-25T09:21:27Z</time>
      </trkpt>
      <trkpt lat="43.6726" lon="5.17682">
        <ele>236.62</ele>
        <time>2021-09-25T09:21:28Z</time>
      </trkpt>
      <trkpt lat="43.67262" lon="5.17685">
        <ele>236.62</ele>
        <time>2021-09-25T09:21:29Z</time>
      </trkpt>
      <trkpt lat="43.67263" lon="5.17688">
        <ele>236.62</ele>
        <time>2021-09-25T09:21:30Z</time>
      </trkpt>
      <trkpt lat="43.67268" lon="5.17708">
        <ele>237.58</ele>
        <time>2021-09-25T09:21:36Z</time>
      </trkpt>
      <trkpt lat="43.67305" lon="5.17796">
        <ele>236.14</ele>
        <time>2021-09-25T09:21:56Z</time>
      </trkpt>
      <trkpt lat="43.6732" lon="5.1783">
        <ele>235.66</ele>
        <time>2021-09-25T09:22:03Z</time>
      </trkpt>
      <trkpt lat="43.67329" lon="5.17917">
        <ele>234.7</ele>
        <time>2021-09-25T09:22:23Z</time>
      </trkpt>
      <trkpt lat="43.673" lon="5.17956">
        <ele>236.62</ele>
        <time>2021-09-25T09:22:36Z</time>
      </trkpt>
      <trkpt lat="43.67281" lon="5.18">
        <ele>238.54</ele>
        <time>2021-09-25T09:22:52Z</time>
      </trkpt>
      <trkpt lat="43.67302" lon="5.18055">
        <ele>238.06</ele>
        <time>2021-09-25T09:23:06Z</time>
      </trkpt>
      <trkpt lat="43.67306" lon="5.18065">
        <ele>237.58</ele>
        <time>2021-09-25T09:23:08Z</time>
      </trkpt>
      <trkpt lat="43.67329" lon="5.18093">
        <ele>236.14</ele>
        <time>2021-09-25T09:23:15Z</time>
      </trkpt>
      <trkpt lat="43.67351" lon="5.18223">
        <ele>237.1</ele>
        <time>2021-09-25T09:23:36Z</time>
      </trkpt>
      <trkpt lat="43.67356" lon="5.18263">
        <ele>239.02</ele>
        <time>2021-09-25T09:23:44Z</time>
      </trkpt>
      <trkpt lat="43.67366" lon="5.18289">
        <ele>239.02</ele>
        <time>2021-09-25T09:23:49Z</time>
      </trkpt>
      <trkpt lat="43.67384" lon="5.18374">
        <ele>240.47</ele>
        <time>2021-09-25T09:24:06Z</time>
      </trkpt>
      <trkpt lat="43.67394" lon="5.18398">
        <ele>238.54</ele>
        <time>2021-09-25T09:24:10Z</time>
      </trkpt>
      <trkpt lat="43.67411" lon="5.18429">
        <ele>236.14</ele>
        <time>2021-09-25T09:24:15Z</time>
      </trkpt>
      <trkpt lat="43.67417" lon="5.18454">
        <ele>234.7</ele>
        <time>2021-09-25T09:24:20Z</time>
      </trkpt>
      <trkpt lat="43.67417" lon="5.18457">
        <ele>234.7</ele>
        <time>2021-09-25T09:24:21Z</time>
      </trkpt>
      <trkpt lat="43.67407" lon="5.18472">
        <ele>236.14</ele>
        <time>2021-09-25T09:24:28Z</time>
      </trkpt>
      <trkpt lat="43.67406" lon="5.18474">
        <ele>236.14</ele>
        <time>2021-09-25T09:24:29Z</time>
      </trkpt>
      <trkpt lat="43.67405" lon="5.18476">
        <ele>236.62</ele>
        <time>2021-09-25T09:24:30Z</time>
      </trkpt>
      <trkpt lat="43.67368" lon="5.18522">
        <ele>242.87</ele>
        <time>2021-09-25T09:24:50Z</time>
      </trkpt>
      <trkpt lat="43.67325" lon="5.18559">
        <ele>248.64</ele>
        <time>2021-09-25T09:25:09Z</time>
      </trkpt>
      <trkpt lat="43.67275" lon="5.18593">
        <ele>250.08</ele>
        <time>2021-09-25T09:25:28Z</time>
      </trkpt>
      <trkpt lat="43.67263" lon="5.18606">
        <ele>250.56</ele>
        <time>2021-09-25T09:25:34Z</time>
      </trkpt>
      <trkpt lat="43.67262" lon="5.18608">
        <ele>250.56</ele>
        <time>2021-09-25T09:25:51Z</time>
      </trkpt>
      <trkpt lat="43.6726" lon="5.18611">
        <ele>251.52</ele>
        <time>2021-09-25T09:26:33Z</time>
      </trkpt>
      <trkpt lat="43.67259" lon="5.1861">
        <ele>251.52</ele>
        <time>2021-09-25T09:27:01Z</time>
      </trkpt>
      <trkpt lat="43.67259" lon="5.18611">
        <ele>251.52</ele>
        <time>2021-09-25T09:27:06Z</time>
      </trkpt>
      <trkpt lat="43.67259" lon="5.18613">
        <ele>251.52</ele>
        <time>2021-09-25T09:27:07Z</time>
      </trkpt>
      <trkpt lat="43.67259" lon="5.18618">
        <ele>251.52</ele>
        <time>2021-09-25T09:27:09Z</time>
      </trkpt>
      <trkpt lat="43.67257" lon="5.1862">
        <ele>251.52</ele>
        <time>2021-09-25T09:27:10Z</time>
      </trkpt>
      <trkpt lat="43.67255" lon="5.18621">
        <ele>251.04</ele>
        <time>2021-09-25T09:27:11Z</time>
      </trkpt>
      <trkpt lat="43.67253" lon="5.18622">
        <ele>251.04</ele>
        <time>2021-09-25T09:27:12Z</time>
      </trkpt>
      <trkpt lat="43.6725" lon="5.18623">
        <ele>250.56</ele>
        <time>2021-09-25T09:27:13Z</time>
      </trkpt>
      <trkpt lat="43.67248" lon="5.18625">
        <ele>250.08</ele>
        <time>2021-09-25T09:27:14Z</time>
      </trkpt>
      <trkpt lat="43.67245" lon="5.18626">
        <ele>249.12</ele>
        <time>2021-09-25T09:27:15Z</time>
      </trkpt>
      <trkpt lat="43.67242" lon="5.18627">
        <ele>248.64</ele>
        <time>2021-09-25T09:27:16Z</time>
      </trkpt>
      <trkpt lat="43.67239" lon="5.18627">
        <ele>247.68</ele>
        <time>2021-09-25T09:27:17Z</time>
      </trkpt>
      <trkpt lat="43.67235" lon="5.18626">
        <ele>247.2</ele>
        <time>2021-09-25T09:27:18Z</time>
      </trkpt>
      <trkpt lat="43.67232" lon="5.18625">
        <ele>246.72</ele>
        <time>2021-09-25T09:27:19Z</time>
      </trkpt>
      <trkpt lat="43.67229" lon="5.18626">
        <ele>245.75</ele>
        <time>2021-09-25T09:27:20Z</time>
      </trkpt>
      <trkpt lat="43.67225" lon="5.18627">
        <ele>245.27</ele>
        <time>2021-09-25T09:27:21Z</time>
      </trkpt>
      <trkpt lat="43.67221" lon="5.18627">
        <ele>244.79</ele>
        <time>2021-09-25T09:27:22Z</time>
      </trkpt>
      <trkpt lat="43.67217" lon="5.18627">
        <ele>244.31</ele>
        <time>2021-09-25T09:27:23Z</time>
      </trkpt>
      <trkpt lat="43.67214" lon="5.18628">
        <ele>243.83</ele>
        <time>2021-09-25T09:27:24Z</time>
      </trkpt>
      <trkpt lat="43.67212" lon="5.1863">
        <ele>243.35</ele>
        <time>2021-09-25T09:27:25Z</time>
      </trkpt>
      <trkpt lat="43.67209" lon="5.18632">
        <ele>242.87</ele>
        <time>2021-09-25T09:27:26Z</time>
      </trkpt>
      <trkpt lat="43.67189" lon="5.18645">
        <ele>237.58</ele>
        <time>2021-09-25T09:27:33Z</time>
      </trkpt>
      <trkpt lat="43.67185" lon="5.18647">
        <ele>236.62</ele>
        <time>2021-09-25T09:27:34Z</time>
      </trkpt>
      <trkpt lat="43.67176" lon="5.18651">
        <ele>235.66</ele>
        <time>2021-09-25T09:27:36Z</time>
      </trkpt>
      <trkpt lat="43.67172" lon="5.18655">
        <ele>235.18</ele>
        <time>2021-09-25T09:27:37Z</time>
      </trkpt>
      <trkpt lat="43.67169" lon="5.18659">
        <ele>235.18</ele>
        <time>2021-09-25T09:27:38Z</time>
      </trkpt>
      <trkpt lat="43.67165" lon="5.18662">
        <ele>234.7</ele>
        <time>2021-09-25T09:27:39Z</time>
      </trkpt>
      <trkpt lat="43.67162" lon="5.18665">
        <ele>234.22</ele>
        <time>2021-09-25T09:27:40Z</time>
      </trkpt>
      <trkpt lat="43.67145" lon="5.18678">
        <ele>233.74</ele>
        <time>2021-09-25T09:27:46Z</time>
      </trkpt>
      <trkpt lat="43.67133" lon="5.18686">
        <ele>233.74</ele>
        <time>2021-09-25T09:27:49Z</time>
      </trkpt>
      <trkpt lat="43.67125" lon="5.18691">
        <ele>233.26</ele>
        <time>2021-09-25T09:27:51Z</time>
      </trkpt>
      <trkpt lat="43.67121" lon="5.18693">
        <ele>233.26</ele>
        <time>2021-09-25T09:27:52Z</time>
      </trkpt>
      <trkpt lat="43.67117" lon="5.18695">
        <ele>233.74</ele>
        <time>2021-09-25T09:27:53Z</time>
      </trkpt>
      <trkpt lat="43.67108" lon="5.18699">
        <ele>233.74</ele>
        <time>2021-09-25T09:27:55Z</time>
      </trkpt>
      <trkpt lat="43.67077" lon="5.1872">
        <ele>234.22</ele>
        <time>2021-09-25T09:28:02Z</time>
      </trkpt>
      <trkpt lat="43.67072" lon="5.18722">
        <ele>233.74</ele>
        <time>2021-09-25T09:28:03Z</time>
      </trkpt>
      <trkpt lat="43.67067" lon="5.18724">
        <ele>233.26</ele>
        <time>2021-09-25T09:28:04Z</time>
      </trkpt>
      <trkpt lat="43.67062" lon="5.18726">
        <ele>232.3</ele>
        <time>2021-09-25T09:28:05Z</time>
      </trkpt>
      <trkpt lat="43.67057" lon="5.18727">
        <ele>231.81</ele>
        <time>2021-09-25T09:28:06Z</time>
      </trkpt>
      <trkpt lat="43.67051" lon="5.18728">
        <ele>231.33</ele>
        <time>2021-09-25T09:28:07Z</time>
      </trkpt>
      <trkpt lat="43.67045" lon="5.18729">
        <ele>230.85</ele>
        <time>2021-09-25T09:28:08Z</time>
      </trkpt>
      <trkpt lat="43.6704" lon="5.18731">
        <ele>230.37</ele>
        <time>2021-09-25T09:28:09Z</time>
      </trkpt>
      <trkpt lat="43.67034" lon="5.18732">
        <ele>229.89</ele>
        <time>2021-09-25T09:28:10Z</time>
      </trkpt>
      <trkpt lat="43.6703" lon="5.18733">
        <ele>229.41</ele>
        <time>2021-09-25T09:28:11Z</time>
      </trkpt>
      <trkpt lat="43.67026" lon="5.18736">
        <ele>229.41</ele>
        <time>2021-09-25T09:28:12Z</time>
      </trkpt>
      <trkpt lat="43.67021" lon="5.18738">
        <ele>228.93</ele>
        <time>2021-09-25T09:28:13Z</time>
      </trkpt>
      <trkpt lat="43.67016" lon="5.18739">
        <ele>228.93</ele>
        <time>2021-09-25T09:28:14Z</time>
      </trkpt>
      <trkpt lat="43.67011" lon="5.1874">
        <ele>228.45</ele>
        <time>2021-09-25T09:28:15Z</time>
      </trkpt>
      <trkpt lat="43.67006" lon="5.18741">
        <ele>228.45</ele>
        <time>2021-09-25T09:28:16Z</time>
      </trkpt>
      <trkpt lat="43.67002" lon="5.18743">
        <ele>228.45</ele>
        <time>2021-09-25T09:28:17Z</time>
      </trkpt>
      <trkpt lat="43.66997" lon="5.18744">
        <ele>228.93</ele>
        <time>2021-09-25T09:28:18Z</time>
      </trkpt>
      <trkpt lat="43.66989" lon="5.18745">
        <ele>229.41</ele>
        <time>2021-09-25T09:28:20Z</time>
      </trkpt>
      <trkpt lat="43.66985" lon="5.18745">
        <ele>229.41</ele>
        <time>2021-09-25T09:28:21Z</time>
      </trkpt>
      <trkpt lat="43.66971" lon="5.18743">
        <ele>228.93</ele>
        <time>2021-09-25T09:28:24Z</time>
      </trkpt>
      <trkpt lat="43.66966" lon="5.18744">
        <ele>228.93</ele>
        <time>2021-09-25T09:28:25Z</time>
      </trkpt>
      <trkpt lat="43.66962" lon="5.18746">
        <ele>228.45</ele>
        <time>2021-09-25T09:28:26Z</time>
      </trkpt>
      <trkpt lat="43.66959" lon="5.1875">
        <ele>227.97</ele>
        <time>2021-09-25T09:28:27Z</time>
      </trkpt>
      <trkpt lat="43.66956" lon="5.18755">
        <ele>227.97</ele>
        <time>2021-09-25T09:28:28Z</time>
      </trkpt>
      <trkpt lat="43.66952" lon="5.18758">
        <ele>227.49</ele>
        <time>2021-09-25T09:28:29Z</time>
      </trkpt>
      <trkpt lat="43.66947" lon="5.1876">
        <ele>227.01</ele>
        <time>2021-09-25T09:28:30Z</time>
      </trkpt>
      <trkpt lat="43.66942" lon="5.18762">
        <ele>227.01</ele>
        <time>2021-09-25T09:28:31Z</time>
      </trkpt>
      <trkpt lat="43.66937" lon="5.18763">
        <ele>227.01</ele>
        <time>2021-09-25T09:28:32Z</time>
      </trkpt>
      <trkpt lat="43.66932" lon="5.18763">
        <ele>227.01</ele>
        <time>2021-09-25T09:28:33Z</time>
      </trkpt>
      <trkpt lat="43.66927" lon="5.18763">
        <ele>227.01</ele>
        <time>2021-09-25T09:28:34Z</time>
      </trkpt>
      <trkpt lat="43.66922" lon="5.18764">
        <ele>227.01</ele>
        <time>2021-09-25T09:28:35Z</time>
      </trkpt>
      <trkpt lat="43.66917" lon="5.18765">
        <ele>227.01</ele>
        <time>2021-09-25T09:28:36Z</time>
      </trkpt>
      <trkpt lat="43.66913" lon="5.18764">
        <ele>227.01</ele>
        <time>2021-09-25T09:28:37Z</time>
      </trkpt>
      <trkpt lat="43.66908" lon="5.18763">
        <ele>227.01</ele>
        <time>2021-09-25T09:28:38Z</time>
      </trkpt>
      <trkpt lat="43.66903" lon="5.18764">
        <ele>227.01</ele>
        <time>2021-09-25T09:28:39Z</time>
      </trkpt>
      <trkpt lat="43.66899" lon="5.18765">
        <ele>226.53</ele>
        <time>2021-09-25T09:28:40Z</time>
      </trkpt>
      <trkpt lat="43.66894" lon="5.18766">
        <ele>226.53</ele>
        <time>2021-09-25T09:28:41Z</time>
      </trkpt>
      <trkpt lat="43.66888" lon="5.18767">
        <ele>226.05</ele>
        <time>2021-09-25T09:28:42Z</time>
      </trkpt>
      <trkpt lat="43.66848" lon="5.18772">
        <ele>225.09</ele>
        <time>2021-09-25T09:28:49Z</time>
      </trkpt>
      <trkpt lat="43.66842" lon="5.18771">
        <ele>224.61</ele>
        <time>2021-09-25T09:28:50Z</time>
      </trkpt>
      <trkpt lat="43.66836" lon="5.18769">
        <ele>224.12</ele>
        <time>2021-09-25T09:28:51Z</time>
      </trkpt>
      <trkpt lat="43.66777" lon="5.18752">
        <ele>220.76</ele>
        <time>2021-09-25T09:29:02Z</time>
      </trkpt>
      <trkpt lat="43.66766" lon="5.18747">
        <ele>220.28</ele>
        <time>2021-09-25T09:29:04Z</time>
      </trkpt>
      <trkpt lat="43.66761" lon="5.18746">
        <ele>219.8</ele>
        <time>2021-09-25T09:29:05Z</time>
      </trkpt>
      <trkpt lat="43.66705" lon="5.18757">
        <ele>219.32</ele>
        <time>2021-09-25T09:29:15Z</time>
      </trkpt>
      <trkpt lat="43.667" lon="5.18757">
        <ele>219.32</ele>
        <time>2021-09-25T09:29:16Z</time>
      </trkpt>
      <trkpt lat="43.66695" lon="5.18756">
        <ele>219.32</ele>
        <time>2021-09-25T09:29:17Z</time>
      </trkpt>
      <trkpt lat="43.6669" lon="5.18755">
        <ele>219.32</ele>
        <time>2021-09-25T09:29:18Z</time>
      </trkpt>
      <trkpt lat="43.66683" lon="5.18754">
        <ele>219.32</ele>
        <time>2021-09-25T09:29:19Z</time>
      </trkpt>
      <trkpt lat="43.66678" lon="5.18755">
        <ele>219.32</ele>
        <time>2021-09-25T09:29:20Z</time>
      </trkpt>
      <trkpt lat="43.66672" lon="5.18756">
        <ele>219.32</ele>
        <time>2021-09-25T09:29:21Z</time>
      </trkpt>
      <trkpt lat="43.66637" lon="5.18765">
        <ele>218.36</ele>
        <time>2021-09-25T09:29:27Z</time>
      </trkpt>
      <trkpt lat="43.66633" lon="5.18769">
        <ele>218.36</ele>
        <time>2021-09-25T09:29:28Z</time>
      </trkpt>
      <trkpt lat="43.66629" lon="5.18772">
        <ele>217.88</ele>
        <time>2021-09-25T09:29:29Z</time>
      </trkpt>
      <trkpt lat="43.66625" lon="5.18775">
        <ele>217.88</ele>
        <time>2021-09-25T09:29:30Z</time>
      </trkpt>
      <trkpt lat="43.66621" lon="5.18777">
        <ele>217.4</ele>
        <time>2021-09-25T09:29:31Z</time>
      </trkpt>
      <trkpt lat="43.66616" lon="5.18779">
        <ele>217.4</ele>
        <time>2021-09-25T09:29:32Z</time>
      </trkpt>
      <trkpt lat="43.66611" lon="5.18778">
        <ele>217.4</ele>
        <time>2021-09-25T09:29:33Z</time>
      </trkpt>
      <trkpt lat="43.66607" lon="5.18778">
        <ele>217.88</ele>
        <time>2021-09-25T09:29:34Z</time>
      </trkpt>
      <trkpt lat="43.66603" lon="5.18779">
        <ele>218.36</ele>
        <time>2021-09-25T09:29:35Z</time>
      </trkpt>
      <trkpt lat="43.66599" lon="5.18778">
        <ele>218.84</ele>
        <time>2021-09-25T09:29:36Z</time>
      </trkpt>
      <trkpt lat="43.66595" lon="5.18777">
        <ele>219.32</ele>
        <time>2021-09-25T09:29:37Z</time>
      </trkpt>
      <trkpt lat="43.66562" lon="5.18785">
        <ele>221.24</ele>
        <time>2021-09-25T09:29:50Z</time>
      </trkpt>
      <trkpt lat="43.66562" lon="5.18783">
        <ele>221.24</ele>
        <time>2021-09-25T09:30:21Z</time>
      </trkpt>
      <trkpt lat="43.66561" lon="5.18784">
        <ele>223.16</ele>
        <time>2021-09-25T09:30:56Z</time>
      </trkpt>
      <trkpt lat="43.6656" lon="5.18784">
        <ele>223.64</ele>
        <time>2021-09-25T09:31:24Z</time>
      </trkpt>
      <trkpt lat="43.66559" lon="5.18784">
        <ele>222.2</ele>
        <time>2021-09-25T09:31:49Z</time>
      </trkpt>
      <trkpt lat="43.66556" lon="5.18784">
        <ele>222.2</ele>
        <time>2021-09-25T09:31:51Z</time>
      </trkpt>
      <trkpt lat="43.66555" lon="5.18784">
        <ele>221.72</ele>
        <time>2021-09-25T09:31:52Z</time>
      </trkpt>
      <trkpt lat="43.66531" lon="5.18786">
        <ele>220.76</ele>
        <time>2021-09-25T09:31:59Z</time>
      </trkpt>
      <trkpt lat="43.66517" lon="5.18792">
        <ele>219.8</ele>
        <time>2021-09-25T09:32:02Z</time>
      </trkpt>
      <trkpt lat="43.665" lon="5.188">
        <ele>218.36</ele>
        <time>2021-09-25T09:32:05Z</time>
      </trkpt>
      <trkpt lat="43.6643" lon="5.18827">
        <ele>215.47</ele>
        <time>2021-09-25T09:32:18Z</time>
      </trkpt>
      <trkpt lat="43.66394" lon="5.18844">
        <ele>214.03</ele>
        <time>2021-09-25T09:32:25Z</time>
      </trkpt>
      <trkpt lat="43.66389" lon="5.18846">
        <ele>214.03</ele>
        <time>2021-09-25T09:32:26Z</time>
      </trkpt>
      <trkpt lat="43.66384" lon="5.18848">
        <ele>214.03</ele>
        <time>2021-09-25T09:32:27Z</time>
      </trkpt>
      <trkpt lat="43.66379" lon="5.1885">
        <ele>214.03</ele>
        <time>2021-09-25T09:32:28Z</time>
      </trkpt>
      <trkpt lat="43.66374" lon="5.18853">
        <ele>214.03</ele>
        <time>2021-09-25T09:32:29Z</time>
      </trkpt>
      <trkpt lat="43.6637" lon="5.18857">
        <ele>214.03</ele>
        <time>2021-09-25T09:32:30Z</time>
      </trkpt>
      <trkpt lat="43.66366" lon="5.18862">
        <ele>214.03</ele>
        <time>2021-09-25T09:32:31Z</time>
      </trkpt>
      <trkpt lat="43.66362" lon="5.18867">
        <ele>214.03</ele>
        <time>2021-09-25T09:32:32Z</time>
      </trkpt>
      <trkpt lat="43.66342" lon="5.18898">
        <ele>214.51</ele>
        <time>2021-09-25T09:32:38Z</time>
      </trkpt>
      <trkpt lat="43.66319" lon="5.18938">
        <ele>216.43</ele>
        <time>2021-09-25T09:32:46Z</time>
      </trkpt>
      <trkpt lat="43.66272" lon="5.19044">
        <ele>217.4</ele>
        <time>2021-09-25T09:33:06Z</time>
      </trkpt>
      <trkpt lat="43.6627" lon="5.1905">
        <ele>217.4</ele>
        <time>2021-09-25T09:33:07Z</time>
      </trkpt>
      <trkpt lat="43.66267" lon="5.19056">
        <ele>216.91</ele>
        <time>2021-09-25T09:33:08Z</time>
      </trkpt>
      <trkpt lat="43.66265" lon="5.19062">
        <ele>216.91</ele>
        <time>2021-09-25T09:33:09Z</time>
      </trkpt>
      <trkpt lat="43.66245" lon="5.19131">
        <ele>216.43</ele>
        <time>2021-09-25T09:33:21Z</time>
      </trkpt>
      <trkpt lat="43.66243" lon="5.19135">
        <ele>216.43</ele>
        <time>2021-09-25T09:33:22Z</time>
      </trkpt>
      <trkpt lat="43.66241" lon="5.19139">
        <ele>216.43</ele>
        <time>2021-09-25T09:33:23Z</time>
      </trkpt>
      <trkpt lat="43.66239" lon="5.19142">
        <ele>216.91</ele>
        <time>2021-09-25T09:33:24Z</time>
      </trkpt>
      <trkpt lat="43.66237" lon="5.19146">
        <ele>216.91</ele>
        <time>2021-09-25T09:33:25Z</time>
      </trkpt>
      <trkpt lat="43.66235" lon="5.19149">
        <ele>216.91</ele>
        <time>2021-09-25T09:33:26Z</time>
      </trkpt>
      <trkpt lat="43.66233" lon="5.19153">
        <ele>216.91</ele>
        <time>2021-09-25T09:33:27Z</time>
      </trkpt>
      <trkpt lat="43.6623" lon="5.19156">
        <ele>217.4</ele>
        <time>2021-09-25T09:33:28Z</time>
      </trkpt>
      <trkpt lat="43.66228" lon="5.19159">
        <ele>217.4</ele>
        <time>2021-09-25T09:33:29Z</time>
      </trkpt>
      <trkpt lat="43.66225" lon="5.19161">
        <ele>217.4</ele>
        <time>2021-09-25T09:33:30Z</time>
      </trkpt>
      <trkpt lat="43.66199" lon="5.19189">
        <ele>217.4</ele>
        <time>2021-09-25T09:33:43Z</time>
      </trkpt>
      <trkpt lat="43.66198" lon="5.19193">
        <ele>217.88</ele>
        <time>2021-09-25T09:33:44Z</time>
      </trkpt>
      <trkpt lat="43.66196" lon="5.19197">
        <ele>217.88</ele>
        <time>2021-09-25T09:33:45Z</time>
      </trkpt>
      <trkpt lat="43.66174" lon="5.19271">
        <ele>219.8</ele>
        <time>2021-09-25T09:34:01Z</time>
      </trkpt>
      <trkpt lat="43.66162" lon="5.19328">
        <ele>219.32</ele>
        <time>2021-09-25T09:34:12Z</time>
      </trkpt>
      <trkpt lat="43.66162" lon="5.19333">
        <ele>219.32</ele>
        <time>2021-09-25T09:34:13Z</time>
      </trkpt>
      <trkpt lat="43.66164" lon="5.19358">
        <ele>219.32</ele>
        <time>2021-09-25T09:34:17Z</time>
      </trkpt>
      <trkpt lat="43.66164" lon="5.19365">
        <ele>219.32</ele>
        <time>2021-09-25T09:34:18Z</time>
      </trkpt>
      <trkpt lat="43.66144" lon="5.19517">
        <ele>213.55</ele>
        <time>2021-09-25T09:34:39Z</time>
      </trkpt>
      <trkpt lat="43.66144" lon="5.19524">
        <ele>213.55</ele>
        <time>2021-09-25T09:34:40Z</time>
      </trkpt>
      <trkpt lat="43.66143" lon="5.19541">
        <ele>213.55</ele>
        <time>2021-09-25T09:34:42Z</time>
      </trkpt>
      <trkpt lat="43.66142" lon="5.19549">
        <ele>213.07</ele>
        <time>2021-09-25T09:34:43Z</time>
      </trkpt>
      <trkpt lat="43.6614" lon="5.19564">
        <ele>212.59</ele>
        <time>2021-09-25T09:34:45Z</time>
      </trkpt>
      <trkpt lat="43.66138" lon="5.19571">
        <ele>212.59</ele>
        <time>2021-09-25T09:34:46Z</time>
      </trkpt>
      <trkpt lat="43.66135" lon="5.19585">
        <ele>212.59</ele>
        <time>2021-09-25T09:34:48Z</time>
      </trkpt>
      <trkpt lat="43.66113" lon="5.1975">
        <ele>212.59</ele>
        <time>2021-09-25T09:35:12Z</time>
      </trkpt>
      <trkpt lat="43.66108" lon="5.19793">
        <ele>213.07</ele>
        <time>2021-09-25T09:35:19Z</time>
      </trkpt>
      <trkpt lat="43.66102" lon="5.19935">
        <ele>214.99</ele>
        <time>2021-09-25T09:35:44Z</time>
      </trkpt>
      <trkpt lat="43.66111" lon="5.20015">
        <ele>217.4</ele>
        <time>2021-09-25T09:36:00Z</time>
      </trkpt>
      <trkpt lat="43.66124" lon="5.20121">
        <ele>225.09</ele>
        <time>2021-09-25T09:36:24Z</time>
      </trkpt>
      <trkpt lat="43.66146" lon="5.20234">
        <ele>223.64</ele>
        <time>2021-09-25T09:36:46Z</time>
      </trkpt>
      <trkpt lat="43.66153" lon="5.20278">
        <ele>222.68</ele>
        <time>2021-09-25T09:36:54Z</time>
      </trkpt>
      <trkpt lat="43.66148" lon="5.20427">
        <ele>215.47</ele>
        <time>2021-09-25T09:37:11Z</time>
      </trkpt>
      <trkpt lat="43.66143" lon="5.20509">
        <ele>213.07</ele>
        <time>2021-09-25T09:37:20Z</time>
      </trkpt>
      <trkpt lat="43.66147" lon="5.20565">
        <ele>211.15</ele>
        <time>2021-09-25T09:37:26Z</time>
      </trkpt>
      <trkpt lat="43.66169" lon="5.20755">
        <ele>205.86</ele>
        <time>2021-09-25T09:37:46Z</time>
      </trkpt>
      <trkpt lat="43.66169" lon="5.2083">
        <ele>204.42</ele>
        <time>2021-09-25T09:37:54Z</time>
      </trkpt>
      <trkpt lat="43.66146" lon="5.20974">
        <ele>197.69</ele>
        <time>2021-09-25T09:38:08Z</time>
      </trkpt>
      <trkpt lat="43.66146" lon="5.20986">
        <ele>197.21</ele>
        <time>2021-09-25T09:38:09Z</time>
      </trkpt>
      <trkpt lat="43.66146" lon="5.20997">
        <ele>197.21</ele>
        <time>2021-09-25T09:38:10Z</time>
      </trkpt>
      <trkpt lat="43.66148" lon="5.21006">
        <ele>197.21</ele>
        <time>2021-09-25T09:38:11Z</time>
      </trkpt>
      <trkpt lat="43.6615" lon="5.21014">
        <ele>196.73</ele>
        <time>2021-09-25T09:38:12Z</time>
      </trkpt>
      <trkpt lat="43.66153" lon="5.2102">
        <ele>196.73</ele>
        <time>2021-09-25T09:38:13Z</time>
      </trkpt>
      <trkpt lat="43.66161" lon="5.21044">
        <ele>197.69</ele>
        <time>2021-09-25T09:38:26Z</time>
      </trkpt>
      <trkpt lat="43.66162" lon="5.21048">
        <ele>197.21</ele>
        <time>2021-09-25T09:38:34Z</time>
      </trkpt>
      <trkpt lat="43.66162" lon="5.21049">
        <ele>197.21</ele>
        <time>2021-09-25T09:38:35Z</time>
      </trkpt>
      <trkpt lat="43.66161" lon="5.21053">
        <ele>197.21</ele>
        <time>2021-09-25T09:38:37Z</time>
      </trkpt>
      <trkpt lat="43.66161" lon="5.21056">
        <ele>197.21</ele>
        <time>2021-09-25T09:38:38Z</time>
      </trkpt>
      <trkpt lat="43.66149" lon="5.21162">
        <ele>197.21</ele>
        <time>2021-09-25T09:38:52Z</time>
      </trkpt>
      <trkpt lat="43.66132" lon="5.21321">
        <ele>198.65</ele>
        <time>2021-09-25T09:39:11Z</time>
      </trkpt>
      <trkpt lat="43.66132" lon="5.21326">
        <ele>198.65</ele>
        <time>2021-09-25T09:39:12Z</time>
      </trkpt>
      <trkpt lat="43.66131" lon="5.21331">
        <ele>198.65</ele>
        <time>2021-09-25T09:39:13Z</time>
      </trkpt>
      <trkpt lat="43.66131" lon="5.21334">
        <ele>199.13</ele>
        <time>2021-09-25T09:39:14Z</time>
      </trkpt>
      <trkpt lat="43.66131" lon="5.21338">
        <ele>199.13</ele>
        <time>2021-09-25T09:39:15Z</time>
      </trkpt>
      <trkpt lat="43.66131" lon="5.21343">
        <ele>199.61</ele>
        <time>2021-09-25T09:39:16Z</time>
      </trkpt>
      <trkpt lat="43.66132" lon="5.21348">
        <ele>199.61</ele>
        <time>2021-09-25T09:39:17Z</time>
      </trkpt>
      <trkpt lat="43.66132" lon="5.21353">
        <ele>200.09</ele>
        <time>2021-09-25T09:39:18Z</time>
      </trkpt>
      <trkpt lat="43.66131" lon="5.21373">
        <ele>201.05</ele>
        <time>2021-09-25T09:39:21Z</time>
      </trkpt>
      <trkpt lat="43.6613" lon="5.21379">
        <ele>201.53</ele>
        <time>2021-09-25T09:39:22Z</time>
      </trkpt>
      <trkpt lat="43.66128" lon="5.21385">
        <ele>202.01</ele>
        <time>2021-09-25T09:39:23Z</time>
      </trkpt>
      <trkpt lat="43.66123" lon="5.214">
        <ele>202.49</ele>
        <time>2021-09-25T09:39:26Z</time>
      </trkpt>
      <trkpt lat="43.66069" lon="5.21517">
        <ele>200.09</ele>
        <time>2021-09-25T09:39:42Z</time>
      </trkpt>
      <trkpt lat="43.66003" lon="5.2167">
        <ele>192.88</ele>
        <time>2021-09-25T09:39:59Z</time>
      </trkpt>
      <trkpt lat="43.65967" lon="5.21775">
        <ele>190.96</ele>
        <time>2021-09-25T09:40:14Z</time>
      </trkpt>
      <trkpt lat="43.65968" lon="5.21774">
        <ele>194.8</ele>
        <time>2021-09-25T09:40:53Z</time>
      </trkpt>
      <trkpt lat="43.65968" lon="5.21776">
        <ele>195.28</ele>
        <time>2021-09-25T09:40:54Z</time>
      </trkpt>
      <trkpt lat="43.65967" lon="5.2178">
        <ele>195.28</ele>
        <time>2021-09-25T09:40:59Z</time>
      </trkpt>
      <trkpt lat="43.65966" lon="5.21782">
        <ele>195.28</ele>
        <time>2021-09-25T09:41:00Z</time>
      </trkpt>
      <trkpt lat="43.65966" lon="5.21783">
        <ele>195.28</ele>
        <time>2021-09-25T09:41:01Z</time>
      </trkpt>
      <trkpt lat="43.65965" lon="5.21786">
        <ele>195.28</ele>
        <time>2021-09-25T09:41:02Z</time>
      </trkpt>
      <trkpt lat="43.65964" lon="5.21789">
        <ele>194.8</ele>
        <time>2021-09-25T09:41:03Z</time>
      </trkpt>
      <trkpt lat="43.65942" lon="5.21887">
        <ele>194.32</ele>
        <time>2021-09-25T09:41:16Z</time>
      </trkpt>
      <trkpt lat="43.65928" lon="5.21951">
        <ele>194.8</ele>
        <time>2021-09-25T09:41:24Z</time>
      </trkpt>
      <trkpt lat="43.65888" lon="5.22091">
        <ele>195.77</ele>
        <time>2021-09-25T09:41:42Z</time>
      </trkpt>
      <trkpt lat="43.65868" lon="5.22133">
        <ele>197.69</ele>
        <time>2021-09-25T09:41:48Z</time>
      </trkpt>
      <trkpt lat="43.65864" lon="5.22138">
        <ele>198.17</ele>
        <time>2021-09-25T09:41:49Z</time>
      </trkpt>
      <trkpt lat="43.6586" lon="5.22143">
        <ele>198.17</ele>
        <time>2021-09-25T09:41:50Z</time>
      </trkpt>
      <trkpt lat="43.65854" lon="5.22147">
        <ele>198.17</ele>
        <time>2021-09-25T09:41:51Z</time>
      </trkpt>
      <trkpt lat="43.65848" lon="5.22149">
        <ele>198.17</ele>
        <time>2021-09-25T09:41:52Z</time>
      </trkpt>
      <trkpt lat="43.65841" lon="5.2215">
        <ele>198.17</ele>
        <time>2021-09-25T09:41:53Z</time>
      </trkpt>
      <trkpt lat="43.65835" lon="5.22151">
        <ele>198.65</ele>
        <time>2021-09-25T09:41:54Z</time>
      </trkpt>
      <trkpt lat="43.6577" lon="5.22177">
        <ele>201.53</ele>
        <time>2021-09-25T09:42:05Z</time>
      </trkpt>
      <trkpt lat="43.65766" lon="5.22182">
        <ele>202.01</ele>
        <time>2021-09-25T09:42:06Z</time>
      </trkpt>
      <trkpt lat="43.65763" lon="5.22189">
        <ele>202.01</ele>
        <time>2021-09-25T09:42:07Z</time>
      </trkpt>
      <trkpt lat="43.65763" lon="5.22197">
        <ele>202.49</ele>
        <time>2021-09-25T09:42:08Z</time>
      </trkpt>
      <trkpt lat="43.65763" lon="5.22204">
        <ele>202.98</ele>
        <time>2021-09-25T09:42:09Z</time>
      </trkpt>
      <trkpt lat="43.65765" lon="5.22211">
        <ele>203.46</ele>
        <time>2021-09-25T09:42:10Z</time>
      </trkpt>
      <trkpt lat="43.65767" lon="5.22219">
        <ele>203.94</ele>
        <time>2021-09-25T09:42:11Z</time>
      </trkpt>
      <trkpt lat="43.65769" lon="5.22227">
        <ele>203.94</ele>
        <time>2021-09-25T09:42:12Z</time>
      </trkpt>
      <trkpt lat="43.65782" lon="5.22276">
        <ele>203.94</ele>
        <time>2021-09-25T09:42:18Z</time>
      </trkpt>
      <trkpt lat="43.65783" lon="5.22286">
        <ele>203.46</ele>
        <time>2021-09-25T09:42:19Z</time>
      </trkpt>
      <trkpt lat="43.65783" lon="5.22295">
        <ele>202.98</ele>
        <time>2021-09-25T09:42:20Z</time>
      </trkpt>
      <trkpt lat="43.65777" lon="5.22336">
        <ele>201.05</ele>
        <time>2021-09-25T09:42:24Z</time>
      </trkpt>
      <trkpt lat="43.65774" lon="5.22346">
        <ele>200.09</ele>
        <time>2021-09-25T09:42:25Z</time>
      </trkpt>
      <trkpt lat="43.657" lon="5.2259">
        <ele>188.56</ele>
        <time>2021-09-25T09:42:46Z</time>
      </trkpt>
      <trkpt lat="43.65674" lon="5.22806">
        <ele>188.56</ele>
        <time>2021-09-25T09:43:09Z</time>
      </trkpt>
      <trkpt lat="43.65672" lon="5.22894">
        <ele>186.63</ele>
        <time>2021-09-25T09:43:18Z</time>
      </trkpt>
      <trkpt lat="43.65671" lon="5.22905">
        <ele>186.15</ele>
        <time>2021-09-25T09:43:19Z</time>
      </trkpt>
      <trkpt lat="43.65668" lon="5.22915">
        <ele>185.67</ele>
        <time>2021-09-25T09:43:20Z</time>
      </trkpt>
      <trkpt lat="43.65665" lon="5.22925">
        <ele>185.19</ele>
        <time>2021-09-25T09:43:21Z</time>
      </trkpt>
      <trkpt lat="43.65661" lon="5.22936">
        <ele>184.71</ele>
        <time>2021-09-25T09:43:22Z</time>
      </trkpt>
      <trkpt lat="43.65657" lon="5.22946">
        <ele>184.23</ele>
        <time>2021-09-25T09:43:23Z</time>
      </trkpt>
      <trkpt lat="43.65647" lon="5.22976">
        <ele>182.79</ele>
        <time>2021-09-25T09:43:26Z</time>
      </trkpt>
      <trkpt lat="43.65647" lon="5.22987">
        <ele>182.79</ele>
        <time>2021-09-25T09:43:27Z</time>
      </trkpt>
      <trkpt lat="43.65648" lon="5.22997">
        <ele>182.31</ele>
        <time>2021-09-25T09:43:28Z</time>
      </trkpt>
      <trkpt lat="43.65671" lon="5.23193">
        <ele>174.14</ele>
        <time>2021-09-25T09:43:45Z</time>
      </trkpt>
      <trkpt lat="43.65674" lon="5.23204">
        <ele>174.14</ele>
        <time>2021-09-25T09:43:46Z</time>
      </trkpt>
      <trkpt lat="43.65678" lon="5.23214">
        <ele>173.66</ele>
        <time>2021-09-25T09:43:47Z</time>
      </trkpt>
      <trkpt lat="43.65703" lon="5.23272">
        <ele>173.66</ele>
        <time>2021-09-25T09:43:54Z</time>
      </trkpt>
      <trkpt lat="43.65704" lon="5.23279">
        <ele>174.14</ele>
        <time>2021-09-25T09:43:55Z</time>
      </trkpt>
      <trkpt lat="43.65704" lon="5.23285">
        <ele>174.14</ele>
        <time>2021-09-25T09:43:56Z</time>
      </trkpt>
      <trkpt lat="43.65703" lon="5.2329">
        <ele>173.66</ele>
        <time>2021-09-25T09:43:57Z</time>
      </trkpt>
      <trkpt lat="43.65701" lon="5.23296">
        <ele>173.17</ele>
        <time>2021-09-25T09:43:58Z</time>
      </trkpt>
      <trkpt lat="43.65698" lon="5.23303">
        <ele>172.69</ele>
        <time>2021-09-25T09:43:59Z</time>
      </trkpt>
      <trkpt lat="43.65653" lon="5.23432">
        <ele>168.37</ele>
        <time>2021-09-25T09:44:15Z</time>
      </trkpt>
      <trkpt lat="43.65651" lon="5.23441">
        <ele>168.37</ele>
        <time>2021-09-25T09:44:16Z</time>
      </trkpt>
      <trkpt lat="43.65628" lon="5.23512">
        <ele>166.45</ele>
        <time>2021-09-25T09:44:25Z</time>
      </trkpt>
      <trkpt lat="43.65626" lon="5.2352">
        <ele>165.96</ele>
        <time>2021-09-25T09:44:26Z</time>
      </trkpt>
      <trkpt lat="43.65623" lon="5.23528">
        <ele>165.96</ele>
        <time>2021-09-25T09:44:27Z</time>
      </trkpt>
      <trkpt lat="43.65617" lon="5.23543">
        <ele>165</ele>
        <time>2021-09-25T09:44:29Z</time>
      </trkpt>
      <trkpt lat="43.6561" lon="5.23557">
        <ele>164.52</ele>
        <time>2021-09-25T09:44:31Z</time>
      </trkpt>
      <trkpt lat="43.65607" lon="5.23564">
        <ele>164.52</ele>
        <time>2021-09-25T09:44:32Z</time>
      </trkpt>
      <trkpt lat="43.65599" lon="5.23578">
        <ele>164.52</ele>
        <time>2021-09-25T09:44:34Z</time>
      </trkpt>
      <trkpt lat="43.65597" lon="5.23586">
        <ele>164.52</ele>
        <time>2021-09-25T09:44:35Z</time>
      </trkpt>
      <trkpt lat="43.65595" lon="5.23595">
        <ele>165</ele>
        <time>2021-09-25T09:44:36Z</time>
      </trkpt>
      <trkpt lat="43.65592" lon="5.23603">
        <ele>165</ele>
        <time>2021-09-25T09:44:37Z</time>
      </trkpt>
      <trkpt lat="43.65589" lon="5.23611">
        <ele>165</ele>
        <time>2021-09-25T09:44:38Z</time>
      </trkpt>
      <trkpt lat="43.65569" lon="5.23664">
        <ele>165.48</ele>
        <time>2021-09-25T09:44:44Z</time>
      </trkpt>
      <trkpt lat="43.65562" lon="5.23682">
        <ele>165.96</ele>
        <time>2021-09-25T09:44:46Z</time>
      </trkpt>
      <trkpt lat="43.65559" lon="5.23691">
        <ele>166.45</ele>
        <time>2021-09-25T09:44:47Z</time>
      </trkpt>
      <trkpt lat="43.65534" lon="5.23765">
        <ele>165.96</ele>
        <time>2021-09-25T09:44:56Z</time>
      </trkpt>
      <trkpt lat="43.65531" lon="5.23773">
        <ele>165.96</ele>
        <time>2021-09-25T09:44:57Z</time>
      </trkpt>
      <trkpt lat="43.65521" lon="5.23814">
        <ele>165</ele>
        <time>2021-09-25T09:45:02Z</time>
      </trkpt>
      <trkpt lat="43.65513" lon="5.23838">
        <ele>165</ele>
        <time>2021-09-25T09:45:05Z</time>
      </trkpt>
      <trkpt lat="43.65505" lon="5.23869">
        <ele>163.56</ele>
        <time>2021-09-25T09:45:09Z</time>
      </trkpt>
      <trkpt lat="43.65504" lon="5.23876">
        <ele>163.56</ele>
        <time>2021-09-25T09:45:10Z</time>
      </trkpt>
      <trkpt lat="43.65476" lon="5.23965">
        <ele>162.6</ele>
        <time>2021-09-25T09:45:22Z</time>
      </trkpt>
      <trkpt lat="43.65473" lon="5.23973">
        <ele>162.6</ele>
        <time>2021-09-25T09:45:23Z</time>
      </trkpt>
      <trkpt lat="43.65452" lon="5.24036">
        <ele>165.48</ele>
        <time>2021-09-25T09:45:31Z</time>
      </trkpt>
      <trkpt lat="43.6545" lon="5.24044">
        <ele>166.45</ele>
        <time>2021-09-25T09:45:32Z</time>
      </trkpt>
      <trkpt lat="43.65448" lon="5.24051">
        <ele>166.93</ele>
        <time>2021-09-25T09:45:33Z</time>
      </trkpt>
      <trkpt lat="43.65429" lon="5.2412">
        <ele>172.21</ele>
        <time>2021-09-25T09:45:42Z</time>
      </trkpt>
      <trkpt lat="43.65372" lon="5.24297">
        <ele>172.21</ele>
        <time>2021-09-25T09:46:04Z</time>
      </trkpt>
      <trkpt lat="43.65331" lon="5.24429">
        <ele>172.69</ele>
        <time>2021-09-25T09:46:24Z</time>
      </trkpt>
      <trkpt lat="43.65333" lon="5.24432">
        <ele>173.17</ele>
        <time>2021-09-25T09:46:25Z</time>
      </trkpt>
      <trkpt lat="43.65336" lon="5.24435">
        <ele>173.66</ele>
        <time>2021-09-25T09:46:26Z</time>
      </trkpt>
      <trkpt lat="43.6534" lon="5.24438">
        <ele>173.66</ele>
        <time>2021-09-25T09:46:27Z</time>
      </trkpt>
      <trkpt lat="43.65343" lon="5.24443">
        <ele>173.17</ele>
        <time>2021-09-25T09:46:28Z</time>
      </trkpt>
      <trkpt lat="43.65346" lon="5.24449">
        <ele>173.17</ele>
        <time>2021-09-25T09:46:29Z</time>
      </trkpt>
      <trkpt lat="43.65348" lon="5.24455">
        <ele>173.66</ele>
        <time>2021-09-25T09:46:30Z</time>
      </trkpt>
      <trkpt lat="43.6535" lon="5.24463">
        <ele>173.66</ele>
        <time>2021-09-25T09:46:31Z</time>
      </trkpt>
      <trkpt lat="43.65384" lon="5.24596">
        <ele>177.02</ele>
        <time>2021-09-25T09:46:48Z</time>
      </trkpt>
      <trkpt lat="43.65386" lon="5.24603">
        <ele>177.02</ele>
        <time>2021-09-25T09:46:49Z</time>
      </trkpt>
      <trkpt lat="43.65462" lon="5.24756">
        <ele>181.35</ele>
        <time>2021-09-25T09:47:11Z</time>
      </trkpt>
      <trkpt lat="43.65554" lon="5.24879">
        <ele>183.75</ele>
        <time>2021-09-25T09:47:32Z</time>
      </trkpt>
      <trkpt lat="43.65561" lon="5.24902">
        <ele>183.75</ele>
        <time>2021-09-25T09:47:35Z</time>
      </trkpt>
      <trkpt lat="43.65562" lon="5.24911">
        <ele>183.75</ele>
        <time>2021-09-25T09:47:36Z</time>
      </trkpt>
      <trkpt lat="43.65563" lon="5.24919">
        <ele>183.75</ele>
        <time>2021-09-25T09:47:37Z</time>
      </trkpt>
      <trkpt lat="43.65563" lon="5.24928">
        <ele>183.75</ele>
        <time>2021-09-25T09:47:38Z</time>
      </trkpt>
      <trkpt lat="43.65562" lon="5.24936">
        <ele>183.75</ele>
        <time>2021-09-25T09:47:39Z</time>
      </trkpt>
      <trkpt lat="43.65558" lon="5.2516">
        <ele>184.23</ele>
        <time>2021-09-25T09:48:05Z</time>
      </trkpt>
      <trkpt lat="43.65544" lon="5.25359">
        <ele>184.71</ele>
        <time>2021-09-25T09:48:28Z</time>
      </trkpt>
      <trkpt lat="43.65556" lon="5.25482">
        <ele>189.04</ele>
        <time>2021-09-25T09:48:43Z</time>
      </trkpt>
      <trkpt lat="43.65555" lon="5.25491">
        <ele>189.04</ele>
        <time>2021-09-25T09:48:44Z</time>
      </trkpt>
      <trkpt lat="43.65553" lon="5.25497">
        <ele>189.52</ele>
        <time>2021-09-25T09:48:45Z</time>
      </trkpt>
      <trkpt lat="43.65514" lon="5.25594">
        <ele>191.92</ele>
        <time>2021-09-25T09:48:58Z</time>
      </trkpt>
      <trkpt lat="43.65513" lon="5.256">
        <ele>191.92</ele>
        <time>2021-09-25T09:48:59Z</time>
      </trkpt>
      <trkpt lat="43.65502" lon="5.25676">
        <ele>191.92</ele>
        <time>2021-09-25T09:49:08Z</time>
      </trkpt>
      <trkpt lat="43.65502" lon="5.25684">
        <ele>191.92</ele>
        <time>2021-09-25T09:49:09Z</time>
      </trkpt>
      <trkpt lat="43.65521" lon="5.25791">
        <ele>192.88</ele>
        <time>2021-09-25T09:49:22Z</time>
      </trkpt>
      <trkpt lat="43.65524" lon="5.25817">
        <ele>193.36</ele>
        <time>2021-09-25T09:49:25Z</time>
      </trkpt>
      <trkpt lat="43.65526" lon="5.25823">
        <ele>193.84</ele>
        <time>2021-09-25T09:49:26Z</time>
      </trkpt>
      <trkpt lat="43.65529" lon="5.25832">
        <ele>194.32</ele>
        <time>2021-09-25T09:49:28Z</time>
      </trkpt>
      <trkpt lat="43.6553" lon="5.25839">
        <ele>194.32</ele>
        <time>2021-09-25T09:49:29Z</time>
      </trkpt>
      <trkpt lat="43.65529" lon="5.25873">
        <ele>193.36</ele>
        <time>2021-09-25T09:49:33Z</time>
      </trkpt>
      <trkpt lat="43.65529" lon="5.25882">
        <ele>192.88</ele>
        <time>2021-09-25T09:49:34Z</time>
      </trkpt>
      <trkpt lat="43.65528" lon="5.25935">
        <ele>190.96</ele>
        <time>2021-09-25T09:49:40Z</time>
      </trkpt>
      <trkpt lat="43.65528" lon="5.25944">
        <ele>190.48</ele>
        <time>2021-09-25T09:49:41Z</time>
      </trkpt>
      <trkpt lat="43.65522" lon="5.26031">
        <ele>191.44</ele>
        <time>2021-09-25T09:49:51Z</time>
      </trkpt>
      <trkpt lat="43.65519" lon="5.26046">
        <ele>190.96</ele>
        <time>2021-09-25T09:49:53Z</time>
      </trkpt>
      <trkpt lat="43.65515" lon="5.26051">
        <ele>190.96</ele>
        <time>2021-09-25T09:49:54Z</time>
      </trkpt>
      <trkpt lat="43.6551" lon="5.26056">
        <ele>190.96</ele>
        <time>2021-09-25T09:49:55Z</time>
      </trkpt>
      <trkpt lat="43.65498" lon="5.26072">
        <ele>190.96</ele>
        <time>2021-09-25T09:49:59Z</time>
      </trkpt>
      <trkpt lat="43.65498" lon="5.26076">
        <ele>191.44</ele>
        <time>2021-09-25T09:50:00Z</time>
      </trkpt>
      <trkpt lat="43.65499" lon="5.2608">
        <ele>191.92</ele>
        <time>2021-09-25T09:50:01Z</time>
      </trkpt>
      <trkpt lat="43.65501" lon="5.26084">
        <ele>192.4</ele>
        <time>2021-09-25T09:50:02Z</time>
      </trkpt>
      <trkpt lat="43.65505" lon="5.26086">
        <ele>193.36</ele>
        <time>2021-09-25T09:50:03Z</time>
      </trkpt>
      <trkpt lat="43.65508" lon="5.26088">
        <ele>193.84</ele>
        <time>2021-09-25T09:50:04Z</time>
      </trkpt>
      <trkpt lat="43.65512" lon="5.26091">
        <ele>194.32</ele>
        <time>2021-09-25T09:50:05Z</time>
      </trkpt>
      <trkpt lat="43.65516" lon="5.26095">
        <ele>194.8</ele>
        <time>2021-09-25T09:50:06Z</time>
      </trkpt>
      <trkpt lat="43.6552" lon="5.26099">
        <ele>195.28</ele>
        <time>2021-09-25T09:50:07Z</time>
      </trkpt>
      <trkpt lat="43.65523" lon="5.26104">
        <ele>196.25</ele>
        <time>2021-09-25T09:50:08Z</time>
      </trkpt>
      <trkpt lat="43.65526" lon="5.26109">
        <ele>196.73</ele>
        <time>2021-09-25T09:50:09Z</time>
      </trkpt>
      <trkpt lat="43.65529" lon="5.26115">
        <ele>197.21</ele>
        <time>2021-09-25T09:50:10Z</time>
      </trkpt>
      <trkpt lat="43.65531" lon="5.26129">
        <ele>198.17</ele>
        <time>2021-09-25T09:50:12Z</time>
      </trkpt>
      <trkpt lat="43.65531" lon="5.26137">
        <ele>198.65</ele>
        <time>2021-09-25T09:50:13Z</time>
      </trkpt>
      <trkpt lat="43.65531" lon="5.26144">
        <ele>198.65</ele>
        <time>2021-09-25T09:50:14Z</time>
      </trkpt>
      <trkpt lat="43.65531" lon="5.26152">
        <ele>198.17</ele>
        <time>2021-09-25T09:50:15Z</time>
      </trkpt>
      <trkpt lat="43.65531" lon="5.2616">
        <ele>198.17</ele>
        <time>2021-09-25T09:50:16Z</time>
      </trkpt>
      <trkpt lat="43.6553" lon="5.2617">
        <ele>198.17</ele>
        <time>2021-09-25T09:50:17Z</time>
      </trkpt>
      <trkpt lat="43.65529" lon="5.26193">
        <ele>198.65</ele>
        <time>2021-09-25T09:50:20Z</time>
      </trkpt>
      <trkpt lat="43.65527" lon="5.26201">
        <ele>198.65</ele>
        <time>2021-09-25T09:50:21Z</time>
      </trkpt>
      <trkpt lat="43.65517" lon="5.26249">
        <ele>199.13</ele>
        <time>2021-09-25T09:50:27Z</time>
      </trkpt>
      <trkpt lat="43.65518" lon="5.26255">
        <ele>198.65</ele>
        <time>2021-09-25T09:50:28Z</time>
      </trkpt>
      <trkpt lat="43.6552" lon="5.26261">
        <ele>198.65</ele>
        <time>2021-09-25T09:50:29Z</time>
      </trkpt>
      <trkpt lat="43.65524" lon="5.26265">
        <ele>198.65</ele>
        <time>2021-09-25T09:50:30Z</time>
      </trkpt>
      <trkpt lat="43.65529" lon="5.26269">
        <ele>199.13</ele>
        <time>2021-09-25T09:50:31Z</time>
      </trkpt>
      <trkpt lat="43.65535" lon="5.26272">
        <ele>199.13</ele>
        <time>2021-09-25T09:50:32Z</time>
      </trkpt>
      <trkpt lat="43.6554" lon="5.26275">
        <ele>199.13</ele>
        <time>2021-09-25T09:50:33Z</time>
      </trkpt>
      <trkpt lat="43.65546" lon="5.26278">
        <ele>199.61</ele>
        <time>2021-09-25T09:50:34Z</time>
      </trkpt>
      <trkpt lat="43.6555" lon="5.26283">
        <ele>199.61</ele>
        <time>2021-09-25T09:50:35Z</time>
      </trkpt>
      <trkpt lat="43.65554" lon="5.26288">
        <ele>200.09</ele>
        <time>2021-09-25T09:50:36Z</time>
      </trkpt>
      <trkpt lat="43.65555" lon="5.26295">
        <ele>200.09</ele>
        <time>2021-09-25T09:50:37Z</time>
      </trkpt>
      <trkpt lat="43.65555" lon="5.26303">
        <ele>200.09</ele>
        <time>2021-09-25T09:50:38Z</time>
      </trkpt>
      <trkpt lat="43.65554" lon="5.2631">
        <ele>200.09</ele>
        <time>2021-09-25T09:50:39Z</time>
      </trkpt>
      <trkpt lat="43.65549" lon="5.26339">
        <ele>199.61</ele>
        <time>2021-09-25T09:50:44Z</time>
      </trkpt>
      <trkpt lat="43.65539" lon="5.26337">
        <ele>200.09</ele>
        <time>2021-09-25T09:50:53Z</time>
      </trkpt>
    </trkseg>
  </trk>
</gpx>